<?xml version="1.0" encoding="UTF-8" standalone="no" ?>
<gpx xmlns="http://www.topografix.com/GPX/1/1" xmlns:xsi="http://www.w3.org/2001/XMLSchema-instance" xsi:schemaLocation="http://www.topografix.com/GPX/1/1 http://www.topografix.com/GPX/1/1/gpx.xsd" version="1.1" creator="VisuGPX - https://www.visugpx.com">
  <metadata>
    <name>GR52 / GR5 par Menton</name>
    <desc><![CDATA[Randonnée de 7 jours par le GR5 de Menton en direction du Nord en traversant notamment le parc du Mercantour.Enorme variété de paysages dès le départ et vues imprenables dès les premières heures, on est tout de suite dans le bain. Altitude max 2800 m mais encore pas mal de névés à cette période surtout à la descente vers le refuge de Nice. Comme d'habitude nous avons préféré les bivouacs "into the wild" et nous n'avons pas été déçus ! Terrain correct cependant les 2 premiers jours nécessitent de pouvoir enquiller beaucoup de D+.]]></desc>
  </metadata>
  <wpt lat="43.72679" lon="6.51125">
    <ele>955.9</ele>
    <name><![CDATA[xXSNAjco--.1.3gp]]></name>
  </wpt>
  <wpt lat="43.72679" lon="6.51125">
    <ele>955.9</ele>
    <name><![CDATA[xXSNAjco--.1.3gp]]></name>
  </wpt>
  <trk>
    <name><![CDATA[GR52 / GR5 par Menton_5]]></name>
    <trkseg>
      <trkpt lat="44.10353" lon="7.36599">
        <ele>2324.176</ele>
        <time>2020-06-28T05:18:45Z</time>
      </trkpt>
      <trkpt lat="44.10298" lon="7.3663">
        <ele>2125.967</ele>
        <time>2020-06-28T05:19:00Z</time>
      </trkpt>
      <trkpt lat="44.10304" lon="7.36625">
        <ele>2127.512</ele>
        <time>2020-06-28T05:19:16Z</time>
      </trkpt>
      <trkpt lat="44.10323" lon="7.36604">
        <ele>2119.845</ele>
        <time>2020-06-28T05:19:31Z</time>
      </trkpt>
      <trkpt lat="44.10313" lon="7.36591">
        <ele>2115.909</ele>
        <time>2020-06-28T05:19:46Z</time>
      </trkpt>
      <trkpt lat="44.10328" lon="7.36587">
        <ele>2120.592</ele>
        <time>2020-06-28T05:20:02Z</time>
      </trkpt>
      <trkpt lat="44.10337" lon="7.36582">
        <ele>2116.672</ele>
        <time>2020-06-28T05:20:18Z</time>
      </trkpt>
      <trkpt lat="44.10345" lon="7.3658">
        <ele>2111.869</ele>
        <time>2020-06-28T05:20:33Z</time>
      </trkpt>
      <trkpt lat="44.10364" lon="7.36568">
        <ele>2108.522</ele>
        <time>2020-06-28T05:20:49Z</time>
      </trkpt>
      <trkpt lat="44.10377" lon="7.36565">
        <ele>2111.963</ele>
        <time>2020-06-28T05:21:04Z</time>
      </trkpt>
      <trkpt lat="44.10378" lon="7.36562">
        <ele>2111.225</ele>
        <time>2020-06-28T05:21:20Z</time>
      </trkpt>
      <trkpt lat="44.10381" lon="7.36569">
        <ele>2111.401</ele>
        <time>2020-06-28T05:21:35Z</time>
      </trkpt>
      <trkpt lat="44.10383" lon="7.36574">
        <ele>2110.77</ele>
        <time>2020-06-28T05:21:51Z</time>
      </trkpt>
      <trkpt lat="44.10389" lon="7.36576">
        <ele>2107.583</ele>
        <time>2020-06-28T05:22:07Z</time>
      </trkpt>
      <trkpt lat="44.1039" lon="7.36581">
        <ele>2109.313</ele>
        <time>2020-06-28T05:22:23Z</time>
      </trkpt>
      <trkpt lat="44.1039" lon="7.36582">
        <ele>2111.467</ele>
        <time>2020-06-28T05:22:38Z</time>
      </trkpt>
      <trkpt lat="44.10399" lon="7.36574">
        <ele>2110.123</ele>
        <time>2020-06-28T05:22:53Z</time>
      </trkpt>
      <trkpt lat="44.10413" lon="7.36548">
        <ele>2110.783</ele>
        <time>2020-06-28T05:23:09Z</time>
      </trkpt>
      <trkpt lat="44.10425" lon="7.36534">
        <ele>2111.155</ele>
        <time>2020-06-28T05:23:25Z</time>
      </trkpt>
      <trkpt lat="44.10428" lon="7.3652">
        <ele>2114.053</ele>
        <time>2020-06-28T05:23:40Z</time>
      </trkpt>
      <trkpt lat="44.10429" lon="7.36505">
        <ele>2118.325</ele>
        <time>2020-06-28T05:23:56Z</time>
      </trkpt>
      <trkpt lat="44.10438" lon="7.36498">
        <ele>2117.367</ele>
        <time>2020-06-28T05:24:12Z</time>
      </trkpt>
      <trkpt lat="44.10436" lon="7.36488">
        <ele>2122.705</ele>
        <time>2020-06-28T05:24:28Z</time>
      </trkpt>
      <trkpt lat="44.10434" lon="7.3648">
        <ele>2126.509</ele>
        <time>2020-06-28T05:24:44Z</time>
      </trkpt>
      <trkpt lat="44.10429" lon="7.36473">
        <ele>2129.016</ele>
        <time>2020-06-28T05:25:00Z</time>
      </trkpt>
      <trkpt lat="44.10432" lon="7.36463">
        <ele>2131.918</ele>
        <time>2020-06-28T05:25:15Z</time>
      </trkpt>
      <trkpt lat="44.1043" lon="7.36456">
        <ele>2132.597</ele>
        <time>2020-06-28T05:25:31Z</time>
      </trkpt>
      <trkpt lat="44.10425" lon="7.36442">
        <ele>2137.998</ele>
        <time>2020-06-28T05:25:47Z</time>
      </trkpt>
      <trkpt lat="44.10425" lon="7.36436">
        <ele>2138.696</ele>
        <time>2020-06-28T05:26:03Z</time>
      </trkpt>
      <trkpt lat="44.10422" lon="7.36423">
        <ele>2141.116</ele>
        <time>2020-06-28T05:26:19Z</time>
      </trkpt>
      <trkpt lat="44.10418" lon="7.36412">
        <ele>2140.658</ele>
        <time>2020-06-28T05:26:34Z</time>
      </trkpt>
      <trkpt lat="44.10415" lon="7.36405">
        <ele>2142.738</ele>
        <time>2020-06-28T05:26:50Z</time>
      </trkpt>
      <trkpt lat="44.10426" lon="7.36386">
        <ele>2146.555</ele>
        <time>2020-06-28T05:27:05Z</time>
      </trkpt>
      <trkpt lat="44.10426" lon="7.36379">
        <ele>2149.613</ele>
        <time>2020-06-28T05:27:21Z</time>
      </trkpt>
      <trkpt lat="44.10422" lon="7.36375">
        <ele>2152.408</ele>
        <time>2020-06-28T05:27:37Z</time>
      </trkpt>
      <trkpt lat="44.10426" lon="7.36371">
        <ele>2155.71</ele>
        <time>2020-06-28T05:27:52Z</time>
      </trkpt>
      <trkpt lat="44.10424" lon="7.36359">
        <ele>2157.643</ele>
        <time>2020-06-28T05:28:07Z</time>
      </trkpt>
      <trkpt lat="44.10426" lon="7.36349">
        <ele>2158.253</ele>
        <time>2020-06-28T05:28:23Z</time>
      </trkpt>
      <trkpt lat="44.10432" lon="7.36348">
        <ele>2159.818</ele>
        <time>2020-06-28T05:28:38Z</time>
      </trkpt>
      <trkpt lat="44.1044" lon="7.36347">
        <ele>2161.653</ele>
        <time>2020-06-28T05:28:54Z</time>
      </trkpt>
      <trkpt lat="44.10444" lon="7.36336">
        <ele>2165.441</ele>
        <time>2020-06-28T05:29:10Z</time>
      </trkpt>
      <trkpt lat="44.10444" lon="7.36326">
        <ele>2166.929</ele>
        <time>2020-06-28T05:29:26Z</time>
      </trkpt>
      <trkpt lat="44.10441" lon="7.36317">
        <ele>2169.609</ele>
        <time>2020-06-28T05:29:42Z</time>
      </trkpt>
      <trkpt lat="44.10443" lon="7.3631">
        <ele>2172.015</ele>
        <time>2020-06-28T05:29:57Z</time>
      </trkpt>
      <trkpt lat="44.10443" lon="7.36294">
        <ele>2175.505</ele>
        <time>2020-06-28T05:30:13Z</time>
      </trkpt>
      <trkpt lat="44.10442" lon="7.36289">
        <ele>2175.263</ele>
        <time>2020-06-28T05:30:28Z</time>
      </trkpt>
      <trkpt lat="44.10437" lon="7.36281">
        <ele>2177.501</ele>
        <time>2020-06-28T05:30:43Z</time>
      </trkpt>
      <trkpt lat="44.1043" lon="7.36265">
        <ele>2178.9</ele>
        <time>2020-06-28T05:30:59Z</time>
      </trkpt>
      <trkpt lat="44.10424" lon="7.3625">
        <ele>2182.573</ele>
        <time>2020-06-28T05:31:14Z</time>
      </trkpt>
      <trkpt lat="44.10414" lon="7.36236">
        <ele>2185.1</ele>
        <time>2020-06-28T05:31:30Z</time>
      </trkpt>
      <trkpt lat="44.10402" lon="7.36226">
        <ele>2187.44</ele>
        <time>2020-06-28T05:31:45Z</time>
      </trkpt>
      <trkpt lat="44.10402" lon="7.36216">
        <ele>2189.414</ele>
        <time>2020-06-28T05:32:01Z</time>
      </trkpt>
      <trkpt lat="44.10402" lon="7.36216">
        <ele>2189.414</ele>
        <time>2020-06-28T05:32:17Z</time>
      </trkpt>
      <trkpt lat="44.10402" lon="7.36216">
        <ele>2189.414</ele>
        <time>2020-06-28T05:32:32Z</time>
      </trkpt>
      <trkpt lat="44.10402" lon="7.36216">
        <ele>2189.414</ele>
        <time>2020-06-28T05:32:47Z</time>
      </trkpt>
      <trkpt lat="44.10402" lon="7.36216">
        <ele>2189.414</ele>
        <time>2020-06-28T05:33:03Z</time>
      </trkpt>
      <trkpt lat="44.10402" lon="7.36216">
        <ele>2189.414</ele>
        <time>2020-06-28T05:33:19Z</time>
      </trkpt>
      <trkpt lat="44.10402" lon="7.36216">
        <ele>2189.414</ele>
        <time>2020-06-28T05:33:34Z</time>
      </trkpt>
      <trkpt lat="44.10405" lon="7.3621">
        <ele>2188.77</ele>
        <time>2020-06-28T05:33:50Z</time>
      </trkpt>
      <trkpt lat="44.10406" lon="7.36188">
        <ele>2189.788</ele>
        <time>2020-06-28T05:34:06Z</time>
      </trkpt>
      <trkpt lat="44.10411" lon="7.3617">
        <ele>2187.054</ele>
        <time>2020-06-28T05:34:21Z</time>
      </trkpt>
      <trkpt lat="44.10409" lon="7.36145">
        <ele>2184.103</ele>
        <time>2020-06-28T05:34:37Z</time>
      </trkpt>
      <trkpt lat="44.10406" lon="7.36142">
        <ele>2181.616</ele>
        <time>2020-06-28T05:34:52Z</time>
      </trkpt>
      <trkpt lat="44.10403" lon="7.36142">
        <ele>2180.362</ele>
        <time>2020-06-28T05:35:07Z</time>
      </trkpt>
      <trkpt lat="44.104" lon="7.36143">
        <ele>2178.39</ele>
        <time>2020-06-28T05:35:23Z</time>
      </trkpt>
      <trkpt lat="44.10388" lon="7.36151">
        <ele>2176.505</ele>
        <time>2020-06-28T05:35:38Z</time>
      </trkpt>
      <trkpt lat="44.10371" lon="7.36165">
        <ele>2172.753</ele>
        <time>2020-06-28T05:35:53Z</time>
      </trkpt>
      <trkpt lat="44.10361" lon="7.36152">
        <ele>2167.309</ele>
        <time>2020-06-28T05:36:09Z</time>
      </trkpt>
      <trkpt lat="44.10353" lon="7.3616">
        <ele>2167.18</ele>
        <time>2020-06-28T05:36:25Z</time>
      </trkpt>
      <trkpt lat="44.10344" lon="7.36147">
        <ele>2166.442</ele>
        <time>2020-06-28T05:36:40Z</time>
      </trkpt>
      <trkpt lat="44.10331" lon="7.36158">
        <ele>2159.939</ele>
        <time>2020-06-28T05:36:56Z</time>
      </trkpt>
      <trkpt lat="44.10327" lon="7.36135">
        <ele>2156.579</ele>
        <time>2020-06-28T05:37:12Z</time>
      </trkpt>
      <trkpt lat="44.10321" lon="7.36143">
        <ele>2156.215</ele>
        <time>2020-06-28T05:37:28Z</time>
      </trkpt>
      <trkpt lat="44.10314" lon="7.36144">
        <ele>2156.015</ele>
        <time>2020-06-28T05:37:43Z</time>
      </trkpt>
      <trkpt lat="44.10312" lon="7.36128">
        <ele>2152.867</ele>
        <time>2020-06-28T05:37:58Z</time>
      </trkpt>
      <trkpt lat="44.10307" lon="7.36113">
        <ele>2150.721</ele>
        <time>2020-06-28T05:38:13Z</time>
      </trkpt>
      <trkpt lat="44.10298" lon="7.361">
        <ele>2147.779</ele>
        <time>2020-06-28T05:38:29Z</time>
      </trkpt>
      <trkpt lat="44.10282" lon="7.3609">
        <ele>2142.899</ele>
        <time>2020-06-28T05:38:44Z</time>
      </trkpt>
      <trkpt lat="44.10262" lon="7.36079">
        <ele>2136.993</ele>
        <time>2020-06-28T05:39:00Z</time>
      </trkpt>
      <trkpt lat="44.10249" lon="7.36068">
        <ele>2131.622</ele>
        <time>2020-06-28T05:39:15Z</time>
      </trkpt>
      <trkpt lat="44.10236" lon="7.36059">
        <ele>2130.69</ele>
        <time>2020-06-28T05:39:31Z</time>
      </trkpt>
      <trkpt lat="44.10223" lon="7.36045">
        <ele>2129.653</ele>
        <time>2020-06-28T05:39:46Z</time>
      </trkpt>
      <trkpt lat="44.10214" lon="7.36025">
        <ele>2133.228</ele>
        <time>2020-06-28T05:40:02Z</time>
      </trkpt>
      <trkpt lat="44.10209" lon="7.3602">
        <ele>2133.761</ele>
        <time>2020-06-28T05:40:18Z</time>
      </trkpt>
      <trkpt lat="44.10212" lon="7.36005">
        <ele>2133.512</ele>
        <time>2020-06-28T05:40:33Z</time>
      </trkpt>
      <trkpt lat="44.10211" lon="7.35992">
        <ele>2131.423</ele>
        <time>2020-06-28T05:40:48Z</time>
      </trkpt>
      <trkpt lat="44.10204" lon="7.35977">
        <ele>2127.853</ele>
        <time>2020-06-28T05:41:04Z</time>
      </trkpt>
      <trkpt lat="44.10197" lon="7.35958">
        <ele>2121.449</ele>
        <time>2020-06-28T05:41:20Z</time>
      </trkpt>
      <trkpt lat="44.10189" lon="7.35959">
        <ele>2121.578</ele>
        <time>2020-06-28T05:41:36Z</time>
      </trkpt>
      <trkpt lat="44.10177" lon="7.3597">
        <ele>2120.69</ele>
        <time>2020-06-28T05:41:51Z</time>
      </trkpt>
      <trkpt lat="44.10155" lon="7.35984">
        <ele>2116.354</ele>
        <time>2020-06-28T05:42:07Z</time>
      </trkpt>
      <trkpt lat="44.10146" lon="7.35984">
        <ele>2115.407</ele>
        <time>2020-06-28T05:42:23Z</time>
      </trkpt>
      <trkpt lat="44.10146" lon="7.35984">
        <ele>2115.407</ele>
        <time>2020-06-28T05:42:39Z</time>
      </trkpt>
      <trkpt lat="44.10146" lon="7.35984">
        <ele>2115.407</ele>
        <time>2020-06-28T05:42:55Z</time>
      </trkpt>
      <trkpt lat="44.10146" lon="7.35984">
        <ele>2115.407</ele>
        <time>2020-06-28T05:43:11Z</time>
      </trkpt>
      <trkpt lat="44.10146" lon="7.35984">
        <ele>2115.407</ele>
        <time>2020-06-28T05:43:27Z</time>
      </trkpt>
      <trkpt lat="44.10146" lon="7.35984">
        <ele>2115.407</ele>
        <time>2020-06-28T05:43:42Z</time>
      </trkpt>
      <trkpt lat="44.10157" lon="7.35975">
        <ele>2117.793</ele>
        <time>2020-06-28T05:43:58Z</time>
      </trkpt>
      <trkpt lat="44.10163" lon="7.35965">
        <ele>2120.749</ele>
        <time>2020-06-28T05:44:14Z</time>
      </trkpt>
      <trkpt lat="44.1017" lon="7.35952">
        <ele>2121.913</ele>
        <time>2020-06-28T05:44:30Z</time>
      </trkpt>
      <trkpt lat="44.10172" lon="7.35945">
        <ele>2124.585</ele>
        <time>2020-06-28T05:44:46Z</time>
      </trkpt>
      <trkpt lat="44.10176" lon="7.35938">
        <ele>2128.737</ele>
        <time>2020-06-28T05:45:01Z</time>
      </trkpt>
      <trkpt lat="44.10182" lon="7.35933">
        <ele>2130.359</ele>
        <time>2020-06-28T05:45:16Z</time>
      </trkpt>
      <trkpt lat="44.10187" lon="7.35931">
        <ele>2132.466</ele>
        <time>2020-06-28T05:45:31Z</time>
      </trkpt>
      <trkpt lat="44.10201" lon="7.35918">
        <ele>2131.41</ele>
        <time>2020-06-28T05:45:47Z</time>
      </trkpt>
      <trkpt lat="44.10203" lon="7.35919">
        <ele>2133.399</ele>
        <time>2020-06-28T05:46:02Z</time>
      </trkpt>
      <trkpt lat="44.10212" lon="7.35917">
        <ele>2133.975</ele>
        <time>2020-06-28T05:46:17Z</time>
      </trkpt>
      <trkpt lat="44.10223" lon="7.35913">
        <ele>2130.33</ele>
        <time>2020-06-28T05:46:32Z</time>
      </trkpt>
      <trkpt lat="44.10236" lon="7.35909">
        <ele>2133.75</ele>
        <time>2020-06-28T05:46:48Z</time>
      </trkpt>
      <trkpt lat="44.10239" lon="7.35911">
        <ele>2136.474</ele>
        <time>2020-06-28T05:47:03Z</time>
      </trkpt>
      <trkpt lat="44.10244" lon="7.35913">
        <ele>2137.404</ele>
        <time>2020-06-28T05:47:19Z</time>
      </trkpt>
      <trkpt lat="44.10249" lon="7.35915">
        <ele>2139.364</ele>
        <time>2020-06-28T05:47:34Z</time>
      </trkpt>
      <trkpt lat="44.10249" lon="7.35915">
        <ele>2139.364</ele>
        <time>2020-06-28T05:47:50Z</time>
      </trkpt>
      <trkpt lat="44.1025" lon="7.35918">
        <ele>2142.937</ele>
        <time>2020-06-28T05:48:06Z</time>
      </trkpt>
      <trkpt lat="44.10261" lon="7.35915">
        <ele>2149.732</ele>
        <time>2020-06-28T05:48:21Z</time>
      </trkpt>
      <trkpt lat="44.10272" lon="7.35918">
        <ele>2150.064</ele>
        <time>2020-06-28T05:48:37Z</time>
      </trkpt>
      <trkpt lat="44.10278" lon="7.35917">
        <ele>2153.137</ele>
        <time>2020-06-28T05:48:52Z</time>
      </trkpt>
      <trkpt lat="44.10284" lon="7.35918">
        <ele>2154.335</ele>
        <time>2020-06-28T05:49:08Z</time>
      </trkpt>
      <trkpt lat="44.1029" lon="7.35915">
        <ele>2155.539</ele>
        <time>2020-06-28T05:49:23Z</time>
      </trkpt>
      <trkpt lat="44.1029" lon="7.35914">
        <ele>2157.312</ele>
        <time>2020-06-28T05:49:38Z</time>
      </trkpt>
      <trkpt lat="44.1029" lon="7.35914">
        <ele>2157.312</ele>
        <time>2020-06-28T05:49:54Z</time>
      </trkpt>
      <trkpt lat="44.1029" lon="7.35914">
        <ele>2157.312</ele>
        <time>2020-06-28T05:50:09Z</time>
      </trkpt>
      <trkpt lat="44.1029" lon="7.35914">
        <ele>2157.312</ele>
        <time>2020-06-28T05:50:24Z</time>
      </trkpt>
      <trkpt lat="44.10294" lon="7.35912">
        <ele>2158.031</ele>
        <time>2020-06-28T05:50:40Z</time>
      </trkpt>
      <trkpt lat="44.10301" lon="7.3591">
        <ele>2159.097</ele>
        <time>2020-06-28T05:50:55Z</time>
      </trkpt>
      <trkpt lat="44.1031" lon="7.35897">
        <ele>2161.995</ele>
        <time>2020-06-28T05:51:10Z</time>
      </trkpt>
      <trkpt lat="44.10313" lon="7.35895">
        <ele>2167.67</ele>
        <time>2020-06-28T05:51:25Z</time>
      </trkpt>
      <trkpt lat="44.10322" lon="7.35893">
        <ele>2171.395</ele>
        <time>2020-06-28T05:51:41Z</time>
      </trkpt>
      <trkpt lat="44.10325" lon="7.35891">
        <ele>2172.748</ele>
        <time>2020-06-28T05:51:56Z</time>
      </trkpt>
      <trkpt lat="44.1033" lon="7.35896">
        <ele>2172.885</ele>
        <time>2020-06-28T05:52:12Z</time>
      </trkpt>
      <trkpt lat="44.10333" lon="7.35896">
        <ele>2174.086</ele>
        <time>2020-06-28T05:52:27Z</time>
      </trkpt>
      <trkpt lat="44.10333" lon="7.35892">
        <ele>2176.183</ele>
        <time>2020-06-28T05:52:43Z</time>
      </trkpt>
      <trkpt lat="44.10335" lon="7.35892">
        <ele>2178.406</ele>
        <time>2020-06-28T05:52:58Z</time>
      </trkpt>
      <trkpt lat="44.10333" lon="7.35889">
        <ele>2180.917</ele>
        <time>2020-06-28T05:53:13Z</time>
      </trkpt>
      <trkpt lat="44.10342" lon="7.3588">
        <ele>2183.038</ele>
        <time>2020-06-28T05:53:29Z</time>
      </trkpt>
      <trkpt lat="44.10349" lon="7.35869">
        <ele>2188.586</ele>
        <time>2020-06-28T05:53:45Z</time>
      </trkpt>
      <trkpt lat="44.10352" lon="7.35861">
        <ele>2188.328</ele>
        <time>2020-06-28T05:54:00Z</time>
      </trkpt>
      <trkpt lat="44.10348" lon="7.35861">
        <ele>2189.287</ele>
        <time>2020-06-28T05:54:16Z</time>
      </trkpt>
      <trkpt lat="44.10344" lon="7.35861">
        <ele>2191.61</ele>
        <time>2020-06-28T05:54:32Z</time>
      </trkpt>
      <trkpt lat="44.10341" lon="7.35861">
        <ele>2191.41</ele>
        <time>2020-06-28T05:54:47Z</time>
      </trkpt>
      <trkpt lat="44.10339" lon="7.35855">
        <ele>2192.916</ele>
        <time>2020-06-28T05:55:03Z</time>
      </trkpt>
      <trkpt lat="44.1034" lon="7.35854">
        <ele>2193.103</ele>
        <time>2020-06-28T05:55:18Z</time>
      </trkpt>
      <trkpt lat="44.1034" lon="7.35854">
        <ele>2192.606</ele>
        <time>2020-06-28T05:55:33Z</time>
      </trkpt>
      <trkpt lat="44.1034" lon="7.35854">
        <ele>2192.606</ele>
        <time>2020-06-28T05:55:48Z</time>
      </trkpt>
      <trkpt lat="44.1034" lon="7.35856">
        <ele>2192.697</ele>
        <time>2020-06-28T05:56:03Z</time>
      </trkpt>
      <trkpt lat="44.1034" lon="7.35856">
        <ele>2192.697</ele>
        <time>2020-06-28T05:56:19Z</time>
      </trkpt>
      <trkpt lat="44.1034" lon="7.35856">
        <ele>2192.697</ele>
        <time>2020-06-28T05:56:35Z</time>
      </trkpt>
      <trkpt lat="44.1034" lon="7.35856">
        <ele>2192.697</ele>
        <time>2020-06-28T05:56:51Z</time>
      </trkpt>
      <trkpt lat="44.1034" lon="7.35856">
        <ele>2192.697</ele>
        <time>2020-06-28T05:57:07Z</time>
      </trkpt>
      <trkpt lat="44.1034" lon="7.35856">
        <ele>2192.697</ele>
        <time>2020-06-28T05:57:23Z</time>
      </trkpt>
      <trkpt lat="44.10339" lon="7.35858">
        <ele>2196.072</ele>
        <time>2020-06-28T05:57:38Z</time>
      </trkpt>
      <trkpt lat="44.1034" lon="7.35857">
        <ele>2195.623</ele>
        <time>2020-06-28T05:57:54Z</time>
      </trkpt>
      <trkpt lat="44.1034" lon="7.35857">
        <ele>2195.623</ele>
        <time>2020-06-28T05:58:09Z</time>
      </trkpt>
      <trkpt lat="44.1034" lon="7.35857">
        <ele>2195.623</ele>
        <time>2020-06-28T05:58:24Z</time>
      </trkpt>
      <trkpt lat="44.1034" lon="7.35857">
        <ele>2195.623</ele>
        <time>2020-06-28T05:58:40Z</time>
      </trkpt>
      <trkpt lat="44.1034" lon="7.35857">
        <ele>2195.623</ele>
        <time>2020-06-28T05:58:56Z</time>
      </trkpt>
      <trkpt lat="44.10344" lon="7.35856">
        <ele>2195.286</ele>
        <time>2020-06-28T05:59:11Z</time>
      </trkpt>
      <trkpt lat="44.10349" lon="7.35846">
        <ele>2190.653</ele>
        <time>2020-06-28T05:59:27Z</time>
      </trkpt>
      <trkpt lat="44.10348" lon="7.35833">
        <ele>2190.323</ele>
        <time>2020-06-28T05:59:42Z</time>
      </trkpt>
      <trkpt lat="44.10346" lon="7.35822">
        <ele>2191.543</ele>
        <time>2020-06-28T05:59:58Z</time>
      </trkpt>
      <trkpt lat="44.10343" lon="7.35816">
        <ele>2194.476</ele>
        <time>2020-06-28T06:00:14Z</time>
      </trkpt>
      <trkpt lat="44.1034" lon="7.35813">
        <ele>2198.638</ele>
        <time>2020-06-28T06:00:29Z</time>
      </trkpt>
      <trkpt lat="44.10335" lon="7.35808">
        <ele>2201.584</ele>
        <time>2020-06-28T06:00:44Z</time>
      </trkpt>
      <trkpt lat="44.10333" lon="7.35804">
        <ele>2201.577</ele>
        <time>2020-06-28T06:01:00Z</time>
      </trkpt>
      <trkpt lat="44.10338" lon="7.35795">
        <ele>2203.128</ele>
        <time>2020-06-28T06:01:16Z</time>
      </trkpt>
      <trkpt lat="44.10344" lon="7.35784">
        <ele>2204.659</ele>
        <time>2020-06-28T06:01:32Z</time>
      </trkpt>
      <trkpt lat="44.10349" lon="7.35776">
        <ele>2206.052</ele>
        <time>2020-06-28T06:01:48Z</time>
      </trkpt>
      <trkpt lat="44.10349" lon="7.35776">
        <ele>2206.052</ele>
        <time>2020-06-28T06:02:03Z</time>
      </trkpt>
      <trkpt lat="44.10358" lon="7.35761">
        <ele>2209.443</ele>
        <time>2020-06-28T06:02:19Z</time>
      </trkpt>
      <trkpt lat="44.10365" lon="7.35754">
        <ele>2211.735</ele>
        <time>2020-06-28T06:02:35Z</time>
      </trkpt>
      <trkpt lat="44.10372" lon="7.35746">
        <ele>2213.607</ele>
        <time>2020-06-28T06:02:51Z</time>
      </trkpt>
      <trkpt lat="44.10384" lon="7.35742">
        <ele>2218.926</ele>
        <time>2020-06-28T06:03:07Z</time>
      </trkpt>
      <trkpt lat="44.10395" lon="7.35735">
        <ele>2220.771</ele>
        <time>2020-06-28T06:03:23Z</time>
      </trkpt>
      <trkpt lat="44.104" lon="7.35732">
        <ele>2223.144</ele>
        <time>2020-06-28T06:03:39Z</time>
      </trkpt>
      <trkpt lat="44.10399" lon="7.35733">
        <ele>2223.93</ele>
        <time>2020-06-28T06:03:55Z</time>
      </trkpt>
      <trkpt lat="44.10399" lon="7.35733">
        <ele>2225.461</ele>
        <time>2020-06-28T06:04:10Z</time>
      </trkpt>
      <trkpt lat="44.10399" lon="7.35732">
        <ele>2225.548</ele>
        <time>2020-06-28T06:04:25Z</time>
      </trkpt>
      <trkpt lat="44.10405" lon="7.35725">
        <ele>2227.774</ele>
        <time>2020-06-28T06:04:41Z</time>
      </trkpt>
      <trkpt lat="44.10411" lon="7.35714">
        <ele>2230.133</ele>
        <time>2020-06-28T06:04:57Z</time>
      </trkpt>
      <trkpt lat="44.10417" lon="7.35705">
        <ele>2230.782</ele>
        <time>2020-06-28T06:05:12Z</time>
      </trkpt>
      <trkpt lat="44.10422" lon="7.35695">
        <ele>2236.083</ele>
        <time>2020-06-28T06:05:28Z</time>
      </trkpt>
      <trkpt lat="44.10426" lon="7.35689">
        <ele>2238.576</ele>
        <time>2020-06-28T06:05:43Z</time>
      </trkpt>
      <trkpt lat="44.10422" lon="7.35687">
        <ele>2241.179</ele>
        <time>2020-06-28T06:05:59Z</time>
      </trkpt>
      <trkpt lat="44.10426" lon="7.3568">
        <ele>2246.166</ele>
        <time>2020-06-28T06:06:15Z</time>
      </trkpt>
      <trkpt lat="44.10423" lon="7.35681">
        <ele>2247.101</ele>
        <time>2020-06-28T06:06:30Z</time>
      </trkpt>
      <trkpt lat="44.10413" lon="7.35681">
        <ele>2249.805</ele>
        <time>2020-06-28T06:06:45Z</time>
      </trkpt>
      <trkpt lat="44.10402" lon="7.35684">
        <ele>2251.017</ele>
        <time>2020-06-28T06:07:01Z</time>
      </trkpt>
      <trkpt lat="44.10393" lon="7.35683">
        <ele>2254.06</ele>
        <time>2020-06-28T06:07:17Z</time>
      </trkpt>
      <trkpt lat="44.10395" lon="7.35679">
        <ele>2256.883</ele>
        <time>2020-06-28T06:07:32Z</time>
      </trkpt>
      <trkpt lat="44.10399" lon="7.35673">
        <ele>2257.888</ele>
        <time>2020-06-28T06:07:48Z</time>
      </trkpt>
      <trkpt lat="44.1041" lon="7.35664">
        <ele>2257.843</ele>
        <time>2020-06-28T06:08:03Z</time>
      </trkpt>
      <trkpt lat="44.10413" lon="7.35661">
        <ele>2258.504</ele>
        <time>2020-06-28T06:08:19Z</time>
      </trkpt>
      <trkpt lat="44.10422" lon="7.35651">
        <ele>2258.553</ele>
        <time>2020-06-28T06:08:35Z</time>
      </trkpt>
      <trkpt lat="44.10432" lon="7.35638">
        <ele>2261.076</ele>
        <time>2020-06-28T06:08:50Z</time>
      </trkpt>
      <trkpt lat="44.10441" lon="7.3563">
        <ele>2265.272</ele>
        <time>2020-06-28T06:09:06Z</time>
      </trkpt>
      <trkpt lat="44.10451" lon="7.35621">
        <ele>2268.125</ele>
        <time>2020-06-28T06:09:21Z</time>
      </trkpt>
      <trkpt lat="44.10456" lon="7.35617">
        <ele>2269.385</ele>
        <time>2020-06-28T06:09:37Z</time>
      </trkpt>
      <trkpt lat="44.10467" lon="7.35608">
        <ele>2274.317</ele>
        <time>2020-06-28T06:09:53Z</time>
      </trkpt>
      <trkpt lat="44.10474" lon="7.35605">
        <ele>2274.669</ele>
        <time>2020-06-28T06:10:09Z</time>
      </trkpt>
      <trkpt lat="44.10479" lon="7.35602">
        <ele>2274.578</ele>
        <time>2020-06-28T06:10:24Z</time>
      </trkpt>
      <trkpt lat="44.10481" lon="7.35601">
        <ele>2274.05</ele>
        <time>2020-06-28T06:10:39Z</time>
      </trkpt>
      <trkpt lat="44.10492" lon="7.35595">
        <ele>2277.07</ele>
        <time>2020-06-28T06:10:55Z</time>
      </trkpt>
      <trkpt lat="44.105" lon="7.3559">
        <ele>2277.638</ele>
        <time>2020-06-28T06:11:11Z</time>
      </trkpt>
      <trkpt lat="44.105" lon="7.3559">
        <ele>2277.638</ele>
        <time>2020-06-28T06:11:27Z</time>
      </trkpt>
      <trkpt lat="44.105" lon="7.3559">
        <ele>2277.638</ele>
        <time>2020-06-28T06:11:42Z</time>
      </trkpt>
      <trkpt lat="44.105" lon="7.35587">
        <ele>2278.065</ele>
        <time>2020-06-28T06:11:58Z</time>
      </trkpt>
      <trkpt lat="44.105" lon="7.35587">
        <ele>2278.065</ele>
        <time>2020-06-28T06:12:14Z</time>
      </trkpt>
      <trkpt lat="44.10502" lon="7.35581">
        <ele>2279.414</ele>
        <time>2020-06-28T06:12:30Z</time>
      </trkpt>
      <trkpt lat="44.10518" lon="7.35565">
        <ele>2281.152</ele>
        <time>2020-06-28T06:12:46Z</time>
      </trkpt>
      <trkpt lat="44.10526" lon="7.35555">
        <ele>2283.414</ele>
        <time>2020-06-28T06:13:02Z</time>
      </trkpt>
      <trkpt lat="44.10531" lon="7.35551">
        <ele>2282.592</ele>
        <time>2020-06-28T06:13:18Z</time>
      </trkpt>
      <trkpt lat="44.10531" lon="7.35551">
        <ele>2282.592</ele>
        <time>2020-06-28T06:13:33Z</time>
      </trkpt>
      <trkpt lat="44.10531" lon="7.35551">
        <ele>2282.592</ele>
        <time>2020-06-28T06:13:49Z</time>
      </trkpt>
      <trkpt lat="44.10548" lon="7.35531">
        <ele>2283.587</ele>
        <time>2020-06-28T06:14:05Z</time>
      </trkpt>
      <trkpt lat="44.10565" lon="7.35522">
        <ele>2284.753</ele>
        <time>2020-06-28T06:14:21Z</time>
      </trkpt>
      <trkpt lat="44.10568" lon="7.35522">
        <ele>2284.257</ele>
        <time>2020-06-28T06:14:37Z</time>
      </trkpt>
      <trkpt lat="44.10585" lon="7.35523">
        <ele>2287.099</ele>
        <time>2020-06-28T06:14:53Z</time>
      </trkpt>
      <trkpt lat="44.10599" lon="7.35521">
        <ele>2289.769</ele>
        <time>2020-06-28T06:15:08Z</time>
      </trkpt>
      <trkpt lat="44.10606" lon="7.35523">
        <ele>2288.876</ele>
        <time>2020-06-28T06:15:24Z</time>
      </trkpt>
      <trkpt lat="44.10623" lon="7.35519">
        <ele>2287.063</ele>
        <time>2020-06-28T06:15:40Z</time>
      </trkpt>
      <trkpt lat="44.10638" lon="7.3552">
        <ele>2285.443</ele>
        <time>2020-06-28T06:15:55Z</time>
      </trkpt>
      <trkpt lat="44.10653" lon="7.35517">
        <ele>2284.796</ele>
        <time>2020-06-28T06:16:11Z</time>
      </trkpt>
      <trkpt lat="44.10666" lon="7.35512">
        <ele>2288.546</ele>
        <time>2020-06-28T06:16:26Z</time>
      </trkpt>
      <trkpt lat="44.10674" lon="7.35516">
        <ele>2289.661</ele>
        <time>2020-06-28T06:16:42Z</time>
      </trkpt>
      <trkpt lat="44.1069" lon="7.35513">
        <ele>2292.113</ele>
        <time>2020-06-28T06:16:57Z</time>
      </trkpt>
      <trkpt lat="44.10708" lon="7.35512">
        <ele>2288.966</ele>
        <time>2020-06-28T06:17:13Z</time>
      </trkpt>
      <trkpt lat="44.10723" lon="7.35511">
        <ele>2287.816</ele>
        <time>2020-06-28T06:17:28Z</time>
      </trkpt>
      <trkpt lat="44.10736" lon="7.35511">
        <ele>2287.384</ele>
        <time>2020-06-28T06:17:44Z</time>
      </trkpt>
      <trkpt lat="44.1074" lon="7.35511">
        <ele>2287.356</ele>
        <time>2020-06-28T06:17:59Z</time>
      </trkpt>
      <trkpt lat="44.10757" lon="7.35506">
        <ele>2290.955</ele>
        <time>2020-06-28T06:18:15Z</time>
      </trkpt>
      <trkpt lat="44.1077" lon="7.35507">
        <ele>2292.834</ele>
        <time>2020-06-28T06:18:31Z</time>
      </trkpt>
      <trkpt lat="44.10775" lon="7.35511">
        <ele>2294.552</ele>
        <time>2020-06-28T06:18:47Z</time>
      </trkpt>
      <trkpt lat="44.10776" lon="7.35513">
        <ele>2294.051</ele>
        <time>2020-06-28T06:19:03Z</time>
      </trkpt>
      <trkpt lat="44.10783" lon="7.3552">
        <ele>2291.399</ele>
        <time>2020-06-28T06:19:19Z</time>
      </trkpt>
      <trkpt lat="44.10782" lon="7.35519">
        <ele>2291.11</ele>
        <time>2020-06-28T06:19:35Z</time>
      </trkpt>
      <trkpt lat="44.10781" lon="7.35519">
        <ele>2293.307</ele>
        <time>2020-06-28T06:19:50Z</time>
      </trkpt>
      <trkpt lat="44.10786" lon="7.35519">
        <ele>2293.617</ele>
        <time>2020-06-28T06:20:05Z</time>
      </trkpt>
      <trkpt lat="44.10792" lon="7.35518">
        <ele>2292.349</ele>
        <time>2020-06-28T06:20:20Z</time>
      </trkpt>
      <trkpt lat="44.10795" lon="7.35509">
        <ele>2291.091</ele>
        <time>2020-06-28T06:20:35Z</time>
      </trkpt>
      <trkpt lat="44.10802" lon="7.35504">
        <ele>2294.341</ele>
        <time>2020-06-28T06:20:51Z</time>
      </trkpt>
      <trkpt lat="44.10803" lon="7.35502">
        <ele>2293.237</ele>
        <time>2020-06-28T06:21:06Z</time>
      </trkpt>
      <trkpt lat="44.10805" lon="7.35509">
        <ele>2296.117</ele>
        <time>2020-06-28T06:21:22Z</time>
      </trkpt>
      <trkpt lat="44.10806" lon="7.3551">
        <ele>2296.258</ele>
        <time>2020-06-28T06:21:38Z</time>
      </trkpt>
      <trkpt lat="44.10812" lon="7.35507">
        <ele>2297.636</ele>
        <time>2020-06-28T06:21:54Z</time>
      </trkpt>
      <trkpt lat="44.10817" lon="7.35503">
        <ele>2294.669</ele>
        <time>2020-06-28T06:22:10Z</time>
      </trkpt>
      <trkpt lat="44.10818" lon="7.35504">
        <ele>2294.414</ele>
        <time>2020-06-28T06:22:26Z</time>
      </trkpt>
      <trkpt lat="44.10818" lon="7.35504">
        <ele>2294.594</ele>
        <time>2020-06-28T06:22:41Z</time>
      </trkpt>
      <trkpt lat="44.10825" lon="7.35501">
        <ele>2298.463</ele>
        <time>2020-06-28T06:22:57Z</time>
      </trkpt>
      <trkpt lat="44.10833" lon="7.35505">
        <ele>2301.959</ele>
        <time>2020-06-28T06:23:13Z</time>
      </trkpt>
      <trkpt lat="44.10831" lon="7.35497">
        <ele>2302.415</ele>
        <time>2020-06-28T06:23:29Z</time>
      </trkpt>
      <trkpt lat="44.10837" lon="7.35494">
        <ele>2306.22</ele>
        <time>2020-06-28T06:23:45Z</time>
      </trkpt>
      <trkpt lat="44.10838" lon="7.3549">
        <ele>2307.084</ele>
        <time>2020-06-28T06:24:01Z</time>
      </trkpt>
      <trkpt lat="44.10846" lon="7.35484">
        <ele>2304.577</ele>
        <time>2020-06-28T06:24:17Z</time>
      </trkpt>
      <trkpt lat="44.10851" lon="7.35476">
        <ele>2309.705</ele>
        <time>2020-06-28T06:24:32Z</time>
      </trkpt>
      <trkpt lat="44.10854" lon="7.35474">
        <ele>2312.9</ele>
        <time>2020-06-28T06:24:47Z</time>
      </trkpt>
      <trkpt lat="44.10858" lon="7.3548">
        <ele>2317.773</ele>
        <time>2020-06-28T06:25:03Z</time>
      </trkpt>
      <trkpt lat="44.10864" lon="7.35493">
        <ele>2323.505</ele>
        <time>2020-06-28T06:25:19Z</time>
      </trkpt>
      <trkpt lat="44.10867" lon="7.35499">
        <ele>2326.899</ele>
        <time>2020-06-28T06:25:34Z</time>
      </trkpt>
      <trkpt lat="44.10868" lon="7.35497">
        <ele>2333.399</ele>
        <time>2020-06-28T06:25:50Z</time>
      </trkpt>
      <trkpt lat="44.10872" lon="7.355">
        <ele>2341.885</ele>
        <time>2020-06-28T06:26:05Z</time>
      </trkpt>
      <trkpt lat="44.1087" lon="7.35492">
        <ele>2344.589</ele>
        <time>2020-06-28T06:26:20Z</time>
      </trkpt>
      <trkpt lat="44.10871" lon="7.35486">
        <ele>2344.078</ele>
        <time>2020-06-28T06:26:36Z</time>
      </trkpt>
      <trkpt lat="44.10873" lon="7.35483">
        <ele>2345.497</ele>
        <time>2020-06-28T06:26:52Z</time>
      </trkpt>
      <trkpt lat="44.10878" lon="7.35483">
        <ele>2348.892</ele>
        <time>2020-06-28T06:27:08Z</time>
      </trkpt>
      <trkpt lat="44.10882" lon="7.35482">
        <ele>2352.472</ele>
        <time>2020-06-28T06:27:24Z</time>
      </trkpt>
      <trkpt lat="44.10888" lon="7.35478">
        <ele>2354.002</ele>
        <time>2020-06-28T06:27:40Z</time>
      </trkpt>
      <trkpt lat="44.10899" lon="7.35471">
        <ele>2358.221</ele>
        <time>2020-06-28T06:27:56Z</time>
      </trkpt>
      <trkpt lat="44.10908" lon="7.35467">
        <ele>2363.497</ele>
        <time>2020-06-28T06:28:11Z</time>
      </trkpt>
      <trkpt lat="44.10911" lon="7.35464">
        <ele>2364.84</ele>
        <time>2020-06-28T06:28:26Z</time>
      </trkpt>
      <trkpt lat="44.10915" lon="7.35458">
        <ele>2364.408</ele>
        <time>2020-06-28T06:28:42Z</time>
      </trkpt>
      <trkpt lat="44.10916" lon="7.35456">
        <ele>2366.353</ele>
        <time>2020-06-28T06:28:58Z</time>
      </trkpt>
      <trkpt lat="44.10916" lon="7.35456">
        <ele>2366.353</ele>
        <time>2020-06-28T06:29:13Z</time>
      </trkpt>
      <trkpt lat="44.10922" lon="7.35451">
        <ele>2368.054</ele>
        <time>2020-06-28T06:29:29Z</time>
      </trkpt>
      <trkpt lat="44.1093" lon="7.35438">
        <ele>2371.686</ele>
        <time>2020-06-28T06:29:45Z</time>
      </trkpt>
      <trkpt lat="44.10931" lon="7.35437">
        <ele>2371.819</ele>
        <time>2020-06-28T06:30:01Z</time>
      </trkpt>
      <trkpt lat="44.10931" lon="7.35437">
        <ele>2371.819</ele>
        <time>2020-06-28T06:30:16Z</time>
      </trkpt>
      <trkpt lat="44.10931" lon="7.35437">
        <ele>2371.819</ele>
        <time>2020-06-28T06:30:31Z</time>
      </trkpt>
      <trkpt lat="44.10943" lon="7.35428">
        <ele>2373.277</ele>
        <time>2020-06-28T06:30:47Z</time>
      </trkpt>
      <trkpt lat="44.10947" lon="7.35426">
        <ele>2378.169</ele>
        <time>2020-06-28T06:31:03Z</time>
      </trkpt>
      <trkpt lat="44.10947" lon="7.35425">
        <ele>2378.85</ele>
        <time>2020-06-28T06:31:19Z</time>
      </trkpt>
      <trkpt lat="44.10954" lon="7.35424">
        <ele>2382.683</ele>
        <time>2020-06-28T06:31:35Z</time>
      </trkpt>
      <trkpt lat="44.10962" lon="7.35422">
        <ele>2384.721</ele>
        <time>2020-06-28T06:31:51Z</time>
      </trkpt>
      <trkpt lat="44.10969" lon="7.35419">
        <ele>2385.862</ele>
        <time>2020-06-28T06:32:06Z</time>
      </trkpt>
      <trkpt lat="44.10972" lon="7.35414">
        <ele>2390.965</ele>
        <time>2020-06-28T06:32:22Z</time>
      </trkpt>
      <trkpt lat="44.10979" lon="7.3541">
        <ele>2391.718</ele>
        <time>2020-06-28T06:32:38Z</time>
      </trkpt>
      <trkpt lat="44.10989" lon="7.35417">
        <ele>2397.797</ele>
        <time>2020-06-28T06:32:54Z</time>
      </trkpt>
      <trkpt lat="44.10999" lon="7.35413">
        <ele>2399.595</ele>
        <time>2020-06-28T06:33:09Z</time>
      </trkpt>
      <trkpt lat="44.11007" lon="7.35413">
        <ele>2407.519</ele>
        <time>2020-06-28T06:33:25Z</time>
      </trkpt>
      <trkpt lat="44.11012" lon="7.35409">
        <ele>2407.546</ele>
        <time>2020-06-28T06:33:40Z</time>
      </trkpt>
      <trkpt lat="44.11021" lon="7.35406">
        <ele>2410.777</ele>
        <time>2020-06-28T06:33:56Z</time>
      </trkpt>
      <trkpt lat="44.11024" lon="7.35408">
        <ele>2411.279</ele>
        <time>2020-06-28T06:34:11Z</time>
      </trkpt>
      <trkpt lat="44.11031" lon="7.35407">
        <ele>2412.425</ele>
        <time>2020-06-28T06:34:27Z</time>
      </trkpt>
      <trkpt lat="44.11047" lon="7.35406">
        <ele>2415.176</ele>
        <time>2020-06-28T06:34:43Z</time>
      </trkpt>
      <trkpt lat="44.11061" lon="7.354">
        <ele>2416.603</ele>
        <time>2020-06-28T06:34:59Z</time>
      </trkpt>
      <trkpt lat="44.11067" lon="7.35401">
        <ele>2417.169</ele>
        <time>2020-06-28T06:35:14Z</time>
      </trkpt>
      <trkpt lat="44.11067" lon="7.354">
        <ele>2417.833</ele>
        <time>2020-06-28T06:35:29Z</time>
      </trkpt>
      <trkpt lat="44.11069" lon="7.354">
        <ele>2418.434</ele>
        <time>2020-06-28T06:35:45Z</time>
      </trkpt>
      <trkpt lat="44.11069" lon="7.354">
        <ele>2418.434</ele>
        <time>2020-06-28T06:36:01Z</time>
      </trkpt>
      <trkpt lat="44.11069" lon="7.354">
        <ele>2418.434</ele>
        <time>2020-06-28T06:36:17Z</time>
      </trkpt>
      <trkpt lat="44.11069" lon="7.354">
        <ele>2418.434</ele>
        <time>2020-06-28T06:36:32Z</time>
      </trkpt>
      <trkpt lat="44.11069" lon="7.354">
        <ele>2418.434</ele>
        <time>2020-06-28T06:36:48Z</time>
      </trkpt>
      <trkpt lat="44.11069" lon="7.354">
        <ele>2418.434</ele>
        <time>2020-06-28T06:37:03Z</time>
      </trkpt>
      <trkpt lat="44.11069" lon="7.354">
        <ele>2418.434</ele>
        <time>2020-06-28T06:37:19Z</time>
      </trkpt>
      <trkpt lat="44.11071" lon="7.35402">
        <ele>2418.759</ele>
        <time>2020-06-28T06:37:35Z</time>
      </trkpt>
      <trkpt lat="44.11085" lon="7.35398">
        <ele>2419.571</ele>
        <time>2020-06-28T06:37:51Z</time>
      </trkpt>
      <trkpt lat="44.11099" lon="7.35401">
        <ele>2421.266</ele>
        <time>2020-06-28T06:38:07Z</time>
      </trkpt>
      <trkpt lat="44.11108" lon="7.35405">
        <ele>2425.029</ele>
        <time>2020-06-28T06:38:23Z</time>
      </trkpt>
      <trkpt lat="44.11112" lon="7.35404">
        <ele>2427.125</ele>
        <time>2020-06-28T06:38:38Z</time>
      </trkpt>
      <trkpt lat="44.11123" lon="7.35405">
        <ele>2427.513</ele>
        <time>2020-06-28T06:38:54Z</time>
      </trkpt>
      <trkpt lat="44.11132" lon="7.35402">
        <ele>2430.055</ele>
        <time>2020-06-28T06:39:10Z</time>
      </trkpt>
      <trkpt lat="44.11141" lon="7.35391">
        <ele>2430.895</ele>
        <time>2020-06-28T06:39:26Z</time>
      </trkpt>
      <trkpt lat="44.11154" lon="7.35393">
        <ele>2436.271</ele>
        <time>2020-06-28T06:39:42Z</time>
      </trkpt>
      <trkpt lat="44.11161" lon="7.35394">
        <ele>2436.437</ele>
        <time>2020-06-28T06:39:58Z</time>
      </trkpt>
      <trkpt lat="44.11165" lon="7.35387">
        <ele>2439.601</ele>
        <time>2020-06-28T06:40:13Z</time>
      </trkpt>
      <trkpt lat="44.11171" lon="7.35386">
        <ele>2441.155</ele>
        <time>2020-06-28T06:40:28Z</time>
      </trkpt>
      <trkpt lat="44.1118" lon="7.35386">
        <ele>2445.229</ele>
        <time>2020-06-28T06:40:44Z</time>
      </trkpt>
      <trkpt lat="44.11182" lon="7.35387">
        <ele>2447.742</ele>
        <time>2020-06-28T06:40:59Z</time>
      </trkpt>
      <trkpt lat="44.11186" lon="7.35381">
        <ele>2445.752</ele>
        <time>2020-06-28T06:41:15Z</time>
      </trkpt>
      <trkpt lat="44.11189" lon="7.35377">
        <ele>2444.544</ele>
        <time>2020-06-28T06:41:31Z</time>
      </trkpt>
      <trkpt lat="44.11189" lon="7.35367">
        <ele>2446.392</ele>
        <time>2020-06-28T06:41:47Z</time>
      </trkpt>
      <trkpt lat="44.11189" lon="7.35351">
        <ele>2449.683</ele>
        <time>2020-06-28T06:42:02Z</time>
      </trkpt>
      <trkpt lat="44.11197" lon="7.35355">
        <ele>2452.24</ele>
        <time>2020-06-28T06:42:18Z</time>
      </trkpt>
      <trkpt lat="44.11204" lon="7.35361">
        <ele>2453.037</ele>
        <time>2020-06-28T06:42:34Z</time>
      </trkpt>
      <trkpt lat="44.11202" lon="7.3535">
        <ele>2457.435</ele>
        <time>2020-06-28T06:42:50Z</time>
      </trkpt>
      <trkpt lat="44.11204" lon="7.35341">
        <ele>2459.314</ele>
        <time>2020-06-28T06:43:06Z</time>
      </trkpt>
      <trkpt lat="44.11207" lon="7.35341">
        <ele>2460.879</ele>
        <time>2020-06-28T06:43:21Z</time>
      </trkpt>
      <trkpt lat="44.1122" lon="7.35358">
        <ele>2463.245</ele>
        <time>2020-06-28T06:43:37Z</time>
      </trkpt>
      <trkpt lat="44.11227" lon="7.3537">
        <ele>2465.2</ele>
        <time>2020-06-28T06:43:52Z</time>
      </trkpt>
      <trkpt lat="44.11222" lon="7.35359">
        <ele>2467.561</ele>
        <time>2020-06-28T06:44:08Z</time>
      </trkpt>
      <trkpt lat="44.11217" lon="7.35346">
        <ele>2469.721</ele>
        <time>2020-06-28T06:44:23Z</time>
      </trkpt>
      <trkpt lat="44.11222" lon="7.35342">
        <ele>2469.798</ele>
        <time>2020-06-28T06:44:38Z</time>
      </trkpt>
      <trkpt lat="44.11222" lon="7.3534">
        <ele>2470.521</ele>
        <time>2020-06-28T06:44:54Z</time>
      </trkpt>
      <trkpt lat="44.11224" lon="7.35327">
        <ele>2472.188</ele>
        <time>2020-06-28T06:45:10Z</time>
      </trkpt>
      <trkpt lat="44.11239" lon="7.35342">
        <ele>2475.388</ele>
        <time>2020-06-28T06:45:26Z</time>
      </trkpt>
      <trkpt lat="44.11228" lon="7.35327">
        <ele>2479.225</ele>
        <time>2020-06-28T06:45:42Z</time>
      </trkpt>
      <trkpt lat="44.11219" lon="7.35313">
        <ele>2483.902</ele>
        <time>2020-06-28T06:45:57Z</time>
      </trkpt>
      <trkpt lat="44.1123" lon="7.35306">
        <ele>2478.771</ele>
        <time>2020-06-28T06:46:13Z</time>
      </trkpt>
      <trkpt lat="44.11236" lon="7.35306">
        <ele>2476.904</ele>
        <time>2020-06-28T06:46:29Z</time>
      </trkpt>
      <trkpt lat="44.11236" lon="7.35306">
        <ele>2476.904</ele>
        <time>2020-06-28T06:46:45Z</time>
      </trkpt>
      <trkpt lat="44.11243" lon="7.35309">
        <ele>2482.006</ele>
        <time>2020-06-28T06:47:01Z</time>
      </trkpt>
      <trkpt lat="44.11245" lon="7.35308">
        <ele>2483.648</ele>
        <time>2020-06-28T06:47:17Z</time>
      </trkpt>
      <trkpt lat="44.11245" lon="7.35308">
        <ele>2483.648</ele>
        <time>2020-06-28T06:47:32Z</time>
      </trkpt>
      <trkpt lat="44.11245" lon="7.35308">
        <ele>2483.648</ele>
        <time>2020-06-28T06:47:48Z</time>
      </trkpt>
      <trkpt lat="44.11245" lon="7.35308">
        <ele>2483.648</ele>
        <time>2020-06-28T06:48:03Z</time>
      </trkpt>
      <trkpt lat="44.11245" lon="7.35309">
        <ele>2484.225</ele>
        <time>2020-06-28T06:48:19Z</time>
      </trkpt>
      <trkpt lat="44.11245" lon="7.35309">
        <ele>2484.225</ele>
        <time>2020-06-28T06:48:34Z</time>
      </trkpt>
      <trkpt lat="44.11245" lon="7.35309">
        <ele>2484.225</ele>
        <time>2020-06-28T06:48:50Z</time>
      </trkpt>
      <trkpt lat="44.11245" lon="7.35309">
        <ele>2484.225</ele>
        <time>2020-06-28T06:49:06Z</time>
      </trkpt>
      <trkpt lat="44.11245" lon="7.35309">
        <ele>2484.225</ele>
        <time>2020-06-28T06:49:22Z</time>
      </trkpt>
      <trkpt lat="44.11248" lon="7.3531">
        <ele>2487.365</ele>
        <time>2020-06-28T06:49:37Z</time>
      </trkpt>
      <trkpt lat="44.11248" lon="7.3531">
        <ele>2487.365</ele>
        <time>2020-06-28T06:49:53Z</time>
      </trkpt>
      <trkpt lat="44.11248" lon="7.3531">
        <ele>2487.365</ele>
        <time>2020-06-28T06:50:09Z</time>
      </trkpt>
      <trkpt lat="44.11248" lon="7.3531">
        <ele>2487.365</ele>
        <time>2020-06-28T06:50:24Z</time>
      </trkpt>
      <trkpt lat="44.11248" lon="7.3531">
        <ele>2487.365</ele>
        <time>2020-06-28T06:50:39Z</time>
      </trkpt>
      <trkpt lat="44.11248" lon="7.3531">
        <ele>2487.365</ele>
        <time>2020-06-28T06:50:54Z</time>
      </trkpt>
      <trkpt lat="44.11248" lon="7.3531">
        <ele>2487.365</ele>
        <time>2020-06-28T06:51:10Z</time>
      </trkpt>
      <trkpt lat="44.11248" lon="7.3531">
        <ele>2487.365</ele>
        <time>2020-06-28T06:51:25Z</time>
      </trkpt>
      <trkpt lat="44.11248" lon="7.3531">
        <ele>2487.365</ele>
        <time>2020-06-28T06:51:41Z</time>
      </trkpt>
      <trkpt lat="44.11248" lon="7.3531">
        <ele>2487.365</ele>
        <time>2020-06-28T06:51:57Z</time>
      </trkpt>
      <trkpt lat="44.11248" lon="7.3531">
        <ele>2487.365</ele>
        <time>2020-06-28T06:52:13Z</time>
      </trkpt>
      <trkpt lat="44.11248" lon="7.3531">
        <ele>2487.365</ele>
        <time>2020-06-28T06:52:29Z</time>
      </trkpt>
      <trkpt lat="44.11248" lon="7.3531">
        <ele>2487.365</ele>
        <time>2020-06-28T06:52:44Z</time>
      </trkpt>
      <trkpt lat="44.11248" lon="7.3531">
        <ele>2487.365</ele>
        <time>2020-06-28T06:53:00Z</time>
      </trkpt>
      <trkpt lat="44.11248" lon="7.3531">
        <ele>2487.365</ele>
        <time>2020-06-28T06:53:15Z</time>
      </trkpt>
      <trkpt lat="44.11248" lon="7.3531">
        <ele>2487.365</ele>
        <time>2020-06-28T06:53:31Z</time>
      </trkpt>
      <trkpt lat="44.11248" lon="7.3531">
        <ele>2487.365</ele>
        <time>2020-06-28T06:53:47Z</time>
      </trkpt>
      <trkpt lat="44.11248" lon="7.3531">
        <ele>2487.365</ele>
        <time>2020-06-28T06:54:02Z</time>
      </trkpt>
      <trkpt lat="44.11248" lon="7.3531">
        <ele>2487.365</ele>
        <time>2020-06-28T06:54:17Z</time>
      </trkpt>
      <trkpt lat="44.11248" lon="7.3531">
        <ele>2487.365</ele>
        <time>2020-06-28T06:54:33Z</time>
      </trkpt>
      <trkpt lat="44.11248" lon="7.3531">
        <ele>2487.365</ele>
        <time>2020-06-28T06:54:48Z</time>
      </trkpt>
      <trkpt lat="44.11248" lon="7.3531">
        <ele>2487.365</ele>
        <time>2020-06-28T06:55:04Z</time>
      </trkpt>
      <trkpt lat="44.11248" lon="7.3531">
        <ele>2487.365</ele>
        <time>2020-06-28T06:55:20Z</time>
      </trkpt>
      <trkpt lat="44.11249" lon="7.3531">
        <ele>2489.768</ele>
        <time>2020-06-28T06:55:36Z</time>
      </trkpt>
      <trkpt lat="44.11249" lon="7.35311">
        <ele>2490.257</ele>
        <time>2020-06-28T06:55:52Z</time>
      </trkpt>
      <trkpt lat="44.11249" lon="7.35311">
        <ele>2490.257</ele>
        <time>2020-06-28T06:56:08Z</time>
      </trkpt>
      <trkpt lat="44.11249" lon="7.35311">
        <ele>2490.257</ele>
        <time>2020-06-28T06:56:24Z</time>
      </trkpt>
      <trkpt lat="44.11249" lon="7.35311">
        <ele>2490.257</ele>
        <time>2020-06-28T06:56:40Z</time>
      </trkpt>
      <trkpt lat="44.11249" lon="7.35311">
        <ele>2490.257</ele>
        <time>2020-06-28T06:56:55Z</time>
      </trkpt>
      <trkpt lat="44.11249" lon="7.35311">
        <ele>2490.257</ele>
        <time>2020-06-28T06:57:11Z</time>
      </trkpt>
      <trkpt lat="44.11249" lon="7.35311">
        <ele>2490.257</ele>
        <time>2020-06-28T06:57:26Z</time>
      </trkpt>
      <trkpt lat="44.11249" lon="7.35311">
        <ele>2490.257</ele>
        <time>2020-06-28T06:57:42Z</time>
      </trkpt>
      <trkpt lat="44.11251" lon="7.35313">
        <ele>2490.426</ele>
        <time>2020-06-28T06:57:58Z</time>
      </trkpt>
      <trkpt lat="44.11249" lon="7.35311">
        <ele>2492.095</ele>
        <time>2020-06-28T06:58:14Z</time>
      </trkpt>
      <trkpt lat="44.11252" lon="7.35311">
        <ele>2492.097</ele>
        <time>2020-06-28T06:58:30Z</time>
      </trkpt>
      <trkpt lat="44.11252" lon="7.35311">
        <ele>2492.097</ele>
        <time>2020-06-28T06:58:45Z</time>
      </trkpt>
      <trkpt lat="44.11252" lon="7.3531">
        <ele>2492.456</ele>
        <time>2020-06-28T06:59:01Z</time>
      </trkpt>
      <trkpt lat="44.11252" lon="7.3531">
        <ele>2492.456</ele>
        <time>2020-06-28T06:59:16Z</time>
      </trkpt>
      <trkpt lat="44.11251" lon="7.35311">
        <ele>2492.604</ele>
        <time>2020-06-28T06:59:32Z</time>
      </trkpt>
      <trkpt lat="44.11251" lon="7.35311">
        <ele>2492.604</ele>
        <time>2020-06-28T06:59:48Z</time>
      </trkpt>
      <trkpt lat="44.11251" lon="7.35311">
        <ele>2492.604</ele>
        <time>2020-06-28T07:00:03Z</time>
      </trkpt>
      <trkpt lat="44.11251" lon="7.35311">
        <ele>2492.604</ele>
        <time>2020-06-28T07:00:19Z</time>
      </trkpt>
      <trkpt lat="44.11251" lon="7.35311">
        <ele>2492.604</ele>
        <time>2020-06-28T07:00:35Z</time>
      </trkpt>
      <trkpt lat="44.11251" lon="7.35311">
        <ele>2492.604</ele>
        <time>2020-06-28T07:00:51Z</time>
      </trkpt>
      <trkpt lat="44.11251" lon="7.35311">
        <ele>2492.604</ele>
        <time>2020-06-28T07:01:06Z</time>
      </trkpt>
      <trkpt lat="44.11251" lon="7.35311">
        <ele>2492.604</ele>
        <time>2020-06-28T07:01:22Z</time>
      </trkpt>
      <trkpt lat="44.11251" lon="7.35311">
        <ele>2492.604</ele>
        <time>2020-06-28T07:01:37Z</time>
      </trkpt>
      <trkpt lat="44.11251" lon="7.35311">
        <ele>2492.604</ele>
        <time>2020-06-28T07:01:53Z</time>
      </trkpt>
      <trkpt lat="44.11251" lon="7.35311">
        <ele>2492.604</ele>
        <time>2020-06-28T07:02:08Z</time>
      </trkpt>
      <trkpt lat="44.11251" lon="7.35309">
        <ele>2493.622</ele>
        <time>2020-06-28T07:02:24Z</time>
      </trkpt>
      <trkpt lat="44.1125" lon="7.35307">
        <ele>2494.405</ele>
        <time>2020-06-28T07:02:40Z</time>
      </trkpt>
      <trkpt lat="44.1125" lon="7.35307">
        <ele>2494.405</ele>
        <time>2020-06-28T07:02:56Z</time>
      </trkpt>
      <trkpt lat="44.1125" lon="7.35307">
        <ele>2494.405</ele>
        <time>2020-06-28T07:03:12Z</time>
      </trkpt>
      <trkpt lat="44.11257" lon="7.35312">
        <ele>2494.675</ele>
        <time>2020-06-28T07:03:28Z</time>
      </trkpt>
      <trkpt lat="44.11259" lon="7.35302">
        <ele>2497.82</ele>
        <time>2020-06-28T07:03:44Z</time>
      </trkpt>
      <trkpt lat="44.11258" lon="7.35289">
        <ele>2503.589</ele>
        <time>2020-06-28T07:04:00Z</time>
      </trkpt>
      <trkpt lat="44.11259" lon="7.35285">
        <ele>2504.634</ele>
        <time>2020-06-28T07:04:15Z</time>
      </trkpt>
      <trkpt lat="44.11262" lon="7.35283">
        <ele>2505.864</ele>
        <time>2020-06-28T07:04:31Z</time>
      </trkpt>
      <trkpt lat="44.11261" lon="7.35278">
        <ele>2506.301</ele>
        <time>2020-06-28T07:04:46Z</time>
      </trkpt>
      <trkpt lat="44.11262" lon="7.35276">
        <ele>2505.813</ele>
        <time>2020-06-28T07:05:02Z</time>
      </trkpt>
      <trkpt lat="44.11262" lon="7.35276">
        <ele>2505.813</ele>
        <time>2020-06-28T07:05:18Z</time>
      </trkpt>
      <trkpt lat="44.11262" lon="7.35273">
        <ele>2503.175</ele>
        <time>2020-06-28T07:05:34Z</time>
      </trkpt>
      <trkpt lat="44.11264" lon="7.35271">
        <ele>2501.268</ele>
        <time>2020-06-28T07:05:50Z</time>
      </trkpt>
      <trkpt lat="44.11267" lon="7.35261">
        <ele>2498.001</ele>
        <time>2020-06-28T07:06:05Z</time>
      </trkpt>
      <trkpt lat="44.11265" lon="7.35253">
        <ele>2492.451</ele>
        <time>2020-06-28T07:06:21Z</time>
      </trkpt>
      <trkpt lat="44.11263" lon="7.35249">
        <ele>2491.716</ele>
        <time>2020-06-28T07:06:37Z</time>
      </trkpt>
      <trkpt lat="44.1126" lon="7.35244">
        <ele>2489.361</ele>
        <time>2020-06-28T07:06:52Z</time>
      </trkpt>
      <trkpt lat="44.11262" lon="7.35238">
        <ele>2483.097</ele>
        <time>2020-06-28T07:07:08Z</time>
      </trkpt>
      <trkpt lat="44.11263" lon="7.35231">
        <ele>2483.1</ele>
        <time>2020-06-28T07:07:24Z</time>
      </trkpt>
      <trkpt lat="44.11272" lon="7.35231">
        <ele>2481.684</ele>
        <time>2020-06-28T07:07:39Z</time>
      </trkpt>
      <trkpt lat="44.11274" lon="7.35233">
        <ele>2481.231</ele>
        <time>2020-06-28T07:07:55Z</time>
      </trkpt>
      <trkpt lat="44.11274" lon="7.35233">
        <ele>2481.231</ele>
        <time>2020-06-28T07:08:10Z</time>
      </trkpt>
      <trkpt lat="44.1128" lon="7.35227">
        <ele>2475.036</ele>
        <time>2020-06-28T07:08:26Z</time>
      </trkpt>
      <trkpt lat="44.11278" lon="7.35221">
        <ele>2472.281</ele>
        <time>2020-06-28T07:08:41Z</time>
      </trkpt>
      <trkpt lat="44.11289" lon="7.35213">
        <ele>2464.854</ele>
        <time>2020-06-28T07:08:56Z</time>
      </trkpt>
      <trkpt lat="44.11289" lon="7.35212">
        <ele>2464.289</ele>
        <time>2020-06-28T07:09:11Z</time>
      </trkpt>
      <trkpt lat="44.11289" lon="7.35212">
        <ele>2464.289</ele>
        <time>2020-06-28T07:09:27Z</time>
      </trkpt>
      <trkpt lat="44.11282" lon="7.35203">
        <ele>2457.589</ele>
        <time>2020-06-28T07:09:42Z</time>
      </trkpt>
      <trkpt lat="44.11282" lon="7.35202">
        <ele>2456.568</ele>
        <time>2020-06-28T07:09:58Z</time>
      </trkpt>
      <trkpt lat="44.11286" lon="7.35193">
        <ele>2450.109</ele>
        <time>2020-06-28T07:10:13Z</time>
      </trkpt>
      <trkpt lat="44.11289" lon="7.35184">
        <ele>2437.223</ele>
        <time>2020-06-28T07:10:28Z</time>
      </trkpt>
      <trkpt lat="44.11291" lon="7.35174">
        <ele>2434.158</ele>
        <time>2020-06-28T07:10:44Z</time>
      </trkpt>
      <trkpt lat="44.11282" lon="7.35171">
        <ele>2433.275</ele>
        <time>2020-06-28T07:10:59Z</time>
      </trkpt>
      <trkpt lat="44.11281" lon="7.35161">
        <ele>2432.529</ele>
        <time>2020-06-28T07:11:14Z</time>
      </trkpt>
      <trkpt lat="44.11278" lon="7.35153">
        <ele>2431.105</ele>
        <time>2020-06-28T07:11:29Z</time>
      </trkpt>
      <trkpt lat="44.11276" lon="7.35148">
        <ele>2431.813</ele>
        <time>2020-06-28T07:11:45Z</time>
      </trkpt>
      <trkpt lat="44.11282" lon="7.35147">
        <ele>2431.84</ele>
        <time>2020-06-28T07:12:01Z</time>
      </trkpt>
      <trkpt lat="44.11282" lon="7.35147">
        <ele>2431.84</ele>
        <time>2020-06-28T07:12:17Z</time>
      </trkpt>
      <trkpt lat="44.11282" lon="7.35147">
        <ele>2431.84</ele>
        <time>2020-06-28T07:12:32Z</time>
      </trkpt>
      <trkpt lat="44.11283" lon="7.35145">
        <ele>2431.8</ele>
        <time>2020-06-28T07:12:48Z</time>
      </trkpt>
      <trkpt lat="44.11277" lon="7.35145">
        <ele>2431.596</ele>
        <time>2020-06-28T07:13:04Z</time>
      </trkpt>
      <trkpt lat="44.11283" lon="7.35139">
        <ele>2431.501</ele>
        <time>2020-06-28T07:13:20Z</time>
      </trkpt>
      <trkpt lat="44.1129" lon="7.35131">
        <ele>2424.597</ele>
        <time>2020-06-28T07:13:36Z</time>
      </trkpt>
      <trkpt lat="44.11297" lon="7.35131">
        <ele>2417.16</ele>
        <time>2020-06-28T07:13:52Z</time>
      </trkpt>
      <trkpt lat="44.11293" lon="7.35125">
        <ele>2414.009</ele>
        <time>2020-06-28T07:14:07Z</time>
      </trkpt>
      <trkpt lat="44.11282" lon="7.35118">
        <ele>2410.17</ele>
        <time>2020-06-28T07:14:22Z</time>
      </trkpt>
      <trkpt lat="44.11283" lon="7.35112">
        <ele>2400.76</ele>
        <time>2020-06-28T07:14:38Z</time>
      </trkpt>
      <trkpt lat="44.11287" lon="7.35109">
        <ele>2397.839</ele>
        <time>2020-06-28T07:14:53Z</time>
      </trkpt>
      <trkpt lat="44.1128" lon="7.35106">
        <ele>2393.779</ele>
        <time>2020-06-28T07:15:09Z</time>
      </trkpt>
      <trkpt lat="44.11289" lon="7.35099">
        <ele>2384.154</ele>
        <time>2020-06-28T07:15:24Z</time>
      </trkpt>
      <trkpt lat="44.11284" lon="7.35088">
        <ele>2377.962</ele>
        <time>2020-06-28T07:15:40Z</time>
      </trkpt>
      <trkpt lat="44.11291" lon="7.35082">
        <ele>2374.536</ele>
        <time>2020-06-28T07:15:55Z</time>
      </trkpt>
      <trkpt lat="44.1128" lon="7.35061">
        <ele>2374.35</ele>
        <time>2020-06-28T07:16:11Z</time>
      </trkpt>
      <trkpt lat="44.11272" lon="7.35053">
        <ele>2376.154</ele>
        <time>2020-06-28T07:16:27Z</time>
      </trkpt>
      <trkpt lat="44.1126" lon="7.35056">
        <ele>2380.106</ele>
        <time>2020-06-28T07:16:43Z</time>
      </trkpt>
      <trkpt lat="44.11249" lon="7.35053">
        <ele>2378.964</ele>
        <time>2020-06-28T07:16:59Z</time>
      </trkpt>
      <trkpt lat="44.11248" lon="7.35043">
        <ele>2375.462</ele>
        <time>2020-06-28T07:17:15Z</time>
      </trkpt>
      <trkpt lat="44.11248" lon="7.35043">
        <ele>2375.462</ele>
        <time>2020-06-28T07:17:30Z</time>
      </trkpt>
      <trkpt lat="44.11249" lon="7.3504">
        <ele>2375.114</ele>
        <time>2020-06-28T07:17:46Z</time>
      </trkpt>
      <trkpt lat="44.11258" lon="7.35029">
        <ele>2368.268</ele>
        <time>2020-06-28T07:18:02Z</time>
      </trkpt>
      <trkpt lat="44.11265" lon="7.35013">
        <ele>2367.608</ele>
        <time>2020-06-28T07:18:17Z</time>
      </trkpt>
      <trkpt lat="44.11273" lon="7.3501">
        <ele>2361.766</ele>
        <time>2020-06-28T07:18:33Z</time>
      </trkpt>
      <trkpt lat="44.11276" lon="7.35002">
        <ele>2359.952</ele>
        <time>2020-06-28T07:18:49Z</time>
      </trkpt>
      <trkpt lat="44.11287" lon="7.35001">
        <ele>2352.88</ele>
        <time>2020-06-28T07:19:05Z</time>
      </trkpt>
      <trkpt lat="44.11295" lon="7.34997">
        <ele>2351.471</ele>
        <time>2020-06-28T07:19:21Z</time>
      </trkpt>
      <trkpt lat="44.11295" lon="7.34995">
        <ele>2351.506</ele>
        <time>2020-06-28T07:19:37Z</time>
      </trkpt>
      <trkpt lat="44.11292" lon="7.34987">
        <ele>2348.837</ele>
        <time>2020-06-28T07:19:53Z</time>
      </trkpt>
      <trkpt lat="44.11302" lon="7.34985">
        <ele>2347.424</ele>
        <time>2020-06-28T07:20:08Z</time>
      </trkpt>
      <trkpt lat="44.11304" lon="7.34979">
        <ele>2346.839</ele>
        <time>2020-06-28T07:20:24Z</time>
      </trkpt>
      <trkpt lat="44.11299" lon="7.34965">
        <ele>2344.477</ele>
        <time>2020-06-28T07:20:40Z</time>
      </trkpt>
      <trkpt lat="44.11302" lon="7.34958">
        <ele>2339.749</ele>
        <time>2020-06-28T07:20:56Z</time>
      </trkpt>
      <trkpt lat="44.11302" lon="7.34953">
        <ele>2337.741</ele>
        <time>2020-06-28T07:21:12Z</time>
      </trkpt>
      <trkpt lat="44.11308" lon="7.34944">
        <ele>2334.098</ele>
        <time>2020-06-28T07:21:28Z</time>
      </trkpt>
      <trkpt lat="44.11309" lon="7.34929">
        <ele>2333.195</ele>
        <time>2020-06-28T07:21:44Z</time>
      </trkpt>
      <trkpt lat="44.11317" lon="7.3492">
        <ele>2329.838</ele>
        <time>2020-06-28T07:21:59Z</time>
      </trkpt>
      <trkpt lat="44.11322" lon="7.34927">
        <ele>2327.661</ele>
        <time>2020-06-28T07:22:15Z</time>
      </trkpt>
      <trkpt lat="44.11332" lon="7.34928">
        <ele>2327.423</ele>
        <time>2020-06-28T07:22:31Z</time>
      </trkpt>
      <trkpt lat="44.11333" lon="7.34914">
        <ele>2321.519</ele>
        <time>2020-06-28T07:22:47Z</time>
      </trkpt>
      <trkpt lat="44.1134" lon="7.34892">
        <ele>2319.318</ele>
        <time>2020-06-28T07:23:03Z</time>
      </trkpt>
      <trkpt lat="44.11343" lon="7.34878">
        <ele>2314.063</ele>
        <time>2020-06-28T07:23:18Z</time>
      </trkpt>
      <trkpt lat="44.11347" lon="7.34855">
        <ele>2313.925</ele>
        <time>2020-06-28T07:23:34Z</time>
      </trkpt>
      <trkpt lat="44.11354" lon="7.34838">
        <ele>2310.587</ele>
        <time>2020-06-28T07:23:49Z</time>
      </trkpt>
      <trkpt lat="44.11354" lon="7.3482">
        <ele>2305.905</ele>
        <time>2020-06-28T07:24:05Z</time>
      </trkpt>
      <trkpt lat="44.11354" lon="7.3481">
        <ele>2302.106</ele>
        <time>2020-06-28T07:24:20Z</time>
      </trkpt>
      <trkpt lat="44.11353" lon="7.34796">
        <ele>2296.968</ele>
        <time>2020-06-28T07:24:36Z</time>
      </trkpt>
      <trkpt lat="44.11352" lon="7.34787">
        <ele>2295.269</ele>
        <time>2020-06-28T07:24:52Z</time>
      </trkpt>
      <trkpt lat="44.11355" lon="7.34776">
        <ele>2293.569</ele>
        <time>2020-06-28T07:25:08Z</time>
      </trkpt>
      <trkpt lat="44.11359" lon="7.34771">
        <ele>2293.26</ele>
        <time>2020-06-28T07:25:23Z</time>
      </trkpt>
      <trkpt lat="44.11362" lon="7.34753">
        <ele>2293.434</ele>
        <time>2020-06-28T07:25:38Z</time>
      </trkpt>
      <trkpt lat="44.11362" lon="7.34752">
        <ele>2292.714</ele>
        <time>2020-06-28T07:25:54Z</time>
      </trkpt>
      <trkpt lat="44.11362" lon="7.34752">
        <ele>2292.714</ele>
        <time>2020-06-28T07:26:09Z</time>
      </trkpt>
      <trkpt lat="44.11361" lon="7.34748">
        <ele>2292.492</ele>
        <time>2020-06-28T07:26:25Z</time>
      </trkpt>
      <trkpt lat="44.11357" lon="7.34734">
        <ele>2290.551</ele>
        <time>2020-06-28T07:26:41Z</time>
      </trkpt>
      <trkpt lat="44.11364" lon="7.34718">
        <ele>2288.905</ele>
        <time>2020-06-28T07:26:57Z</time>
      </trkpt>
      <trkpt lat="44.11369" lon="7.34704">
        <ele>2288.932</ele>
        <time>2020-06-28T07:27:12Z</time>
      </trkpt>
      <trkpt lat="44.1137" lon="7.34702">
        <ele>2289.256</ele>
        <time>2020-06-28T07:27:28Z</time>
      </trkpt>
      <trkpt lat="44.11367" lon="7.34701">
        <ele>2287.629</ele>
        <time>2020-06-28T07:27:44Z</time>
      </trkpt>
      <trkpt lat="44.11368" lon="7.34701">
        <ele>2287.741</ele>
        <time>2020-06-28T07:27:59Z</time>
      </trkpt>
      <trkpt lat="44.11368" lon="7.347">
        <ele>2288.103</ele>
        <time>2020-06-28T07:28:15Z</time>
      </trkpt>
      <trkpt lat="44.11369" lon="7.347">
        <ele>2289.177</ele>
        <time>2020-06-28T07:28:30Z</time>
      </trkpt>
      <trkpt lat="44.11369" lon="7.347">
        <ele>2289.177</ele>
        <time>2020-06-28T07:28:46Z</time>
      </trkpt>
      <trkpt lat="44.1137" lon="7.347">
        <ele>2287.921</ele>
        <time>2020-06-28T07:29:01Z</time>
      </trkpt>
      <trkpt lat="44.11386" lon="7.34684">
        <ele>2283.022</ele>
        <time>2020-06-28T07:29:17Z</time>
      </trkpt>
      <trkpt lat="44.11399" lon="7.34668">
        <ele>2280.241</ele>
        <time>2020-06-28T07:29:33Z</time>
      </trkpt>
      <trkpt lat="44.11412" lon="7.34667">
        <ele>2276.023</ele>
        <time>2020-06-28T07:29:48Z</time>
      </trkpt>
      <trkpt lat="44.11409" lon="7.34661">
        <ele>2276.006</ele>
        <time>2020-06-28T07:30:04Z</time>
      </trkpt>
      <trkpt lat="44.11413" lon="7.34658">
        <ele>2275.405</ele>
        <time>2020-06-28T07:30:19Z</time>
      </trkpt>
      <trkpt lat="44.1141" lon="7.34658">
        <ele>2274.353</ele>
        <time>2020-06-28T07:30:34Z</time>
      </trkpt>
      <trkpt lat="44.11409" lon="7.34659">
        <ele>2273.642</ele>
        <time>2020-06-28T07:30:50Z</time>
      </trkpt>
      <trkpt lat="44.11411" lon="7.34654">
        <ele>2271.949</ele>
        <time>2020-06-28T07:31:05Z</time>
      </trkpt>
      <trkpt lat="44.11409" lon="7.34651">
        <ele>2271.766</ele>
        <time>2020-06-28T07:31:21Z</time>
      </trkpt>
      <trkpt lat="44.11392" lon="7.34636">
        <ele>2268.414</ele>
        <time>2020-06-28T07:31:37Z</time>
      </trkpt>
      <trkpt lat="44.11392" lon="7.34622">
        <ele>2269.066</ele>
        <time>2020-06-28T07:31:52Z</time>
      </trkpt>
      <trkpt lat="44.11388" lon="7.34594">
        <ele>2270.041</ele>
        <time>2020-06-28T07:32:08Z</time>
      </trkpt>
      <trkpt lat="44.11407" lon="7.3457">
        <ele>2269.507</ele>
        <time>2020-06-28T07:32:23Z</time>
      </trkpt>
      <trkpt lat="44.11417" lon="7.34555">
        <ele>2270.372</ele>
        <time>2020-06-28T07:32:38Z</time>
      </trkpt>
      <trkpt lat="44.11424" lon="7.34535">
        <ele>2270.45</ele>
        <time>2020-06-28T07:32:54Z</time>
      </trkpt>
      <trkpt lat="44.11433" lon="7.34516">
        <ele>2270.03</ele>
        <time>2020-06-28T07:33:09Z</time>
      </trkpt>
      <trkpt lat="44.11439" lon="7.34496">
        <ele>2268.54</ele>
        <time>2020-06-28T07:33:25Z</time>
      </trkpt>
      <trkpt lat="44.11441" lon="7.34494">
        <ele>2268.326</ele>
        <time>2020-06-28T07:33:41Z</time>
      </trkpt>
      <trkpt lat="44.11441" lon="7.34493">
        <ele>2267.511</ele>
        <time>2020-06-28T07:33:56Z</time>
      </trkpt>
      <trkpt lat="44.11451" lon="7.34486">
        <ele>2264.733</ele>
        <time>2020-06-28T07:34:11Z</time>
      </trkpt>
      <trkpt lat="44.1146" lon="7.34496">
        <ele>2264.53</ele>
        <time>2020-06-28T07:34:27Z</time>
      </trkpt>
      <trkpt lat="44.11466" lon="7.34481">
        <ele>2260.454</ele>
        <time>2020-06-28T07:34:43Z</time>
      </trkpt>
      <trkpt lat="44.11472" lon="7.34471">
        <ele>2255.868</ele>
        <time>2020-06-28T07:34:59Z</time>
      </trkpt>
      <trkpt lat="44.11476" lon="7.34453">
        <ele>2251.761</ele>
        <time>2020-06-28T07:35:15Z</time>
      </trkpt>
      <trkpt lat="44.1148" lon="7.34436">
        <ele>2247.59</ele>
        <time>2020-06-28T07:35:30Z</time>
      </trkpt>
      <trkpt lat="44.11489" lon="7.34426">
        <ele>2243.375</ele>
        <time>2020-06-28T07:35:46Z</time>
      </trkpt>
      <trkpt lat="44.11491" lon="7.34413">
        <ele>2242.554</ele>
        <time>2020-06-28T07:36:01Z</time>
      </trkpt>
      <trkpt lat="44.1149" lon="7.34398">
        <ele>2237.267</ele>
        <time>2020-06-28T07:36:16Z</time>
      </trkpt>
      <trkpt lat="44.11491" lon="7.34379">
        <ele>2236.644</ele>
        <time>2020-06-28T07:36:32Z</time>
      </trkpt>
      <trkpt lat="44.11505" lon="7.34368">
        <ele>2233.402</ele>
        <time>2020-06-28T07:36:48Z</time>
      </trkpt>
      <trkpt lat="44.11507" lon="7.34353">
        <ele>2231.725</ele>
        <time>2020-06-28T07:37:03Z</time>
      </trkpt>
      <trkpt lat="44.1152" lon="7.34339">
        <ele>2229.664</ele>
        <time>2020-06-28T07:37:19Z</time>
      </trkpt>
      <trkpt lat="44.11537" lon="7.34328">
        <ele>2226.419</ele>
        <time>2020-06-28T07:37:35Z</time>
      </trkpt>
      <trkpt lat="44.11547" lon="7.34311">
        <ele>2225.124</ele>
        <time>2020-06-28T07:37:50Z</time>
      </trkpt>
      <trkpt lat="44.11549" lon="7.34299">
        <ele>2220.628</ele>
        <time>2020-06-28T07:38:06Z</time>
      </trkpt>
      <trkpt lat="44.11551" lon="7.34294">
        <ele>2219.427</ele>
        <time>2020-06-28T07:38:21Z</time>
      </trkpt>
      <trkpt lat="44.11555" lon="7.34287">
        <ele>2218.147</ele>
        <time>2020-06-28T07:38:37Z</time>
      </trkpt>
      <trkpt lat="44.11559" lon="7.34283">
        <ele>2216.563</ele>
        <time>2020-06-28T07:38:53Z</time>
      </trkpt>
      <trkpt lat="44.11568" lon="7.34265">
        <ele>2213.308</ele>
        <time>2020-06-28T07:39:09Z</time>
      </trkpt>
      <trkpt lat="44.11568" lon="7.34264">
        <ele>2212.878</ele>
        <time>2020-06-28T07:39:24Z</time>
      </trkpt>
      <trkpt lat="44.11568" lon="7.34258">
        <ele>2213.209</ele>
        <time>2020-06-28T07:39:40Z</time>
      </trkpt>
      <trkpt lat="44.11576" lon="7.34235">
        <ele>2210.742</ele>
        <time>2020-06-28T07:39:56Z</time>
      </trkpt>
      <trkpt lat="44.1158" lon="7.34221">
        <ele>2207.028</ele>
        <time>2020-06-28T07:40:12Z</time>
      </trkpt>
      <trkpt lat="44.11583" lon="7.34214">
        <ele>2209.789</ele>
        <time>2020-06-28T07:40:28Z</time>
      </trkpt>
      <trkpt lat="44.11591" lon="7.34203">
        <ele>2203.827</ele>
        <time>2020-06-28T07:40:43Z</time>
      </trkpt>
      <trkpt lat="44.11599" lon="7.34195">
        <ele>2200.095</ele>
        <time>2020-06-28T07:40:59Z</time>
      </trkpt>
      <trkpt lat="44.11603" lon="7.34191">
        <ele>2199.306</ele>
        <time>2020-06-28T07:41:15Z</time>
      </trkpt>
      <trkpt lat="44.11606" lon="7.34185">
        <ele>2195.093</ele>
        <time>2020-06-28T07:41:31Z</time>
      </trkpt>
      <trkpt lat="44.11609" lon="7.34171">
        <ele>2194.702</ele>
        <time>2020-06-28T07:41:47Z</time>
      </trkpt>
      <trkpt lat="44.11609" lon="7.34163">
        <ele>2195.534</ele>
        <time>2020-06-28T07:42:02Z</time>
      </trkpt>
      <trkpt lat="44.11616" lon="7.34143">
        <ele>2192.285</ele>
        <time>2020-06-28T07:42:17Z</time>
      </trkpt>
      <trkpt lat="44.11618" lon="7.34143">
        <ele>2189.562</ele>
        <time>2020-06-28T07:42:33Z</time>
      </trkpt>
      <trkpt lat="44.11613" lon="7.34129">
        <ele>2190.118</ele>
        <time>2020-06-28T07:42:48Z</time>
      </trkpt>
      <trkpt lat="44.11606" lon="7.34119">
        <ele>2192.992</ele>
        <time>2020-06-28T07:43:04Z</time>
      </trkpt>
      <trkpt lat="44.11614" lon="7.34109">
        <ele>2191.185</ele>
        <time>2020-06-28T07:43:19Z</time>
      </trkpt>
      <trkpt lat="44.11615" lon="7.34092">
        <ele>2188.734</ele>
        <time>2020-06-28T07:43:35Z</time>
      </trkpt>
      <trkpt lat="44.11615" lon="7.34074">
        <ele>2186.624</ele>
        <time>2020-06-28T07:43:50Z</time>
      </trkpt>
      <trkpt lat="44.11615" lon="7.34073">
        <ele>2185.735</ele>
        <time>2020-06-28T07:44:06Z</time>
      </trkpt>
      <trkpt lat="44.11615" lon="7.34073">
        <ele>2185.735</ele>
        <time>2020-06-28T07:44:22Z</time>
      </trkpt>
      <trkpt lat="44.11615" lon="7.34073">
        <ele>2185.735</ele>
        <time>2020-06-28T07:44:37Z</time>
      </trkpt>
      <trkpt lat="44.11615" lon="7.34076">
        <ele>2186.818</ele>
        <time>2020-06-28T07:44:52Z</time>
      </trkpt>
      <trkpt lat="44.11615" lon="7.34076">
        <ele>2186.818</ele>
        <time>2020-06-28T07:45:08Z</time>
      </trkpt>
      <trkpt lat="44.11615" lon="7.34076">
        <ele>2186.818</ele>
        <time>2020-06-28T07:45:24Z</time>
      </trkpt>
      <trkpt lat="44.11614" lon="7.34077">
        <ele>2186.778</ele>
        <time>2020-06-28T07:45:40Z</time>
      </trkpt>
      <trkpt lat="44.11612" lon="7.34079">
        <ele>2186.718</ele>
        <time>2020-06-28T07:45:56Z</time>
      </trkpt>
      <trkpt lat="44.11612" lon="7.34079">
        <ele>2186.718</ele>
        <time>2020-06-28T07:46:11Z</time>
      </trkpt>
      <trkpt lat="44.1161" lon="7.34073">
        <ele>2193.928</ele>
        <time>2020-06-28T07:46:27Z</time>
      </trkpt>
      <trkpt lat="44.11609" lon="7.34073">
        <ele>2195.029</ele>
        <time>2020-06-28T07:46:42Z</time>
      </trkpt>
      <trkpt lat="44.11609" lon="7.34073">
        <ele>2195.029</ele>
        <time>2020-06-28T07:46:57Z</time>
      </trkpt>
      <trkpt lat="44.11612" lon="7.34074">
        <ele>2196.265</ele>
        <time>2020-06-28T07:47:12Z</time>
      </trkpt>
      <trkpt lat="44.11612" lon="7.34074">
        <ele>2196.265</ele>
        <time>2020-06-28T07:47:28Z</time>
      </trkpt>
      <trkpt lat="44.11612" lon="7.34074">
        <ele>2196.265</ele>
        <time>2020-06-28T07:47:44Z</time>
      </trkpt>
      <trkpt lat="44.11612" lon="7.34074">
        <ele>2196.265</ele>
        <time>2020-06-28T07:48:00Z</time>
      </trkpt>
      <trkpt lat="44.11612" lon="7.34074">
        <ele>2196.265</ele>
        <time>2020-06-28T07:48:15Z</time>
      </trkpt>
      <trkpt lat="44.11612" lon="7.34074">
        <ele>2196.265</ele>
        <time>2020-06-28T07:48:31Z</time>
      </trkpt>
      <trkpt lat="44.11612" lon="7.34074">
        <ele>2196.265</ele>
        <time>2020-06-28T07:48:47Z</time>
      </trkpt>
      <trkpt lat="44.11612" lon="7.34074">
        <ele>2196.265</ele>
        <time>2020-06-28T07:49:03Z</time>
      </trkpt>
      <trkpt lat="44.11612" lon="7.34074">
        <ele>2196.265</ele>
        <time>2020-06-28T07:49:19Z</time>
      </trkpt>
      <trkpt lat="44.11612" lon="7.34074">
        <ele>2196.265</ele>
        <time>2020-06-28T07:49:34Z</time>
      </trkpt>
      <trkpt lat="44.11612" lon="7.34074">
        <ele>2196.265</ele>
        <time>2020-06-28T07:49:50Z</time>
      </trkpt>
      <trkpt lat="44.11612" lon="7.34074">
        <ele>2196.265</ele>
        <time>2020-06-28T07:50:06Z</time>
      </trkpt>
      <trkpt lat="44.11612" lon="7.34074">
        <ele>2196.265</ele>
        <time>2020-06-28T07:50:21Z</time>
      </trkpt>
      <trkpt lat="44.11612" lon="7.34074">
        <ele>2196.265</ele>
        <time>2020-06-28T07:50:37Z</time>
      </trkpt>
      <trkpt lat="44.11612" lon="7.34074">
        <ele>2196.265</ele>
        <time>2020-06-28T07:50:53Z</time>
      </trkpt>
      <trkpt lat="44.11612" lon="7.34074">
        <ele>2196.265</ele>
        <time>2020-06-28T07:51:08Z</time>
      </trkpt>
      <trkpt lat="44.11612" lon="7.34074">
        <ele>2196.265</ele>
        <time>2020-06-28T07:51:24Z</time>
      </trkpt>
      <trkpt lat="44.11612" lon="7.34074">
        <ele>2196.265</ele>
        <time>2020-06-28T07:51:40Z</time>
      </trkpt>
      <trkpt lat="44.11614" lon="7.34073">
        <ele>2196.396</ele>
        <time>2020-06-28T07:51:55Z</time>
      </trkpt>
      <trkpt lat="44.11611" lon="7.34075">
        <ele>2196.695</ele>
        <time>2020-06-28T07:52:10Z</time>
      </trkpt>
      <trkpt lat="44.11614" lon="7.34074">
        <ele>2196.548</ele>
        <time>2020-06-28T07:52:25Z</time>
      </trkpt>
      <trkpt lat="44.11615" lon="7.34073">
        <ele>2196.523</ele>
        <time>2020-06-28T07:52:40Z</time>
      </trkpt>
      <trkpt lat="44.11617" lon="7.34073">
        <ele>2196.317</ele>
        <time>2020-06-28T07:52:56Z</time>
      </trkpt>
      <trkpt lat="44.11616" lon="7.34075">
        <ele>2198.521</ele>
        <time>2020-06-28T07:53:11Z</time>
      </trkpt>
      <trkpt lat="44.11616" lon="7.34075">
        <ele>2198.377</ele>
        <time>2020-06-28T07:53:27Z</time>
      </trkpt>
      <trkpt lat="44.11616" lon="7.34075">
        <ele>2198.377</ele>
        <time>2020-06-28T07:53:43Z</time>
      </trkpt>
      <trkpt lat="44.11613" lon="7.34076">
        <ele>2196.95</ele>
        <time>2020-06-28T07:53:58Z</time>
      </trkpt>
      <trkpt lat="44.11614" lon="7.34075">
        <ele>2196.424</ele>
        <time>2020-06-28T07:54:14Z</time>
      </trkpt>
      <trkpt lat="44.11615" lon="7.34075">
        <ele>2197.206</ele>
        <time>2020-06-28T07:54:30Z</time>
      </trkpt>
      <trkpt lat="44.11614" lon="7.34073">
        <ele>2197.913</ele>
        <time>2020-06-28T07:54:46Z</time>
      </trkpt>
      <trkpt lat="44.11614" lon="7.34073">
        <ele>2197.913</ele>
        <time>2020-06-28T07:55:01Z</time>
      </trkpt>
      <trkpt lat="44.1162" lon="7.34077">
        <ele>2197.146</ele>
        <time>2020-06-28T07:55:17Z</time>
      </trkpt>
      <trkpt lat="44.1162" lon="7.34077">
        <ele>2197.146</ele>
        <time>2020-06-28T07:55:32Z</time>
      </trkpt>
      <trkpt lat="44.1162" lon="7.34077">
        <ele>2197.146</ele>
        <time>2020-06-28T07:55:47Z</time>
      </trkpt>
      <trkpt lat="44.1162" lon="7.34077">
        <ele>2197.146</ele>
        <time>2020-06-28T07:56:03Z</time>
      </trkpt>
      <trkpt lat="44.1162" lon="7.34077">
        <ele>2197.146</ele>
        <time>2020-06-28T07:56:18Z</time>
      </trkpt>
      <trkpt lat="44.1162" lon="7.34077">
        <ele>2197.146</ele>
        <time>2020-06-28T07:56:33Z</time>
      </trkpt>
      <trkpt lat="44.1162" lon="7.34077">
        <ele>2197.146</ele>
        <time>2020-06-28T07:56:49Z</time>
      </trkpt>
      <trkpt lat="44.1162" lon="7.34077">
        <ele>2197.146</ele>
        <time>2020-06-28T07:57:04Z</time>
      </trkpt>
      <trkpt lat="44.1162" lon="7.34077">
        <ele>2197.146</ele>
        <time>2020-06-28T07:57:20Z</time>
      </trkpt>
      <trkpt lat="44.1162" lon="7.34077">
        <ele>2197.146</ele>
        <time>2020-06-28T07:57:36Z</time>
      </trkpt>
      <trkpt lat="44.1162" lon="7.34077">
        <ele>2197.146</ele>
        <time>2020-06-28T07:57:52Z</time>
      </trkpt>
      <trkpt lat="44.1162" lon="7.34077">
        <ele>2197.146</ele>
        <time>2020-06-28T07:58:07Z</time>
      </trkpt>
      <trkpt lat="44.1162" lon="7.34077">
        <ele>2197.146</ele>
        <time>2020-06-28T07:58:23Z</time>
      </trkpt>
      <trkpt lat="44.1162" lon="7.34077">
        <ele>2197.146</ele>
        <time>2020-06-28T07:58:39Z</time>
      </trkpt>
      <trkpt lat="44.11619" lon="7.34077">
        <ele>2198.092</ele>
        <time>2020-06-28T07:58:55Z</time>
      </trkpt>
      <trkpt lat="44.11619" lon="7.34077">
        <ele>2198.092</ele>
        <time>2020-06-28T07:59:11Z</time>
      </trkpt>
      <trkpt lat="44.11619" lon="7.34077">
        <ele>2198.092</ele>
        <time>2020-06-28T07:59:27Z</time>
      </trkpt>
      <trkpt lat="44.11619" lon="7.34077">
        <ele>2198.092</ele>
        <time>2020-06-28T07:59:42Z</time>
      </trkpt>
      <trkpt lat="44.11619" lon="7.34077">
        <ele>2198.092</ele>
        <time>2020-06-28T07:59:57Z</time>
      </trkpt>
      <trkpt lat="44.11619" lon="7.34077">
        <ele>2198.092</ele>
        <time>2020-06-28T08:00:13Z</time>
      </trkpt>
      <trkpt lat="44.11619" lon="7.34077">
        <ele>2198.092</ele>
        <time>2020-06-28T08:00:28Z</time>
      </trkpt>
      <trkpt lat="44.11619" lon="7.34077">
        <ele>2198.092</ele>
        <time>2020-06-28T08:00:44Z</time>
      </trkpt>
      <trkpt lat="44.11619" lon="7.34077">
        <ele>2198.092</ele>
        <time>2020-06-28T08:00:59Z</time>
      </trkpt>
      <trkpt lat="44.11619" lon="7.34077">
        <ele>2198.092</ele>
        <time>2020-06-28T08:01:15Z</time>
      </trkpt>
      <trkpt lat="44.11617" lon="7.34081">
        <ele>2198.756</ele>
        <time>2020-06-28T08:01:31Z</time>
      </trkpt>
      <trkpt lat="44.11613" lon="7.34079">
        <ele>2199.841</ele>
        <time>2020-06-28T08:01:47Z</time>
      </trkpt>
      <trkpt lat="44.11616" lon="7.34079">
        <ele>2198.207</ele>
        <time>2020-06-28T08:02:02Z</time>
      </trkpt>
      <trkpt lat="44.11618" lon="7.34079">
        <ele>2197.829</ele>
        <time>2020-06-28T08:02:18Z</time>
      </trkpt>
      <trkpt lat="44.11627" lon="7.34074">
        <ele>2194.541</ele>
        <time>2020-06-28T08:02:33Z</time>
      </trkpt>
      <trkpt lat="44.11628" lon="7.34073">
        <ele>2194.741</ele>
        <time>2020-06-28T08:02:48Z</time>
      </trkpt>
      <trkpt lat="44.11632" lon="7.34075">
        <ele>2193.654</ele>
        <time>2020-06-28T08:03:04Z</time>
      </trkpt>
      <trkpt lat="44.11618" lon="7.3408">
        <ele>2190.854</ele>
        <time>2020-06-28T08:03:20Z</time>
      </trkpt>
      <trkpt lat="44.11611" lon="7.341">
        <ele>2199.285</ele>
        <time>2020-06-28T08:03:35Z</time>
      </trkpt>
      <trkpt lat="44.11634" lon="7.34096">
        <ele>2192.707</ele>
        <time>2020-06-28T08:03:51Z</time>
      </trkpt>
      <trkpt lat="44.11646" lon="7.34081">
        <ele>2190.081</ele>
        <time>2020-06-28T08:04:07Z</time>
      </trkpt>
      <trkpt lat="44.11662" lon="7.34068">
        <ele>2193.704</ele>
        <time>2020-06-28T08:04:22Z</time>
      </trkpt>
      <trkpt lat="44.11664" lon="7.34045">
        <ele>2194.412</ele>
        <time>2020-06-28T08:04:38Z</time>
      </trkpt>
      <trkpt lat="44.11665" lon="7.34034">
        <ele>2195.945</ele>
        <time>2020-06-28T08:04:53Z</time>
      </trkpt>
      <trkpt lat="44.11676" lon="7.3402">
        <ele>2194.806</ele>
        <time>2020-06-28T08:05:09Z</time>
      </trkpt>
      <trkpt lat="44.11682" lon="7.34001">
        <ele>2199.006</ele>
        <time>2020-06-28T08:05:24Z</time>
      </trkpt>
      <trkpt lat="44.11693" lon="7.33982">
        <ele>2199.898</ele>
        <time>2020-06-28T08:05:40Z</time>
      </trkpt>
      <trkpt lat="44.117" lon="7.33958">
        <ele>2200.002</ele>
        <time>2020-06-28T08:05:56Z</time>
      </trkpt>
      <trkpt lat="44.11697" lon="7.33947">
        <ele>2199.355</ele>
        <time>2020-06-28T08:06:11Z</time>
      </trkpt>
      <trkpt lat="44.11696" lon="7.33927">
        <ele>2196.879</ele>
        <time>2020-06-28T08:06:27Z</time>
      </trkpt>
      <trkpt lat="44.11706" lon="7.33912">
        <ele>2195.249</ele>
        <time>2020-06-28T08:06:43Z</time>
      </trkpt>
      <trkpt lat="44.11714" lon="7.33893">
        <ele>2195.864</ele>
        <time>2020-06-28T08:06:59Z</time>
      </trkpt>
      <trkpt lat="44.1172" lon="7.33885">
        <ele>2190.762</ele>
        <time>2020-06-28T08:07:15Z</time>
      </trkpt>
      <trkpt lat="44.11727" lon="7.33877">
        <ele>2190.728</ele>
        <time>2020-06-28T08:07:31Z</time>
      </trkpt>
      <trkpt lat="44.11729" lon="7.33868">
        <ele>2190.707</ele>
        <time>2020-06-28T08:07:46Z</time>
      </trkpt>
      <trkpt lat="44.11731" lon="7.33863">
        <ele>2190.13</ele>
        <time>2020-06-28T08:08:01Z</time>
      </trkpt>
      <trkpt lat="44.11736" lon="7.33855">
        <ele>2186.863</ele>
        <time>2020-06-28T08:08:17Z</time>
      </trkpt>
      <trkpt lat="44.11736" lon="7.33855">
        <ele>2186.863</ele>
        <time>2020-06-28T08:08:33Z</time>
      </trkpt>
      <trkpt lat="44.11736" lon="7.33855">
        <ele>2186.863</ele>
        <time>2020-06-28T08:08:48Z</time>
      </trkpt>
      <trkpt lat="44.11736" lon="7.33855">
        <ele>2186.863</ele>
        <time>2020-06-28T08:09:03Z</time>
      </trkpt>
      <trkpt lat="44.11738" lon="7.33851">
        <ele>2186.443</ele>
        <time>2020-06-28T08:09:19Z</time>
      </trkpt>
      <trkpt lat="44.11751" lon="7.33852">
        <ele>2184.653</ele>
        <time>2020-06-28T08:09:35Z</time>
      </trkpt>
      <trkpt lat="44.11756" lon="7.33841">
        <ele>2179.386</ele>
        <time>2020-06-28T08:09:51Z</time>
      </trkpt>
      <trkpt lat="44.11762" lon="7.33837">
        <ele>2174.922</ele>
        <time>2020-06-28T08:10:07Z</time>
      </trkpt>
      <trkpt lat="44.11767" lon="7.33833">
        <ele>2165.395</ele>
        <time>2020-06-28T08:10:22Z</time>
      </trkpt>
      <trkpt lat="44.11765" lon="7.33823">
        <ele>2164.343</ele>
        <time>2020-06-28T08:10:38Z</time>
      </trkpt>
      <trkpt lat="44.11767" lon="7.3381">
        <ele>2168.16</ele>
        <time>2020-06-28T08:10:53Z</time>
      </trkpt>
      <trkpt lat="44.11775" lon="7.33806">
        <ele>2165.156</ele>
        <time>2020-06-28T08:11:08Z</time>
      </trkpt>
      <trkpt lat="44.11786" lon="7.33799">
        <ele>2163.29</ele>
        <time>2020-06-28T08:11:24Z</time>
      </trkpt>
      <trkpt lat="44.11793" lon="7.33795">
        <ele>2160.451</ele>
        <time>2020-06-28T08:11:40Z</time>
      </trkpt>
      <trkpt lat="44.1181" lon="7.33787">
        <ele>2156.67</ele>
        <time>2020-06-28T08:11:56Z</time>
      </trkpt>
      <trkpt lat="44.1182" lon="7.33768">
        <ele>2155.106</ele>
        <time>2020-06-28T08:12:11Z</time>
      </trkpt>
      <trkpt lat="44.11836" lon="7.33754">
        <ele>2155.441</ele>
        <time>2020-06-28T08:12:27Z</time>
      </trkpt>
      <trkpt lat="44.11844" lon="7.33738">
        <ele>2155.423</ele>
        <time>2020-06-28T08:12:43Z</time>
      </trkpt>
      <trkpt lat="44.11851" lon="7.33729">
        <ele>2153.772</ele>
        <time>2020-06-28T08:12:59Z</time>
      </trkpt>
      <trkpt lat="44.11857" lon="7.33719">
        <ele>2155.634</ele>
        <time>2020-06-28T08:13:15Z</time>
      </trkpt>
      <trkpt lat="44.11866" lon="7.33712">
        <ele>2154.994</ele>
        <time>2020-06-28T08:13:30Z</time>
      </trkpt>
      <trkpt lat="44.11873" lon="7.33702">
        <ele>2153.396</ele>
        <time>2020-06-28T08:13:46Z</time>
      </trkpt>
      <trkpt lat="44.11874" lon="7.33691">
        <ele>2153.156</ele>
        <time>2020-06-28T08:14:01Z</time>
      </trkpt>
      <trkpt lat="44.11877" lon="7.33685">
        <ele>2150.98</ele>
        <time>2020-06-28T08:14:16Z</time>
      </trkpt>
      <trkpt lat="44.11881" lon="7.33672">
        <ele>2148.213</ele>
        <time>2020-06-28T08:14:32Z</time>
      </trkpt>
      <trkpt lat="44.11883" lon="7.33668">
        <ele>2148.14</ele>
        <time>2020-06-28T08:14:48Z</time>
      </trkpt>
      <trkpt lat="44.11882" lon="7.33659">
        <ele>2146.957</ele>
        <time>2020-06-28T08:15:04Z</time>
      </trkpt>
      <trkpt lat="44.11886" lon="7.33642">
        <ele>2147.098</ele>
        <time>2020-06-28T08:15:20Z</time>
      </trkpt>
      <trkpt lat="44.11887" lon="7.33637">
        <ele>2145.318</ele>
        <time>2020-06-28T08:15:35Z</time>
      </trkpt>
      <trkpt lat="44.11887" lon="7.33635">
        <ele>2146.389</ele>
        <time>2020-06-28T08:15:50Z</time>
      </trkpt>
      <trkpt lat="44.11885" lon="7.33631">
        <ele>2150.564</ele>
        <time>2020-06-28T08:16:06Z</time>
      </trkpt>
      <trkpt lat="44.11883" lon="7.33618">
        <ele>2148.721</ele>
        <time>2020-06-28T08:16:21Z</time>
      </trkpt>
      <trkpt lat="44.11886" lon="7.33613">
        <ele>2149.067</ele>
        <time>2020-06-28T08:16:37Z</time>
      </trkpt>
      <trkpt lat="44.11894" lon="7.33608">
        <ele>2149.941</ele>
        <time>2020-06-28T08:16:53Z</time>
      </trkpt>
      <trkpt lat="44.119" lon="7.33594">
        <ele>2143.453</ele>
        <time>2020-06-28T08:17:09Z</time>
      </trkpt>
      <trkpt lat="44.11897" lon="7.33585">
        <ele>2143.466</ele>
        <time>2020-06-28T08:17:25Z</time>
      </trkpt>
      <trkpt lat="44.11903" lon="7.33582">
        <ele>2143.976</ele>
        <time>2020-06-28T08:17:40Z</time>
      </trkpt>
      <trkpt lat="44.11907" lon="7.33572">
        <ele>2144.113</ele>
        <time>2020-06-28T08:17:55Z</time>
      </trkpt>
      <trkpt lat="44.11917" lon="7.33557">
        <ele>2140.662</ele>
        <time>2020-06-28T08:18:10Z</time>
      </trkpt>
      <trkpt lat="44.11921" lon="7.33546">
        <ele>2140.886</ele>
        <time>2020-06-28T08:18:26Z</time>
      </trkpt>
      <trkpt lat="44.11921" lon="7.33546">
        <ele>2140.886</ele>
        <time>2020-06-28T08:18:41Z</time>
      </trkpt>
      <trkpt lat="44.11921" lon="7.33546">
        <ele>2140.886</ele>
        <time>2020-06-28T08:18:57Z</time>
      </trkpt>
      <trkpt lat="44.11921" lon="7.33546">
        <ele>2140.886</ele>
        <time>2020-06-28T08:19:13Z</time>
      </trkpt>
      <trkpt lat="44.11921" lon="7.33545">
        <ele>2140.953</ele>
        <time>2020-06-28T08:19:29Z</time>
      </trkpt>
      <trkpt lat="44.11928" lon="7.33528">
        <ele>2137.417</ele>
        <time>2020-06-28T08:19:44Z</time>
      </trkpt>
      <trkpt lat="44.11932" lon="7.33529">
        <ele>2136.976</ele>
        <time>2020-06-28T08:20:00Z</time>
      </trkpt>
      <trkpt lat="44.11941" lon="7.33515">
        <ele>2136.396</ele>
        <time>2020-06-28T08:20:15Z</time>
      </trkpt>
      <trkpt lat="44.11956" lon="7.33501">
        <ele>2134.83</ele>
        <time>2020-06-28T08:20:31Z</time>
      </trkpt>
      <trkpt lat="44.11965" lon="7.3351">
        <ele>2130.215</ele>
        <time>2020-06-28T08:20:47Z</time>
      </trkpt>
      <trkpt lat="44.11972" lon="7.33514">
        <ele>2131.343</ele>
        <time>2020-06-28T08:21:02Z</time>
      </trkpt>
      <trkpt lat="44.11979" lon="7.33505">
        <ele>2132.207</ele>
        <time>2020-06-28T08:21:17Z</time>
      </trkpt>
      <trkpt lat="44.11987" lon="7.33505">
        <ele>2132.424</ele>
        <time>2020-06-28T08:21:33Z</time>
      </trkpt>
      <trkpt lat="44.12" lon="7.33507">
        <ele>2134.899</ele>
        <time>2020-06-28T08:21:49Z</time>
      </trkpt>
      <trkpt lat="44.12013" lon="7.33513">
        <ele>2131.911</ele>
        <time>2020-06-28T08:22:04Z</time>
      </trkpt>
      <trkpt lat="44.12016" lon="7.33511">
        <ele>2130.112</ele>
        <time>2020-06-28T08:22:20Z</time>
      </trkpt>
      <trkpt lat="44.12029" lon="7.3352">
        <ele>2127.062</ele>
        <time>2020-06-28T08:22:36Z</time>
      </trkpt>
      <trkpt lat="44.12042" lon="7.33519">
        <ele>2124.932</ele>
        <time>2020-06-28T08:22:51Z</time>
      </trkpt>
      <trkpt lat="44.12057" lon="7.3351">
        <ele>2124.847</ele>
        <time>2020-06-28T08:23:07Z</time>
      </trkpt>
      <trkpt lat="44.12067" lon="7.33511">
        <ele>2125.476</ele>
        <time>2020-06-28T08:23:23Z</time>
      </trkpt>
      <trkpt lat="44.12073" lon="7.33513">
        <ele>2123.336</ele>
        <time>2020-06-28T08:23:38Z</time>
      </trkpt>
      <trkpt lat="44.12085" lon="7.33513">
        <ele>2125.643</ele>
        <time>2020-06-28T08:23:53Z</time>
      </trkpt>
      <trkpt lat="44.12083" lon="7.3351">
        <ele>2126.251</ele>
        <time>2020-06-28T08:24:09Z</time>
      </trkpt>
      <trkpt lat="44.12084" lon="7.33509">
        <ele>2126.68</ele>
        <time>2020-06-28T08:24:24Z</time>
      </trkpt>
      <trkpt lat="44.12084" lon="7.33509">
        <ele>2126.68</ele>
        <time>2020-06-28T08:24:40Z</time>
      </trkpt>
      <trkpt lat="44.12084" lon="7.33509">
        <ele>2126.68</ele>
        <time>2020-06-28T08:24:56Z</time>
      </trkpt>
      <trkpt lat="44.12085" lon="7.33508">
        <ele>2126.217</ele>
        <time>2020-06-28T08:25:11Z</time>
      </trkpt>
      <trkpt lat="44.12092" lon="7.33506">
        <ele>2127.077</ele>
        <time>2020-06-28T08:25:26Z</time>
      </trkpt>
      <trkpt lat="44.12113" lon="7.33512">
        <ele>2121.835</ele>
        <time>2020-06-28T08:25:41Z</time>
      </trkpt>
      <trkpt lat="44.12128" lon="7.33507">
        <ele>2119.739</ele>
        <time>2020-06-28T08:25:56Z</time>
      </trkpt>
      <trkpt lat="44.12144" lon="7.33509">
        <ele>2118.625</ele>
        <time>2020-06-28T08:26:12Z</time>
      </trkpt>
      <trkpt lat="44.12154" lon="7.33511">
        <ele>2115.985</ele>
        <time>2020-06-28T08:26:27Z</time>
      </trkpt>
      <trkpt lat="44.1217" lon="7.33518">
        <ele>2112.305</ele>
        <time>2020-06-28T08:26:43Z</time>
      </trkpt>
      <trkpt lat="44.12181" lon="7.33511">
        <ele>2115.693</ele>
        <time>2020-06-28T08:26:58Z</time>
      </trkpt>
      <trkpt lat="44.12191" lon="7.33521">
        <ele>2112.133</ele>
        <time>2020-06-28T08:27:14Z</time>
      </trkpt>
      <trkpt lat="44.12192" lon="7.33516">
        <ele>2111.598</ele>
        <time>2020-06-28T08:27:30Z</time>
      </trkpt>
      <trkpt lat="44.12192" lon="7.33516">
        <ele>2111.598</ele>
        <time>2020-06-28T08:27:45Z</time>
      </trkpt>
      <trkpt lat="44.12192" lon="7.33516">
        <ele>2111.598</ele>
        <time>2020-06-28T08:28:01Z</time>
      </trkpt>
      <trkpt lat="44.12209" lon="7.33506">
        <ele>2111.993</ele>
        <time>2020-06-28T08:28:16Z</time>
      </trkpt>
      <trkpt lat="44.12229" lon="7.33499">
        <ele>2111.602</ele>
        <time>2020-06-28T08:28:31Z</time>
      </trkpt>
      <trkpt lat="44.12235" lon="7.33499">
        <ele>2111.242</ele>
        <time>2020-06-28T08:28:47Z</time>
      </trkpt>
      <trkpt lat="44.12237" lon="7.33501">
        <ele>2111.861</ele>
        <time>2020-06-28T08:29:02Z</time>
      </trkpt>
      <trkpt lat="44.12238" lon="7.33501">
        <ele>2111.847</ele>
        <time>2020-06-28T08:29:17Z</time>
      </trkpt>
      <trkpt lat="44.12249" lon="7.3349">
        <ele>2112.678</ele>
        <time>2020-06-28T08:29:32Z</time>
      </trkpt>
      <trkpt lat="44.1226" lon="7.33493">
        <ele>2112.55</ele>
        <time>2020-06-28T08:29:48Z</time>
      </trkpt>
      <trkpt lat="44.1226" lon="7.33493">
        <ele>2112.55</ele>
        <time>2020-06-28T08:30:03Z</time>
      </trkpt>
      <trkpt lat="44.12268" lon="7.33494">
        <ele>2109.585</ele>
        <time>2020-06-28T08:30:18Z</time>
      </trkpt>
      <trkpt lat="44.12276" lon="7.33487">
        <ele>2109.871</ele>
        <time>2020-06-28T08:30:34Z</time>
      </trkpt>
      <trkpt lat="44.12288" lon="7.33484">
        <ele>2110.286</ele>
        <time>2020-06-28T08:30:50Z</time>
      </trkpt>
      <trkpt lat="44.12299" lon="7.33483">
        <ele>2111.597</ele>
        <time>2020-06-28T08:31:06Z</time>
      </trkpt>
      <trkpt lat="44.12308" lon="7.33489">
        <ele>2112.74</ele>
        <time>2020-06-28T08:31:22Z</time>
      </trkpt>
      <trkpt lat="44.1232" lon="7.33499">
        <ele>2119.07</ele>
        <time>2020-06-28T08:31:38Z</time>
      </trkpt>
      <trkpt lat="44.12328" lon="7.33497">
        <ele>2119.463</ele>
        <time>2020-06-28T08:31:53Z</time>
      </trkpt>
      <trkpt lat="44.12332" lon="7.33495">
        <ele>2123.178</ele>
        <time>2020-06-28T08:32:09Z</time>
      </trkpt>
      <trkpt lat="44.12346" lon="7.33504">
        <ele>2121.872</ele>
        <time>2020-06-28T08:32:25Z</time>
      </trkpt>
      <trkpt lat="44.12356" lon="7.33505">
        <ele>2125.407</ele>
        <time>2020-06-28T08:32:40Z</time>
      </trkpt>
      <trkpt lat="44.12371" lon="7.33518">
        <ele>2126.962</ele>
        <time>2020-06-28T08:32:55Z</time>
      </trkpt>
      <trkpt lat="44.1238" lon="7.33516">
        <ele>2130.045</ele>
        <time>2020-06-28T08:33:10Z</time>
      </trkpt>
      <trkpt lat="44.12383" lon="7.33519">
        <ele>2131.111</ele>
        <time>2020-06-28T08:33:26Z</time>
      </trkpt>
      <trkpt lat="44.12391" lon="7.33523">
        <ele>2131.019</ele>
        <time>2020-06-28T08:33:41Z</time>
      </trkpt>
      <trkpt lat="44.12394" lon="7.33523">
        <ele>2132.676</ele>
        <time>2020-06-28T08:33:57Z</time>
      </trkpt>
      <trkpt lat="44.12398" lon="7.33519">
        <ele>2134.384</ele>
        <time>2020-06-28T08:34:13Z</time>
      </trkpt>
      <trkpt lat="44.12413" lon="7.33513">
        <ele>2135.689</ele>
        <time>2020-06-28T08:34:28Z</time>
      </trkpt>
      <trkpt lat="44.12428" lon="7.33508">
        <ele>2133.494</ele>
        <time>2020-06-28T08:34:44Z</time>
      </trkpt>
      <trkpt lat="44.12436" lon="7.33501">
        <ele>2133.278</ele>
        <time>2020-06-28T08:34:59Z</time>
      </trkpt>
      <trkpt lat="44.12448" lon="7.33494">
        <ele>2132.192</ele>
        <time>2020-06-28T08:35:14Z</time>
      </trkpt>
      <trkpt lat="44.12455" lon="7.33489">
        <ele>2134.258</ele>
        <time>2020-06-28T08:35:30Z</time>
      </trkpt>
      <trkpt lat="44.12467" lon="7.33487">
        <ele>2131.364</ele>
        <time>2020-06-28T08:35:46Z</time>
      </trkpt>
      <trkpt lat="44.12477" lon="7.3348">
        <ele>2136.034</ele>
        <time>2020-06-28T08:36:02Z</time>
      </trkpt>
      <trkpt lat="44.1249" lon="7.33477">
        <ele>2139.332</ele>
        <time>2020-06-28T08:36:17Z</time>
      </trkpt>
      <trkpt lat="44.12497" lon="7.33477">
        <ele>2137.57</ele>
        <time>2020-06-28T08:36:33Z</time>
      </trkpt>
      <trkpt lat="44.12509" lon="7.33469">
        <ele>2135.239</ele>
        <time>2020-06-28T08:36:49Z</time>
      </trkpt>
      <trkpt lat="44.12519" lon="7.33461">
        <ele>2137.979</ele>
        <time>2020-06-28T08:37:05Z</time>
      </trkpt>
      <trkpt lat="44.12531" lon="7.33451">
        <ele>2138.453</ele>
        <time>2020-06-28T08:37:21Z</time>
      </trkpt>
      <trkpt lat="44.12535" lon="7.33449">
        <ele>2139.588</ele>
        <time>2020-06-28T08:37:37Z</time>
      </trkpt>
      <trkpt lat="44.12547" lon="7.33442">
        <ele>2140.042</ele>
        <time>2020-06-28T08:37:52Z</time>
      </trkpt>
      <trkpt lat="44.12552" lon="7.33434">
        <ele>2142.49</ele>
        <time>2020-06-28T08:38:07Z</time>
      </trkpt>
      <trkpt lat="44.12553" lon="7.33419">
        <ele>2142.507</ele>
        <time>2020-06-28T08:38:23Z</time>
      </trkpt>
      <trkpt lat="44.12566" lon="7.33411">
        <ele>2142.188</ele>
        <time>2020-06-28T08:38:39Z</time>
      </trkpt>
      <trkpt lat="44.12569" lon="7.33393">
        <ele>2145.263</ele>
        <time>2020-06-28T08:38:54Z</time>
      </trkpt>
      <trkpt lat="44.1257" lon="7.33388">
        <ele>2145.185</ele>
        <time>2020-06-28T08:39:10Z</time>
      </trkpt>
      <trkpt lat="44.12568" lon="7.33368">
        <ele>2144.478</ele>
        <time>2020-06-28T08:39:26Z</time>
      </trkpt>
      <trkpt lat="44.12565" lon="7.33349">
        <ele>2147.742</ele>
        <time>2020-06-28T08:39:42Z</time>
      </trkpt>
      <trkpt lat="44.12566" lon="7.33327">
        <ele>2151.193</ele>
        <time>2020-06-28T08:39:58Z</time>
      </trkpt>
      <trkpt lat="44.12569" lon="7.33302">
        <ele>2150.689</ele>
        <time>2020-06-28T08:40:14Z</time>
      </trkpt>
      <trkpt lat="44.12582" lon="7.33294">
        <ele>2148.658</ele>
        <time>2020-06-28T08:40:30Z</time>
      </trkpt>
      <trkpt lat="44.12585" lon="7.33283">
        <ele>2147.585</ele>
        <time>2020-06-28T08:40:45Z</time>
      </trkpt>
      <trkpt lat="44.12585" lon="7.33272">
        <ele>2147.204</ele>
        <time>2020-06-28T08:41:00Z</time>
      </trkpt>
      <trkpt lat="44.12585" lon="7.33258">
        <ele>2147.744</ele>
        <time>2020-06-28T08:41:16Z</time>
      </trkpt>
      <trkpt lat="44.12587" lon="7.33249">
        <ele>2147.257</ele>
        <time>2020-06-28T08:41:32Z</time>
      </trkpt>
      <trkpt lat="44.12588" lon="7.33248">
        <ele>2147.472</ele>
        <time>2020-06-28T08:41:48Z</time>
      </trkpt>
      <trkpt lat="44.12588" lon="7.33247">
        <ele>2147.348</ele>
        <time>2020-06-28T08:42:03Z</time>
      </trkpt>
      <trkpt lat="44.12595" lon="7.33235">
        <ele>2149.746</ele>
        <time>2020-06-28T08:42:18Z</time>
      </trkpt>
      <trkpt lat="44.12595" lon="7.33235">
        <ele>2149.746</ele>
        <time>2020-06-28T08:42:33Z</time>
      </trkpt>
      <trkpt lat="44.12598" lon="7.33232">
        <ele>2149.29</ele>
        <time>2020-06-28T08:42:49Z</time>
      </trkpt>
      <trkpt lat="44.12602" lon="7.33231">
        <ele>2153.384</ele>
        <time>2020-06-28T08:43:04Z</time>
      </trkpt>
      <trkpt lat="44.12603" lon="7.33229">
        <ele>2153.463</ele>
        <time>2020-06-28T08:43:20Z</time>
      </trkpt>
      <trkpt lat="44.12604" lon="7.33229">
        <ele>2152.534</ele>
        <time>2020-06-28T08:43:35Z</time>
      </trkpt>
      <trkpt lat="44.12602" lon="7.33225">
        <ele>2153.718</ele>
        <time>2020-06-28T08:43:50Z</time>
      </trkpt>
      <trkpt lat="44.12613" lon="7.33218">
        <ele>2151.987</ele>
        <time>2020-06-28T08:44:06Z</time>
      </trkpt>
      <trkpt lat="44.1262" lon="7.33214">
        <ele>2152.671</ele>
        <time>2020-06-28T08:44:21Z</time>
      </trkpt>
      <trkpt lat="44.12621" lon="7.33209">
        <ele>2154.967</ele>
        <time>2020-06-28T08:44:36Z</time>
      </trkpt>
      <trkpt lat="44.12621" lon="7.33209">
        <ele>2154.967</ele>
        <time>2020-06-28T08:44:52Z</time>
      </trkpt>
      <trkpt lat="44.1263" lon="7.33213">
        <ele>2156.101</ele>
        <time>2020-06-28T08:45:08Z</time>
      </trkpt>
      <trkpt lat="44.12633" lon="7.33206">
        <ele>2159.455</ele>
        <time>2020-06-28T08:45:24Z</time>
      </trkpt>
      <trkpt lat="44.12633" lon="7.33204">
        <ele>2158.94</ele>
        <time>2020-06-28T08:45:40Z</time>
      </trkpt>
      <trkpt lat="44.12645" lon="7.33198">
        <ele>2156.691</ele>
        <time>2020-06-28T08:45:55Z</time>
      </trkpt>
      <trkpt lat="44.12645" lon="7.33174">
        <ele>2154.222</ele>
        <time>2020-06-28T08:46:10Z</time>
      </trkpt>
      <trkpt lat="44.1264" lon="7.3316">
        <ele>2147.335</ele>
        <time>2020-06-28T08:46:26Z</time>
      </trkpt>
      <trkpt lat="44.12633" lon="7.33144">
        <ele>2152.129</ele>
        <time>2020-06-28T08:46:41Z</time>
      </trkpt>
      <trkpt lat="44.12624" lon="7.33123">
        <ele>2157.661</ele>
        <time>2020-06-28T08:46:57Z</time>
      </trkpt>
      <trkpt lat="44.1262" lon="7.33112">
        <ele>2155.468</ele>
        <time>2020-06-28T08:47:12Z</time>
      </trkpt>
      <trkpt lat="44.12621" lon="7.33097">
        <ele>2151.791</ele>
        <time>2020-06-28T08:47:28Z</time>
      </trkpt>
      <trkpt lat="44.1263" lon="7.33084">
        <ele>2152.85</ele>
        <time>2020-06-28T08:47:44Z</time>
      </trkpt>
      <trkpt lat="44.12624" lon="7.33087">
        <ele>2154.115</ele>
        <time>2020-06-28T08:47:59Z</time>
      </trkpt>
      <trkpt lat="44.12624" lon="7.33088">
        <ele>2154.134</ele>
        <time>2020-06-28T08:48:14Z</time>
      </trkpt>
      <trkpt lat="44.12624" lon="7.33088">
        <ele>2154.134</ele>
        <time>2020-06-28T08:48:30Z</time>
      </trkpt>
      <trkpt lat="44.12624" lon="7.33088">
        <ele>2154.134</ele>
        <time>2020-06-28T08:48:46Z</time>
      </trkpt>
      <trkpt lat="44.12624" lon="7.33088">
        <ele>2154.134</ele>
        <time>2020-06-28T08:49:01Z</time>
      </trkpt>
      <trkpt lat="44.12624" lon="7.33088">
        <ele>2154.134</ele>
        <time>2020-06-28T08:49:17Z</time>
      </trkpt>
      <trkpt lat="44.12624" lon="7.33088">
        <ele>2154.134</ele>
        <time>2020-06-28T08:49:32Z</time>
      </trkpt>
      <trkpt lat="44.12624" lon="7.33088">
        <ele>2154.134</ele>
        <time>2020-06-28T08:49:47Z</time>
      </trkpt>
      <trkpt lat="44.12624" lon="7.33088">
        <ele>2154.134</ele>
        <time>2020-06-28T08:50:03Z</time>
      </trkpt>
      <trkpt lat="44.12624" lon="7.33088">
        <ele>2154.134</ele>
        <time>2020-06-28T08:50:19Z</time>
      </trkpt>
      <trkpt lat="44.12626" lon="7.33085">
        <ele>2153.218</ele>
        <time>2020-06-28T08:50:34Z</time>
      </trkpt>
      <trkpt lat="44.12627" lon="7.33082">
        <ele>2155.233</ele>
        <time>2020-06-28T08:50:50Z</time>
      </trkpt>
      <trkpt lat="44.12627" lon="7.33082">
        <ele>2155.233</ele>
        <time>2020-06-28T08:51:06Z</time>
      </trkpt>
      <trkpt lat="44.12627" lon="7.33082">
        <ele>2155.233</ele>
        <time>2020-06-28T08:51:22Z</time>
      </trkpt>
      <trkpt lat="44.12627" lon="7.33082">
        <ele>2155.233</ele>
        <time>2020-06-28T08:51:38Z</time>
      </trkpt>
      <trkpt lat="44.12627" lon="7.33082">
        <ele>2155.233</ele>
        <time>2020-06-28T08:51:53Z</time>
      </trkpt>
      <trkpt lat="44.12627" lon="7.33082">
        <ele>2155.233</ele>
        <time>2020-06-28T08:52:09Z</time>
      </trkpt>
      <trkpt lat="44.12627" lon="7.33082">
        <ele>2155.233</ele>
        <time>2020-06-28T08:52:24Z</time>
      </trkpt>
      <trkpt lat="44.12627" lon="7.33082">
        <ele>2155.233</ele>
        <time>2020-06-28T08:52:40Z</time>
      </trkpt>
      <trkpt lat="44.12627" lon="7.33082">
        <ele>2155.233</ele>
        <time>2020-06-28T08:52:56Z</time>
      </trkpt>
      <trkpt lat="44.12627" lon="7.33082">
        <ele>2155.233</ele>
        <time>2020-06-28T08:53:12Z</time>
      </trkpt>
      <trkpt lat="44.12627" lon="7.33084">
        <ele>2154.971</ele>
        <time>2020-06-28T08:53:28Z</time>
      </trkpt>
      <trkpt lat="44.12626" lon="7.33083">
        <ele>2154.482</ele>
        <time>2020-06-28T08:53:43Z</time>
      </trkpt>
      <trkpt lat="44.12626" lon="7.33083">
        <ele>2154.482</ele>
        <time>2020-06-28T08:53:58Z</time>
      </trkpt>
      <trkpt lat="44.12625" lon="7.33085">
        <ele>2155.756</ele>
        <time>2020-06-28T08:54:14Z</time>
      </trkpt>
      <trkpt lat="44.12625" lon="7.33085">
        <ele>2155.756</ele>
        <time>2020-06-28T08:54:29Z</time>
      </trkpt>
      <trkpt lat="44.12625" lon="7.33089">
        <ele>2159.302</ele>
        <time>2020-06-28T08:54:44Z</time>
      </trkpt>
      <trkpt lat="44.12624" lon="7.33086">
        <ele>2163.439</ele>
        <time>2020-06-28T08:55:00Z</time>
      </trkpt>
      <trkpt lat="44.12624" lon="7.33086">
        <ele>2163.439</ele>
        <time>2020-06-28T08:55:16Z</time>
      </trkpt>
      <trkpt lat="44.12624" lon="7.33086">
        <ele>2163.439</ele>
        <time>2020-06-28T08:55:31Z</time>
      </trkpt>
      <trkpt lat="44.12624" lon="7.33086">
        <ele>2163.439</ele>
        <time>2020-06-28T08:55:47Z</time>
      </trkpt>
      <trkpt lat="44.12622" lon="7.33086">
        <ele>2165.572</ele>
        <time>2020-06-28T08:56:03Z</time>
      </trkpt>
      <trkpt lat="44.12622" lon="7.33086">
        <ele>2165.572</ele>
        <time>2020-06-28T08:56:19Z</time>
      </trkpt>
      <trkpt lat="44.12622" lon="7.33086">
        <ele>2165.572</ele>
        <time>2020-06-28T08:56:35Z</time>
      </trkpt>
      <trkpt lat="44.12622" lon="7.33086">
        <ele>2165.572</ele>
        <time>2020-06-28T08:56:51Z</time>
      </trkpt>
      <trkpt lat="44.12622" lon="7.33086">
        <ele>2165.572</ele>
        <time>2020-06-28T08:57:07Z</time>
      </trkpt>
      <trkpt lat="44.12622" lon="7.33086">
        <ele>2165.572</ele>
        <time>2020-06-28T08:57:22Z</time>
      </trkpt>
      <trkpt lat="44.12622" lon="7.33086">
        <ele>2165.572</ele>
        <time>2020-06-28T08:57:37Z</time>
      </trkpt>
      <trkpt lat="44.12622" lon="7.33086">
        <ele>2165.572</ele>
        <time>2020-06-28T08:57:52Z</time>
      </trkpt>
      <trkpt lat="44.12622" lon="7.33086">
        <ele>2165.572</ele>
        <time>2020-06-28T08:58:07Z</time>
      </trkpt>
      <trkpt lat="44.12623" lon="7.33086">
        <ele>2164.329</ele>
        <time>2020-06-28T08:58:23Z</time>
      </trkpt>
      <trkpt lat="44.12623" lon="7.33086">
        <ele>2164.329</ele>
        <time>2020-06-28T08:58:39Z</time>
      </trkpt>
      <trkpt lat="44.12626" lon="7.33087">
        <ele>2162.027</ele>
        <time>2020-06-28T08:58:54Z</time>
      </trkpt>
      <trkpt lat="44.12626" lon="7.33087">
        <ele>2162.027</ele>
        <time>2020-06-28T08:59:09Z</time>
      </trkpt>
      <trkpt lat="44.12626" lon="7.33087">
        <ele>2162.027</ele>
        <time>2020-06-28T08:59:25Z</time>
      </trkpt>
      <trkpt lat="44.12626" lon="7.33087">
        <ele>2162.027</ele>
        <time>2020-06-28T08:59:40Z</time>
      </trkpt>
      <trkpt lat="44.12626" lon="7.33087">
        <ele>2162.027</ele>
        <time>2020-06-28T08:59:55Z</time>
      </trkpt>
      <trkpt lat="44.12626" lon="7.33087">
        <ele>2162.027</ele>
        <time>2020-06-28T09:00:11Z</time>
      </trkpt>
      <trkpt lat="44.12626" lon="7.33087">
        <ele>2162.027</ele>
        <time>2020-06-28T09:00:26Z</time>
      </trkpt>
      <trkpt lat="44.12626" lon="7.33084">
        <ele>2162.354</ele>
        <time>2020-06-28T09:00:42Z</time>
      </trkpt>
      <trkpt lat="44.12626" lon="7.33084">
        <ele>2162.354</ele>
        <time>2020-06-28T09:00:58Z</time>
      </trkpt>
      <trkpt lat="44.12627" lon="7.33083">
        <ele>2160.981</ele>
        <time>2020-06-28T09:01:14Z</time>
      </trkpt>
      <trkpt lat="44.12627" lon="7.33083">
        <ele>2160.981</ele>
        <time>2020-06-28T09:01:30Z</time>
      </trkpt>
      <trkpt lat="44.12627" lon="7.33083">
        <ele>2160.981</ele>
        <time>2020-06-28T09:01:45Z</time>
      </trkpt>
      <trkpt lat="44.12627" lon="7.33083">
        <ele>2160.981</ele>
        <time>2020-06-28T09:02:00Z</time>
      </trkpt>
      <trkpt lat="44.12627" lon="7.33083">
        <ele>2161.095</ele>
        <time>2020-06-28T09:02:16Z</time>
      </trkpt>
      <trkpt lat="44.12627" lon="7.33083">
        <ele>2161.095</ele>
        <time>2020-06-28T09:02:31Z</time>
      </trkpt>
      <trkpt lat="44.12627" lon="7.33083">
        <ele>2161.095</ele>
        <time>2020-06-28T09:02:47Z</time>
      </trkpt>
      <trkpt lat="44.12627" lon="7.33083">
        <ele>2161.095</ele>
        <time>2020-06-28T09:03:02Z</time>
      </trkpt>
      <trkpt lat="44.12627" lon="7.33083">
        <ele>2161.095</ele>
        <time>2020-06-28T09:03:18Z</time>
      </trkpt>
      <trkpt lat="44.12627" lon="7.33083">
        <ele>2161.095</ele>
        <time>2020-06-28T09:03:34Z</time>
      </trkpt>
      <trkpt lat="44.12627" lon="7.33083">
        <ele>2161.095</ele>
        <time>2020-06-28T09:03:50Z</time>
      </trkpt>
      <trkpt lat="44.12627" lon="7.33083">
        <ele>2161.095</ele>
        <time>2020-06-28T09:04:05Z</time>
      </trkpt>
      <trkpt lat="44.12627" lon="7.33083">
        <ele>2161.095</ele>
        <time>2020-06-28T09:04:20Z</time>
      </trkpt>
      <trkpt lat="44.12627" lon="7.33083">
        <ele>2160.967</ele>
        <time>2020-06-28T09:04:36Z</time>
      </trkpt>
      <trkpt lat="44.12627" lon="7.33082">
        <ele>2159.696</ele>
        <time>2020-06-28T09:04:51Z</time>
      </trkpt>
      <trkpt lat="44.12633" lon="7.33082">
        <ele>2157.484</ele>
        <time>2020-06-28T09:05:06Z</time>
      </trkpt>
      <trkpt lat="44.12633" lon="7.33082">
        <ele>2157.484</ele>
        <time>2020-06-28T09:05:22Z</time>
      </trkpt>
      <trkpt lat="44.12632" lon="7.33083">
        <ele>2159.517</ele>
        <time>2020-06-28T09:05:38Z</time>
      </trkpt>
      <trkpt lat="44.12632" lon="7.33083">
        <ele>2159.517</ele>
        <time>2020-06-28T09:05:54Z</time>
      </trkpt>
      <trkpt lat="44.12628" lon="7.33085">
        <ele>2160.5</ele>
        <time>2020-06-28T09:06:09Z</time>
      </trkpt>
      <trkpt lat="44.12626" lon="7.33086">
        <ele>2161.869</ele>
        <time>2020-06-28T09:06:24Z</time>
      </trkpt>
      <trkpt lat="44.12626" lon="7.33086">
        <ele>2161.869</ele>
        <time>2020-06-28T09:06:40Z</time>
      </trkpt>
      <trkpt lat="44.12626" lon="7.33086">
        <ele>2161.869</ele>
        <time>2020-06-28T09:06:55Z</time>
      </trkpt>
      <trkpt lat="44.12626" lon="7.33086">
        <ele>2161.869</ele>
        <time>2020-06-28T09:07:11Z</time>
      </trkpt>
      <trkpt lat="44.12628" lon="7.33084">
        <ele>2162.277</ele>
        <time>2020-06-28T09:07:27Z</time>
      </trkpt>
      <trkpt lat="44.12627" lon="7.33085">
        <ele>2162.567</ele>
        <time>2020-06-28T09:07:43Z</time>
      </trkpt>
      <trkpt lat="44.12627" lon="7.33085">
        <ele>2162.567</ele>
        <time>2020-06-28T09:07:59Z</time>
      </trkpt>
      <trkpt lat="44.12627" lon="7.33085">
        <ele>2162.567</ele>
        <time>2020-06-28T09:08:15Z</time>
      </trkpt>
      <trkpt lat="44.12627" lon="7.33085">
        <ele>2162.567</ele>
        <time>2020-06-28T09:08:30Z</time>
      </trkpt>
      <trkpt lat="44.12627" lon="7.33085">
        <ele>2162.567</ele>
        <time>2020-06-28T09:08:45Z</time>
      </trkpt>
      <trkpt lat="44.12625" lon="7.33086">
        <ele>2164.608</ele>
        <time>2020-06-28T09:09:01Z</time>
      </trkpt>
      <trkpt lat="44.12624" lon="7.33084">
        <ele>2165.27</ele>
        <time>2020-06-28T09:09:16Z</time>
      </trkpt>
      <trkpt lat="44.12624" lon="7.33084">
        <ele>2165.27</ele>
        <time>2020-06-28T09:09:31Z</time>
      </trkpt>
      <trkpt lat="44.12624" lon="7.33084">
        <ele>2165.27</ele>
        <time>2020-06-28T09:09:47Z</time>
      </trkpt>
      <trkpt lat="44.12624" lon="7.33084">
        <ele>2165.27</ele>
        <time>2020-06-28T09:10:02Z</time>
      </trkpt>
      <trkpt lat="44.12624" lon="7.33084">
        <ele>2165.27</ele>
        <time>2020-06-28T09:10:18Z</time>
      </trkpt>
      <trkpt lat="44.12624" lon="7.33084">
        <ele>2165.27</ele>
        <time>2020-06-28T09:10:34Z</time>
      </trkpt>
      <trkpt lat="44.12624" lon="7.33084">
        <ele>2165.27</ele>
        <time>2020-06-28T09:10:49Z</time>
      </trkpt>
      <trkpt lat="44.12624" lon="7.33084">
        <ele>2165.27</ele>
        <time>2020-06-28T09:11:05Z</time>
      </trkpt>
      <trkpt lat="44.12624" lon="7.33084">
        <ele>2165.27</ele>
        <time>2020-06-28T09:11:21Z</time>
      </trkpt>
      <trkpt lat="44.12624" lon="7.33084">
        <ele>2165.27</ele>
        <time>2020-06-28T09:11:36Z</time>
      </trkpt>
      <trkpt lat="44.12624" lon="7.33084">
        <ele>2165.27</ele>
        <time>2020-06-28T09:11:51Z</time>
      </trkpt>
      <trkpt lat="44.12624" lon="7.33083">
        <ele>2164.052</ele>
        <time>2020-06-28T09:12:06Z</time>
      </trkpt>
      <trkpt lat="44.12625" lon="7.33079">
        <ele>2163.696</ele>
        <time>2020-06-28T09:12:21Z</time>
      </trkpt>
      <trkpt lat="44.12621" lon="7.33072">
        <ele>2164.815</ele>
        <time>2020-06-28T09:12:37Z</time>
      </trkpt>
      <trkpt lat="44.1262" lon="7.33073">
        <ele>2164.489</ele>
        <time>2020-06-28T09:12:53Z</time>
      </trkpt>
      <trkpt lat="44.12625" lon="7.33075">
        <ele>2165.447</ele>
        <time>2020-06-28T09:13:09Z</time>
      </trkpt>
      <trkpt lat="44.1261" lon="7.33099">
        <ele>2166.568</ele>
        <time>2020-06-28T09:13:25Z</time>
      </trkpt>
      <trkpt lat="44.12617" lon="7.33085">
        <ele>2169.329</ele>
        <time>2020-06-28T09:13:41Z</time>
      </trkpt>
      <trkpt lat="44.12617" lon="7.33085">
        <ele>2169.329</ele>
        <time>2020-06-28T09:13:57Z</time>
      </trkpt>
      <trkpt lat="44.12615" lon="7.33088">
        <ele>2175.792</ele>
        <time>2020-06-28T09:14:12Z</time>
      </trkpt>
      <trkpt lat="44.12615" lon="7.33088">
        <ele>2175.792</ele>
        <time>2020-06-28T09:14:28Z</time>
      </trkpt>
      <trkpt lat="44.12615" lon="7.33088">
        <ele>2175.792</ele>
        <time>2020-06-28T09:14:44Z</time>
      </trkpt>
      <trkpt lat="44.12615" lon="7.33088">
        <ele>2175.792</ele>
        <time>2020-06-28T09:14:59Z</time>
      </trkpt>
      <trkpt lat="44.12616" lon="7.33093">
        <ele>2174.737</ele>
        <time>2020-06-28T09:15:14Z</time>
      </trkpt>
      <trkpt lat="44.12623" lon="7.33107">
        <ele>2176.774</ele>
        <time>2020-06-28T09:15:29Z</time>
      </trkpt>
      <trkpt lat="44.12625" lon="7.33088">
        <ele>2174.28</ele>
        <time>2020-06-28T09:15:45Z</time>
      </trkpt>
      <trkpt lat="44.12618" lon="7.33089">
        <ele>2173.993</ele>
        <time>2020-06-28T09:16:01Z</time>
      </trkpt>
      <trkpt lat="44.12618" lon="7.33084">
        <ele>2170.867</ele>
        <time>2020-06-28T09:16:17Z</time>
      </trkpt>
      <trkpt lat="44.12618" lon="7.33085">
        <ele>2169.758</ele>
        <time>2020-06-28T09:16:33Z</time>
      </trkpt>
      <trkpt lat="44.12617" lon="7.33084">
        <ele>2171.532</ele>
        <time>2020-06-28T09:16:48Z</time>
      </trkpt>
      <trkpt lat="44.1262" lon="7.33053">
        <ele>2169.043</ele>
        <time>2020-06-28T09:17:04Z</time>
      </trkpt>
      <trkpt lat="44.1262" lon="7.33058">
        <ele>2170.215</ele>
        <time>2020-06-28T09:17:20Z</time>
      </trkpt>
      <trkpt lat="44.12622" lon="7.33083">
        <ele>2176.131</ele>
        <time>2020-06-28T09:17:35Z</time>
      </trkpt>
      <trkpt lat="44.12622" lon="7.3309">
        <ele>2176.125</ele>
        <time>2020-06-28T09:17:51Z</time>
      </trkpt>
      <trkpt lat="44.12617" lon="7.33081">
        <ele>2177.754</ele>
        <time>2020-06-28T09:18:07Z</time>
      </trkpt>
      <trkpt lat="44.1263" lon="7.33066">
        <ele>2172.808</ele>
        <time>2020-06-28T09:18:22Z</time>
      </trkpt>
      <trkpt lat="44.12622" lon="7.33078">
        <ele>2171.78</ele>
        <time>2020-06-28T09:18:38Z</time>
      </trkpt>
      <trkpt lat="44.12602" lon="7.33091">
        <ele>2167.951</ele>
        <time>2020-06-28T09:18:54Z</time>
      </trkpt>
      <trkpt lat="44.1261" lon="7.33101">
        <ele>2173.086</ele>
        <time>2020-06-28T09:19:10Z</time>
      </trkpt>
      <trkpt lat="44.12618" lon="7.33101">
        <ele>2174.122</ele>
        <time>2020-06-28T09:19:26Z</time>
      </trkpt>
      <trkpt lat="44.12626" lon="7.33106">
        <ele>2172.649</ele>
        <time>2020-06-28T09:19:41Z</time>
      </trkpt>
      <trkpt lat="44.12626" lon="7.33103">
        <ele>2174.285</ele>
        <time>2020-06-28T09:19:57Z</time>
      </trkpt>
      <trkpt lat="44.12627" lon="7.33107">
        <ele>2178.632</ele>
        <time>2020-06-28T09:20:13Z</time>
      </trkpt>
      <trkpt lat="44.12626" lon="7.33107">
        <ele>2179.524</ele>
        <time>2020-06-28T09:20:28Z</time>
      </trkpt>
      <trkpt lat="44.12624" lon="7.3311">
        <ele>2180.487</ele>
        <time>2020-06-28T09:20:43Z</time>
      </trkpt>
      <trkpt lat="44.12625" lon="7.33105">
        <ele>2183.511</ele>
        <time>2020-06-28T09:20:59Z</time>
      </trkpt>
      <trkpt lat="44.12626" lon="7.33102">
        <ele>2183.735</ele>
        <time>2020-06-28T09:21:15Z</time>
      </trkpt>
      <trkpt lat="44.12626" lon="7.33099">
        <ele>2179.657</ele>
        <time>2020-06-28T09:21:31Z</time>
      </trkpt>
      <trkpt lat="44.12644" lon="7.33084">
        <ele>2175.7</ele>
        <time>2020-06-28T09:21:47Z</time>
      </trkpt>
      <trkpt lat="44.12636" lon="7.33067">
        <ele>2171.063</ele>
        <time>2020-06-28T09:22:02Z</time>
      </trkpt>
      <trkpt lat="44.12625" lon="7.33067">
        <ele>2168.509</ele>
        <time>2020-06-28T09:22:18Z</time>
      </trkpt>
      <trkpt lat="44.12623" lon="7.33081">
        <ele>2170.366</ele>
        <time>2020-06-28T09:22:34Z</time>
      </trkpt>
      <trkpt lat="44.12622" lon="7.33082">
        <ele>2170.777</ele>
        <time>2020-06-28T09:22:49Z</time>
      </trkpt>
      <trkpt lat="44.1262" lon="7.33082">
        <ele>2170.595</ele>
        <time>2020-06-28T09:23:04Z</time>
      </trkpt>
      <trkpt lat="44.12619" lon="7.33077">
        <ele>2169.092</ele>
        <time>2020-06-28T09:23:20Z</time>
      </trkpt>
      <trkpt lat="44.12617" lon="7.33079">
        <ele>2169.688</ele>
        <time>2020-06-28T09:23:35Z</time>
      </trkpt>
      <trkpt lat="44.12612" lon="7.33085">
        <ele>2166.391</ele>
        <time>2020-06-28T09:23:51Z</time>
      </trkpt>
      <trkpt lat="44.12612" lon="7.33085">
        <ele>2166.391</ele>
        <time>2020-06-28T09:24:07Z</time>
      </trkpt>
      <trkpt lat="44.12612" lon="7.33085">
        <ele>2166.391</ele>
        <time>2020-06-28T09:24:23Z</time>
      </trkpt>
      <trkpt lat="44.12613" lon="7.33085">
        <ele>2168.013</ele>
        <time>2020-06-28T09:24:39Z</time>
      </trkpt>
      <trkpt lat="44.12634" lon="7.33092">
        <ele>2168.213</ele>
        <time>2020-06-28T09:24:55Z</time>
      </trkpt>
      <trkpt lat="44.12632" lon="7.33085">
        <ele>2168.111</ele>
        <time>2020-06-28T09:25:11Z</time>
      </trkpt>
      <trkpt lat="44.12634" lon="7.33084">
        <ele>2168.11</ele>
        <time>2020-06-28T09:25:27Z</time>
      </trkpt>
      <trkpt lat="44.12678" lon="7.33079">
        <ele>2168.612</ele>
        <time>2020-06-28T09:25:42Z</time>
      </trkpt>
      <trkpt lat="44.1266" lon="7.33112">
        <ele>2168.649</ele>
        <time>2020-06-28T09:28:08Z</time>
      </trkpt>
      <trkpt lat="44.12628" lon="7.33046">
        <ele>2176.163</ele>
        <time>2020-06-28T09:28:24Z</time>
      </trkpt>
      <trkpt lat="44.1263" lon="7.33049">
        <ele>2182.186</ele>
        <time>2020-06-28T09:28:40Z</time>
      </trkpt>
      <trkpt lat="44.12644" lon="7.33062">
        <ele>2170.235</ele>
        <time>2020-06-28T09:28:56Z</time>
      </trkpt>
      <trkpt lat="44.12659" lon="7.33066">
        <ele>2162.756</ele>
        <time>2020-06-28T09:29:11Z</time>
      </trkpt>
      <trkpt lat="44.12639" lon="7.33078">
        <ele>2173.26</ele>
        <time>2020-06-28T09:29:27Z</time>
      </trkpt>
      <trkpt lat="44.12639" lon="7.33066">
        <ele>2146.94</ele>
        <time>2020-06-28T09:29:42Z</time>
      </trkpt>
      <trkpt lat="44.1263" lon="7.33058">
        <ele>2177.251</ele>
        <time>2020-06-28T09:31:54Z</time>
      </trkpt>
      <trkpt lat="44.12625" lon="7.33078">
        <ele>2175.535</ele>
        <time>2020-06-28T09:32:09Z</time>
      </trkpt>
      <trkpt lat="44.12622" lon="7.3308">
        <ele>2180.95</ele>
        <time>2020-06-28T09:32:25Z</time>
      </trkpt>
      <trkpt lat="44.12617" lon="7.33083">
        <ele>2185.249</ele>
        <time>2020-06-28T09:32:41Z</time>
      </trkpt>
      <trkpt lat="44.12618" lon="7.33082">
        <ele>2185.506</ele>
        <time>2020-06-28T09:32:56Z</time>
      </trkpt>
      <trkpt lat="44.12618" lon="7.33082">
        <ele>2185.506</ele>
        <time>2020-06-28T09:33:11Z</time>
      </trkpt>
      <trkpt lat="44.12617" lon="7.33083">
        <ele>2173.806</ele>
        <time>2020-06-28T09:33:27Z</time>
      </trkpt>
      <trkpt lat="44.12615" lon="7.33083">
        <ele>2165.224</ele>
        <time>2020-06-28T09:33:42Z</time>
      </trkpt>
      <trkpt lat="44.12618" lon="7.33082">
        <ele>2161.08</ele>
        <time>2020-06-28T09:33:58Z</time>
      </trkpt>
      <trkpt lat="44.12617" lon="7.33084">
        <ele>2158.253</ele>
        <time>2020-06-28T09:34:13Z</time>
      </trkpt>
      <trkpt lat="44.12617" lon="7.33087">
        <ele>2156.981</ele>
        <time>2020-06-28T09:34:29Z</time>
      </trkpt>
      <trkpt lat="44.12619" lon="7.3309">
        <ele>2152.461</ele>
        <time>2020-06-28T09:34:44Z</time>
      </trkpt>
      <trkpt lat="44.12623" lon="7.33091">
        <ele>2152.108</ele>
        <time>2020-06-28T09:35:00Z</time>
      </trkpt>
      <trkpt lat="44.12627" lon="7.33079">
        <ele>2148.195</ele>
        <time>2020-06-28T09:35:15Z</time>
      </trkpt>
      <trkpt lat="44.12627" lon="7.33079">
        <ele>2148.195</ele>
        <time>2020-06-28T09:35:31Z</time>
      </trkpt>
      <trkpt lat="44.12627" lon="7.33079">
        <ele>2148.195</ele>
        <time>2020-06-28T09:35:47Z</time>
      </trkpt>
      <trkpt lat="44.12628" lon="7.33079">
        <ele>2149.646</ele>
        <time>2020-06-28T09:36:02Z</time>
      </trkpt>
      <trkpt lat="44.12627" lon="7.33078">
        <ele>2148.426</ele>
        <time>2020-06-28T09:36:18Z</time>
      </trkpt>
      <trkpt lat="44.12627" lon="7.33078">
        <ele>2148.426</ele>
        <time>2020-06-28T09:36:33Z</time>
      </trkpt>
      <trkpt lat="44.12627" lon="7.33078">
        <ele>2148.426</ele>
        <time>2020-06-28T09:36:49Z</time>
      </trkpt>
      <trkpt lat="44.12627" lon="7.33078">
        <ele>2148.426</ele>
        <time>2020-06-28T09:37:04Z</time>
      </trkpt>
      <trkpt lat="44.12627" lon="7.33078">
        <ele>2148.426</ele>
        <time>2020-06-28T09:37:19Z</time>
      </trkpt>
      <trkpt lat="44.12627" lon="7.33078">
        <ele>2148.426</ele>
        <time>2020-06-28T09:37:34Z</time>
      </trkpt>
      <trkpt lat="44.1262" lon="7.33076">
        <ele>2149.212</ele>
        <time>2020-06-28T09:37:49Z</time>
      </trkpt>
      <trkpt lat="44.12623" lon="7.33082">
        <ele>2147.646</ele>
        <time>2020-06-28T09:38:05Z</time>
      </trkpt>
      <trkpt lat="44.12626" lon="7.33088">
        <ele>2155.581</ele>
        <time>2020-06-28T09:38:20Z</time>
      </trkpt>
      <trkpt lat="44.12626" lon="7.33089">
        <ele>2156.043</ele>
        <time>2020-06-28T09:38:35Z</time>
      </trkpt>
      <trkpt lat="44.12626" lon="7.3309">
        <ele>2156.699</ele>
        <time>2020-06-28T09:38:51Z</time>
      </trkpt>
      <trkpt lat="44.1263" lon="7.33088">
        <ele>2166.173</ele>
        <time>2020-06-28T09:39:07Z</time>
      </trkpt>
      <trkpt lat="44.12631" lon="7.33088">
        <ele>2167.02</ele>
        <time>2020-06-28T09:39:22Z</time>
      </trkpt>
      <trkpt lat="44.12632" lon="7.33088">
        <ele>2167.638</ele>
        <time>2020-06-28T09:39:37Z</time>
      </trkpt>
      <trkpt lat="44.12632" lon="7.33088">
        <ele>2167.638</ele>
        <time>2020-06-28T09:39:52Z</time>
      </trkpt>
      <trkpt lat="44.12632" lon="7.33088">
        <ele>2167.638</ele>
        <time>2020-06-28T09:40:08Z</time>
      </trkpt>
      <trkpt lat="44.12632" lon="7.33088">
        <ele>2167.638</ele>
        <time>2020-06-28T09:40:24Z</time>
      </trkpt>
      <trkpt lat="44.12631" lon="7.33092">
        <ele>2172.058</ele>
        <time>2020-06-28T09:40:40Z</time>
      </trkpt>
      <trkpt lat="44.1263" lon="7.33091">
        <ele>2175.908</ele>
        <time>2020-06-28T09:40:55Z</time>
      </trkpt>
      <trkpt lat="44.1263" lon="7.33091">
        <ele>2175.908</ele>
        <time>2020-06-28T09:41:10Z</time>
      </trkpt>
      <trkpt lat="44.12631" lon="7.33091">
        <ele>2176.266</ele>
        <time>2020-06-28T09:41:26Z</time>
      </trkpt>
      <trkpt lat="44.12631" lon="7.33092">
        <ele>2176.528</ele>
        <time>2020-06-28T09:41:41Z</time>
      </trkpt>
      <trkpt lat="44.12629" lon="7.33093">
        <ele>2176.986</ele>
        <time>2020-06-28T09:41:57Z</time>
      </trkpt>
      <trkpt lat="44.12627" lon="7.33095">
        <ele>2179.891</ele>
        <time>2020-06-28T09:42:13Z</time>
      </trkpt>
      <trkpt lat="44.12627" lon="7.33095">
        <ele>2179.891</ele>
        <time>2020-06-28T09:42:28Z</time>
      </trkpt>
      <trkpt lat="44.12627" lon="7.33095">
        <ele>2179.891</ele>
        <time>2020-06-28T09:42:44Z</time>
      </trkpt>
      <trkpt lat="44.12623" lon="7.33101">
        <ele>2179.38</ele>
        <time>2020-06-28T09:42:59Z</time>
      </trkpt>
      <trkpt lat="44.12628" lon="7.33114">
        <ele>2169.256</ele>
        <time>2020-06-28T09:43:15Z</time>
      </trkpt>
      <trkpt lat="44.12638" lon="7.3313">
        <ele>2165.957</ele>
        <time>2020-06-28T09:43:31Z</time>
      </trkpt>
      <trkpt lat="44.12633" lon="7.33144">
        <ele>2166.646</ele>
        <time>2020-06-28T09:43:47Z</time>
      </trkpt>
      <trkpt lat="44.12622" lon="7.33144">
        <ele>2164.327</ele>
        <time>2020-06-28T09:44:03Z</time>
      </trkpt>
      <trkpt lat="44.12606" lon="7.33143">
        <ele>2161.118</ele>
        <time>2020-06-28T09:44:19Z</time>
      </trkpt>
      <trkpt lat="44.12604" lon="7.33145">
        <ele>2160.641</ele>
        <time>2020-06-28T09:44:35Z</time>
      </trkpt>
      <trkpt lat="44.12602" lon="7.33145">
        <ele>2158.851</ele>
        <time>2020-06-28T09:44:50Z</time>
      </trkpt>
      <trkpt lat="44.12581" lon="7.33155">
        <ele>2157.206</ele>
        <time>2020-06-28T09:45:06Z</time>
      </trkpt>
      <trkpt lat="44.12572" lon="7.33154">
        <ele>2156.028</ele>
        <time>2020-06-28T09:45:22Z</time>
      </trkpt>
      <trkpt lat="44.12562" lon="7.33156">
        <ele>2151.661</ele>
        <time>2020-06-28T09:45:37Z</time>
      </trkpt>
      <trkpt lat="44.12554" lon="7.33162">
        <ele>2148.537</ele>
        <time>2020-06-28T09:45:53Z</time>
      </trkpt>
      <trkpt lat="44.12544" lon="7.33168">
        <ele>2145.743</ele>
        <time>2020-06-28T09:46:08Z</time>
      </trkpt>
      <trkpt lat="44.12536" lon="7.33167">
        <ele>2141.767</ele>
        <time>2020-06-28T09:46:24Z</time>
      </trkpt>
      <trkpt lat="44.12526" lon="7.33173">
        <ele>2142.266</ele>
        <time>2020-06-28T09:46:40Z</time>
      </trkpt>
      <trkpt lat="44.12515" lon="7.33177">
        <ele>2141.769</ele>
        <time>2020-06-28T09:46:55Z</time>
      </trkpt>
      <trkpt lat="44.12506" lon="7.33176">
        <ele>2134.421</ele>
        <time>2020-06-28T09:47:11Z</time>
      </trkpt>
      <trkpt lat="44.12504" lon="7.3316">
        <ele>2124.298</ele>
        <time>2020-06-28T09:47:27Z</time>
      </trkpt>
      <trkpt lat="44.12499" lon="7.33169">
        <ele>2124.422</ele>
        <time>2020-06-28T09:47:43Z</time>
      </trkpt>
      <trkpt lat="44.12496" lon="7.3317">
        <ele>2123.06</ele>
        <time>2020-06-28T09:47:59Z</time>
      </trkpt>
      <trkpt lat="44.12494" lon="7.33154">
        <ele>2121.135</ele>
        <time>2020-06-28T09:48:14Z</time>
      </trkpt>
      <trkpt lat="44.12505" lon="7.33132">
        <ele>2128.939</ele>
        <time>2020-06-28T09:48:30Z</time>
      </trkpt>
      <trkpt lat="44.12508" lon="7.33122">
        <ele>2120.565</ele>
        <time>2020-06-28T09:48:45Z</time>
      </trkpt>
      <trkpt lat="44.12506" lon="7.33108">
        <ele>2120.924</ele>
        <time>2020-06-28T09:49:01Z</time>
      </trkpt>
      <trkpt lat="44.1251" lon="7.33096">
        <ele>2122.966</ele>
        <time>2020-06-28T09:49:17Z</time>
      </trkpt>
      <trkpt lat="44.12523" lon="7.33083">
        <ele>2123.772</ele>
        <time>2020-06-28T09:49:33Z</time>
      </trkpt>
      <trkpt lat="44.12523" lon="7.33066">
        <ele>2120.509</ele>
        <time>2020-06-28T09:49:49Z</time>
      </trkpt>
      <trkpt lat="44.12524" lon="7.33045">
        <ele>2114.985</ele>
        <time>2020-06-28T09:50:05Z</time>
      </trkpt>
      <trkpt lat="44.12519" lon="7.33039">
        <ele>2113.78</ele>
        <time>2020-06-28T09:50:20Z</time>
      </trkpt>
      <trkpt lat="44.12519" lon="7.3303">
        <ele>2114.117</ele>
        <time>2020-06-28T09:50:36Z</time>
      </trkpt>
      <trkpt lat="44.12514" lon="7.33013">
        <ele>2114.123</ele>
        <time>2020-06-28T09:50:52Z</time>
      </trkpt>
      <trkpt lat="44.12508" lon="7.33001">
        <ele>2113.915</ele>
        <time>2020-06-28T09:51:08Z</time>
      </trkpt>
      <trkpt lat="44.12496" lon="7.32986">
        <ele>2110.685</ele>
        <time>2020-06-28T09:51:24Z</time>
      </trkpt>
      <trkpt lat="44.12491" lon="7.32985">
        <ele>2113.392</ele>
        <time>2020-06-28T09:51:40Z</time>
      </trkpt>
      <trkpt lat="44.12486" lon="7.3297">
        <ele>2113.198</ele>
        <time>2020-06-28T09:51:55Z</time>
      </trkpt>
      <trkpt lat="44.12482" lon="7.32963">
        <ele>2107.423</ele>
        <time>2020-06-28T09:52:11Z</time>
      </trkpt>
      <trkpt lat="44.1247" lon="7.32965">
        <ele>2101.837</ele>
        <time>2020-06-28T09:52:27Z</time>
      </trkpt>
      <trkpt lat="44.12461" lon="7.3296">
        <ele>2100.993</ele>
        <time>2020-06-28T09:52:42Z</time>
      </trkpt>
      <trkpt lat="44.12452" lon="7.32956">
        <ele>2099.499</ele>
        <time>2020-06-28T09:52:57Z</time>
      </trkpt>
      <trkpt lat="44.12434" lon="7.32942">
        <ele>2095.959</ele>
        <time>2020-06-28T09:53:13Z</time>
      </trkpt>
      <trkpt lat="44.12425" lon="7.32928">
        <ele>2095.013</ele>
        <time>2020-06-28T09:53:29Z</time>
      </trkpt>
      <trkpt lat="44.12425" lon="7.32918">
        <ele>2095.693</ele>
        <time>2020-06-28T09:53:44Z</time>
      </trkpt>
      <trkpt lat="44.12411" lon="7.32926">
        <ele>2100.354</ele>
        <time>2020-06-28T09:54:00Z</time>
      </trkpt>
      <trkpt lat="44.12408" lon="7.32927">
        <ele>2095.258</ele>
        <time>2020-06-28T09:54:15Z</time>
      </trkpt>
      <trkpt lat="44.12408" lon="7.32922">
        <ele>2089.501</ele>
        <time>2020-06-28T09:54:31Z</time>
      </trkpt>
      <trkpt lat="44.12397" lon="7.32918">
        <ele>2086.543</ele>
        <time>2020-06-28T09:54:47Z</time>
      </trkpt>
      <trkpt lat="44.12393" lon="7.32915">
        <ele>2089.101</ele>
        <time>2020-06-28T09:55:02Z</time>
      </trkpt>
      <trkpt lat="44.12375" lon="7.32906">
        <ele>2088.046</ele>
        <time>2020-06-28T09:55:18Z</time>
      </trkpt>
      <trkpt lat="44.12367" lon="7.32914">
        <ele>2082.149</ele>
        <time>2020-06-28T09:55:34Z</time>
      </trkpt>
      <trkpt lat="44.12372" lon="7.32915">
        <ele>2080.533</ele>
        <time>2020-06-28T09:55:50Z</time>
      </trkpt>
      <trkpt lat="44.12367" lon="7.32918">
        <ele>2078.027</ele>
        <time>2020-06-28T09:56:06Z</time>
      </trkpt>
      <trkpt lat="44.12375" lon="7.32929">
        <ele>2078.888</ele>
        <time>2020-06-28T09:56:22Z</time>
      </trkpt>
      <trkpt lat="44.12376" lon="7.32942">
        <ele>2079.245</ele>
        <time>2020-06-28T09:56:38Z</time>
      </trkpt>
      <trkpt lat="44.1238" lon="7.32951">
        <ele>2078.47</ele>
        <time>2020-06-28T09:56:53Z</time>
      </trkpt>
      <trkpt lat="44.12383" lon="7.32958">
        <ele>2076.476</ele>
        <time>2020-06-28T09:57:09Z</time>
      </trkpt>
      <trkpt lat="44.12389" lon="7.32965">
        <ele>2075.004</ele>
        <time>2020-06-28T09:57:24Z</time>
      </trkpt>
      <trkpt lat="44.1239" lon="7.32981">
        <ele>2070.531</ele>
        <time>2020-06-28T09:57:40Z</time>
      </trkpt>
      <trkpt lat="44.12384" lon="7.32982">
        <ele>2071.243</ele>
        <time>2020-06-28T09:57:55Z</time>
      </trkpt>
      <trkpt lat="44.12373" lon="7.32988">
        <ele>2064.268</ele>
        <time>2020-06-28T09:58:11Z</time>
      </trkpt>
      <trkpt lat="44.12363" lon="7.32998">
        <ele>2059.414</ele>
        <time>2020-06-28T09:58:27Z</time>
      </trkpt>
      <trkpt lat="44.12354" lon="7.33006">
        <ele>2056.501</ele>
        <time>2020-06-28T09:58:42Z</time>
      </trkpt>
      <trkpt lat="44.12346" lon="7.33015">
        <ele>2056.771</ele>
        <time>2020-06-28T09:58:57Z</time>
      </trkpt>
      <trkpt lat="44.12335" lon="7.33023">
        <ele>2053.467</ele>
        <time>2020-06-28T09:59:13Z</time>
      </trkpt>
      <trkpt lat="44.12331" lon="7.33022">
        <ele>2050.08</ele>
        <time>2020-06-28T09:59:29Z</time>
      </trkpt>
      <trkpt lat="44.12326" lon="7.33022">
        <ele>2048.235</ele>
        <time>2020-06-28T09:59:45Z</time>
      </trkpt>
      <trkpt lat="44.12304" lon="7.33026">
        <ele>2047.999</ele>
        <time>2020-06-28T10:00:00Z</time>
      </trkpt>
      <trkpt lat="44.12289" lon="7.33022">
        <ele>2050.729</ele>
        <time>2020-06-28T10:00:16Z</time>
      </trkpt>
      <trkpt lat="44.12278" lon="7.33011">
        <ele>2051.437</ele>
        <time>2020-06-28T10:00:32Z</time>
      </trkpt>
      <trkpt lat="44.12263" lon="7.33009">
        <ele>2055.783</ele>
        <time>2020-06-28T10:00:47Z</time>
      </trkpt>
      <trkpt lat="44.12262" lon="7.33007">
        <ele>2055.139</ele>
        <time>2020-06-28T10:01:03Z</time>
      </trkpt>
      <trkpt lat="44.12261" lon="7.33007">
        <ele>2056.247</ele>
        <time>2020-06-28T10:01:18Z</time>
      </trkpt>
      <trkpt lat="44.12261" lon="7.33007">
        <ele>2056.247</ele>
        <time>2020-06-28T10:01:34Z</time>
      </trkpt>
      <trkpt lat="44.12252" lon="7.33017">
        <ele>2057.958</ele>
        <time>2020-06-28T10:01:49Z</time>
      </trkpt>
      <trkpt lat="44.12242" lon="7.33012">
        <ele>2046.129</ele>
        <time>2020-06-28T10:02:05Z</time>
      </trkpt>
      <trkpt lat="44.12244" lon="7.3301">
        <ele>2047.845</ele>
        <time>2020-06-28T10:02:21Z</time>
      </trkpt>
      <trkpt lat="44.12245" lon="7.33009">
        <ele>2044.488</ele>
        <time>2020-06-28T10:02:37Z</time>
      </trkpt>
      <trkpt lat="44.1224" lon="7.3302">
        <ele>2040.307</ele>
        <time>2020-06-28T10:02:52Z</time>
      </trkpt>
      <trkpt lat="44.12243" lon="7.33027">
        <ele>2039.05</ele>
        <time>2020-06-28T10:03:08Z</time>
      </trkpt>
      <trkpt lat="44.12241" lon="7.33026">
        <ele>2039.662</ele>
        <time>2020-06-28T10:03:24Z</time>
      </trkpt>
      <trkpt lat="44.12222" lon="7.33033">
        <ele>2041.054</ele>
        <time>2020-06-28T10:03:39Z</time>
      </trkpt>
      <trkpt lat="44.12218" lon="7.33036">
        <ele>2041.484</ele>
        <time>2020-06-28T10:03:54Z</time>
      </trkpt>
      <trkpt lat="44.12205" lon="7.3305">
        <ele>2040.912</ele>
        <time>2020-06-28T10:04:09Z</time>
      </trkpt>
      <trkpt lat="44.12196" lon="7.33052">
        <ele>2036.067</ele>
        <time>2020-06-28T10:04:25Z</time>
      </trkpt>
      <trkpt lat="44.12177" lon="7.33059">
        <ele>2033.486</ele>
        <time>2020-06-28T10:04:40Z</time>
      </trkpt>
      <trkpt lat="44.12166" lon="7.33062">
        <ele>2031.301</ele>
        <time>2020-06-28T10:04:56Z</time>
      </trkpt>
      <trkpt lat="44.12157" lon="7.3306">
        <ele>2027.008</ele>
        <time>2020-06-28T10:05:12Z</time>
      </trkpt>
      <trkpt lat="44.12155" lon="7.33062">
        <ele>2026.589</ele>
        <time>2020-06-28T10:05:27Z</time>
      </trkpt>
      <trkpt lat="44.12155" lon="7.33065">
        <ele>2023.725</ele>
        <time>2020-06-28T10:05:43Z</time>
      </trkpt>
      <trkpt lat="44.12144" lon="7.33071">
        <ele>2023.25</ele>
        <time>2020-06-28T10:05:59Z</time>
      </trkpt>
      <trkpt lat="44.12145" lon="7.33079">
        <ele>2023.251</ele>
        <time>2020-06-28T10:06:15Z</time>
      </trkpt>
      <trkpt lat="44.12141" lon="7.33094">
        <ele>2019.454</ele>
        <time>2020-06-28T10:06:31Z</time>
      </trkpt>
      <trkpt lat="44.1213" lon="7.33102">
        <ele>2018.212</ele>
        <time>2020-06-28T10:06:46Z</time>
      </trkpt>
      <trkpt lat="44.12127" lon="7.33103">
        <ele>2015.974</ele>
        <time>2020-06-28T10:07:01Z</time>
      </trkpt>
      <trkpt lat="44.12121" lon="7.33108">
        <ele>2015.096</ele>
        <time>2020-06-28T10:07:17Z</time>
      </trkpt>
      <trkpt lat="44.12105" lon="7.33113">
        <ele>2014.421</ele>
        <time>2020-06-28T10:07:33Z</time>
      </trkpt>
      <trkpt lat="44.12101" lon="7.33108">
        <ele>2010.106</ele>
        <time>2020-06-28T10:07:48Z</time>
      </trkpt>
      <trkpt lat="44.12094" lon="7.33101">
        <ele>2006.215</ele>
        <time>2020-06-28T10:08:04Z</time>
      </trkpt>
      <trkpt lat="44.12081" lon="7.33102">
        <ele>2006.054</ele>
        <time>2020-06-28T10:08:19Z</time>
      </trkpt>
      <trkpt lat="44.12078" lon="7.33093">
        <ele>2002.706</ele>
        <time>2020-06-28T10:08:35Z</time>
      </trkpt>
      <trkpt lat="44.12084" lon="7.33081">
        <ele>2000.154</ele>
        <time>2020-06-28T10:08:50Z</time>
      </trkpt>
      <trkpt lat="44.12069" lon="7.33083">
        <ele>1997.847</ele>
        <time>2020-06-28T10:09:06Z</time>
      </trkpt>
      <trkpt lat="44.12063" lon="7.33079">
        <ele>1995.625</ele>
        <time>2020-06-28T10:09:21Z</time>
      </trkpt>
      <trkpt lat="44.12061" lon="7.33061">
        <ele>1995.062</ele>
        <time>2020-06-28T10:09:36Z</time>
      </trkpt>
      <trkpt lat="44.12055" lon="7.33059">
        <ele>1985.285</ele>
        <time>2020-06-28T10:09:52Z</time>
      </trkpt>
      <trkpt lat="44.12044" lon="7.33055">
        <ele>1981.869</ele>
        <time>2020-06-28T10:10:07Z</time>
      </trkpt>
      <trkpt lat="44.12031" lon="7.33042">
        <ele>1980.594</ele>
        <time>2020-06-28T10:10:23Z</time>
      </trkpt>
      <trkpt lat="44.12016" lon="7.33045">
        <ele>1978.499</ele>
        <time>2020-06-28T10:10:39Z</time>
      </trkpt>
      <trkpt lat="44.12012" lon="7.33054">
        <ele>1973.961</ele>
        <time>2020-06-28T10:10:54Z</time>
      </trkpt>
      <trkpt lat="44.12012" lon="7.33054">
        <ele>1973.961</ele>
        <time>2020-06-28T10:11:10Z</time>
      </trkpt>
      <trkpt lat="44.12012" lon="7.33054">
        <ele>1973.961</ele>
        <time>2020-06-28T10:11:25Z</time>
      </trkpt>
      <trkpt lat="44.12009" lon="7.33058">
        <ele>1970.373</ele>
        <time>2020-06-28T10:11:41Z</time>
      </trkpt>
      <trkpt lat="44.12007" lon="7.33054">
        <ele>1967.934</ele>
        <time>2020-06-28T10:11:56Z</time>
      </trkpt>
      <trkpt lat="44.12" lon="7.33026">
        <ele>1964.092</ele>
        <time>2020-06-28T10:12:12Z</time>
      </trkpt>
      <trkpt lat="44.11993" lon="7.33008">
        <ele>1971.316</ele>
        <time>2020-06-28T10:12:28Z</time>
      </trkpt>
      <trkpt lat="44.11983" lon="7.33">
        <ele>1971.841</ele>
        <time>2020-06-28T10:12:44Z</time>
      </trkpt>
      <trkpt lat="44.11978" lon="7.3299">
        <ele>1972.107</ele>
        <time>2020-06-28T10:12:59Z</time>
      </trkpt>
      <trkpt lat="44.11978" lon="7.32989">
        <ele>1973.256</ele>
        <time>2020-06-28T10:13:14Z</time>
      </trkpt>
      <trkpt lat="44.11976" lon="7.32994">
        <ele>1974.696</ele>
        <time>2020-06-28T10:13:30Z</time>
      </trkpt>
      <trkpt lat="44.11958" lon="7.32986">
        <ele>1967.682</ele>
        <time>2020-06-28T10:13:46Z</time>
      </trkpt>
      <trkpt lat="44.11949" lon="7.32972">
        <ele>1970.366</ele>
        <time>2020-06-28T10:14:02Z</time>
      </trkpt>
      <trkpt lat="44.11937" lon="7.32955">
        <ele>1972.135</ele>
        <time>2020-06-28T10:14:18Z</time>
      </trkpt>
      <trkpt lat="44.11933" lon="7.32939">
        <ele>1974.015</ele>
        <time>2020-06-28T10:14:33Z</time>
      </trkpt>
      <trkpt lat="44.11931" lon="7.32925">
        <ele>1977.493</ele>
        <time>2020-06-28T10:14:49Z</time>
      </trkpt>
      <trkpt lat="44.11932" lon="7.32926">
        <ele>1976.342</ele>
        <time>2020-06-28T10:15:05Z</time>
      </trkpt>
      <trkpt lat="44.11923" lon="7.32926">
        <ele>1973.797</ele>
        <time>2020-06-28T10:15:20Z</time>
      </trkpt>
      <trkpt lat="44.11908" lon="7.32918">
        <ele>1967.764</ele>
        <time>2020-06-28T10:15:36Z</time>
      </trkpt>
      <trkpt lat="44.11895" lon="7.32913">
        <ele>1972.74</ele>
        <time>2020-06-28T10:15:51Z</time>
      </trkpt>
      <trkpt lat="44.11889" lon="7.32906">
        <ele>1973.349</ele>
        <time>2020-06-28T10:16:07Z</time>
      </trkpt>
      <trkpt lat="44.11876" lon="7.32901">
        <ele>1972.542</ele>
        <time>2020-06-28T10:16:23Z</time>
      </trkpt>
      <trkpt lat="44.11864" lon="7.32894">
        <ele>1968.068</ele>
        <time>2020-06-28T10:16:39Z</time>
      </trkpt>
      <trkpt lat="44.11864" lon="7.32895">
        <ele>1969.406</ele>
        <time>2020-06-28T10:16:54Z</time>
      </trkpt>
      <trkpt lat="44.11851" lon="7.3288">
        <ele>1964.839</ele>
        <time>2020-06-28T10:17:09Z</time>
      </trkpt>
      <trkpt lat="44.11849" lon="7.32871">
        <ele>1966.025</ele>
        <time>2020-06-28T10:17:25Z</time>
      </trkpt>
      <trkpt lat="44.11849" lon="7.32866">
        <ele>1968.07</ele>
        <time>2020-06-28T10:17:40Z</time>
      </trkpt>
      <trkpt lat="44.1185" lon="7.32871">
        <ele>1966.439</ele>
        <time>2020-06-28T10:17:56Z</time>
      </trkpt>
      <trkpt lat="44.11845" lon="7.32871">
        <ele>1963.602</ele>
        <time>2020-06-28T10:18:11Z</time>
      </trkpt>
      <trkpt lat="44.11846" lon="7.32865">
        <ele>1964.82</ele>
        <time>2020-06-28T10:18:26Z</time>
      </trkpt>
      <trkpt lat="44.11846" lon="7.32867">
        <ele>1967.948</ele>
        <time>2020-06-28T10:18:42Z</time>
      </trkpt>
      <trkpt lat="44.11834" lon="7.32873">
        <ele>1969.014</ele>
        <time>2020-06-28T10:18:58Z</time>
      </trkpt>
      <trkpt lat="44.11826" lon="7.32875">
        <ele>1967.594</ele>
        <time>2020-06-28T10:19:13Z</time>
      </trkpt>
      <trkpt lat="44.11811" lon="7.32869">
        <ele>1962.02</ele>
        <time>2020-06-28T10:19:28Z</time>
      </trkpt>
      <trkpt lat="44.11806" lon="7.32861">
        <ele>1960.914</ele>
        <time>2020-06-28T10:19:44Z</time>
      </trkpt>
      <trkpt lat="44.11806" lon="7.32861">
        <ele>1960.914</ele>
        <time>2020-06-28T10:20:00Z</time>
      </trkpt>
      <trkpt lat="44.11806" lon="7.32861">
        <ele>1960.914</ele>
        <time>2020-06-28T10:20:15Z</time>
      </trkpt>
      <trkpt lat="44.11789" lon="7.32852">
        <ele>1961.058</ele>
        <time>2020-06-28T10:20:31Z</time>
      </trkpt>
      <trkpt lat="44.1178" lon="7.32848">
        <ele>1960.483</ele>
        <time>2020-06-28T10:20:47Z</time>
      </trkpt>
      <trkpt lat="44.11768" lon="7.32844">
        <ele>1958.435</ele>
        <time>2020-06-28T10:21:03Z</time>
      </trkpt>
      <trkpt lat="44.1176" lon="7.32825">
        <ele>1957.637</ele>
        <time>2020-06-28T10:21:18Z</time>
      </trkpt>
      <trkpt lat="44.11744" lon="7.32827">
        <ele>1956.837</ele>
        <time>2020-06-28T10:21:33Z</time>
      </trkpt>
      <trkpt lat="44.11737" lon="7.32816">
        <ele>1953.486</ele>
        <time>2020-06-28T10:21:49Z</time>
      </trkpt>
      <trkpt lat="44.11725" lon="7.32808">
        <ele>1953.639</ele>
        <time>2020-06-28T10:22:05Z</time>
      </trkpt>
      <trkpt lat="44.11724" lon="7.32803">
        <ele>1952.294</ele>
        <time>2020-06-28T10:22:21Z</time>
      </trkpt>
      <trkpt lat="44.11725" lon="7.32798">
        <ele>1951.896</ele>
        <time>2020-06-28T10:22:36Z</time>
      </trkpt>
      <trkpt lat="44.11717" lon="7.32749">
        <ele>1947.658</ele>
        <time>2020-06-28T10:22:52Z</time>
      </trkpt>
      <trkpt lat="44.11699" lon="7.3275">
        <ele>1938.008</ele>
        <time>2020-06-28T10:23:07Z</time>
      </trkpt>
      <trkpt lat="44.11696" lon="7.32743">
        <ele>1935.256</ele>
        <time>2020-06-28T10:23:22Z</time>
      </trkpt>
      <trkpt lat="44.11685" lon="7.32752">
        <ele>1935.603</ele>
        <time>2020-06-28T10:23:38Z</time>
      </trkpt>
      <trkpt lat="44.11685" lon="7.32752">
        <ele>1935.603</ele>
        <time>2020-06-28T10:23:53Z</time>
      </trkpt>
      <trkpt lat="44.11685" lon="7.32752">
        <ele>1935.603</ele>
        <time>2020-06-28T10:24:09Z</time>
      </trkpt>
      <trkpt lat="44.11685" lon="7.32752">
        <ele>1935.603</ele>
        <time>2020-06-28T10:24:24Z</time>
      </trkpt>
      <trkpt lat="44.11685" lon="7.32752">
        <ele>1935.603</ele>
        <time>2020-06-28T10:24:39Z</time>
      </trkpt>
      <trkpt lat="44.1168" lon="7.32744">
        <ele>1934.852</ele>
        <time>2020-06-28T10:24:55Z</time>
      </trkpt>
      <trkpt lat="44.11649" lon="7.32755">
        <ele>1933.816</ele>
        <time>2020-06-28T10:25:10Z</time>
      </trkpt>
      <trkpt lat="44.11645" lon="7.32738">
        <ele>1932.464</ele>
        <time>2020-06-28T10:25:25Z</time>
      </trkpt>
      <trkpt lat="44.11636" lon="7.32734">
        <ele>1929.793</ele>
        <time>2020-06-28T10:25:41Z</time>
      </trkpt>
      <trkpt lat="44.11626" lon="7.32715">
        <ele>1927.888</ele>
        <time>2020-06-28T10:25:57Z</time>
      </trkpt>
      <trkpt lat="44.11616" lon="7.32715">
        <ele>1929.332</ele>
        <time>2020-06-28T10:26:12Z</time>
      </trkpt>
      <trkpt lat="44.11611" lon="7.32691">
        <ele>1925.768</ele>
        <time>2020-06-28T10:26:27Z</time>
      </trkpt>
      <trkpt lat="44.11599" lon="7.32674">
        <ele>1924.989</ele>
        <time>2020-06-28T10:26:42Z</time>
      </trkpt>
      <trkpt lat="44.11592" lon="7.32656">
        <ele>1921.636</ele>
        <time>2020-06-28T10:26:57Z</time>
      </trkpt>
      <trkpt lat="44.11588" lon="7.32633">
        <ele>1922.32</ele>
        <time>2020-06-28T10:27:13Z</time>
      </trkpt>
      <trkpt lat="44.11583" lon="7.32617">
        <ele>1919.078</ele>
        <time>2020-06-28T10:27:29Z</time>
      </trkpt>
      <trkpt lat="44.11586" lon="7.32603">
        <ele>1920.334</ele>
        <time>2020-06-28T10:27:45Z</time>
      </trkpt>
      <trkpt lat="44.11592" lon="7.32578">
        <ele>1918.443</ele>
        <time>2020-06-28T10:28:00Z</time>
      </trkpt>
      <trkpt lat="44.11579" lon="7.32589">
        <ele>1920.557</ele>
        <time>2020-06-28T10:28:16Z</time>
      </trkpt>
      <trkpt lat="44.11582" lon="7.32584">
        <ele>1921.563</ele>
        <time>2020-06-28T10:28:31Z</time>
      </trkpt>
      <trkpt lat="44.11583" lon="7.3258">
        <ele>1918.518</ele>
        <time>2020-06-28T10:28:47Z</time>
      </trkpt>
      <trkpt lat="44.11568" lon="7.32586">
        <ele>1916.294</ele>
        <time>2020-06-28T10:29:03Z</time>
      </trkpt>
      <trkpt lat="44.11574" lon="7.32581">
        <ele>1912.659</ele>
        <time>2020-06-28T10:29:18Z</time>
      </trkpt>
      <trkpt lat="44.11579" lon="7.32571">
        <ele>1912.742</ele>
        <time>2020-06-28T10:29:34Z</time>
      </trkpt>
      <trkpt lat="44.11586" lon="7.32549">
        <ele>1913.952</ele>
        <time>2020-06-28T10:29:49Z</time>
      </trkpt>
      <trkpt lat="44.11587" lon="7.32541">
        <ele>1914.307</ele>
        <time>2020-06-28T10:30:04Z</time>
      </trkpt>
      <trkpt lat="44.11573" lon="7.32542">
        <ele>1913.871</ele>
        <time>2020-06-28T10:30:20Z</time>
      </trkpt>
      <trkpt lat="44.11583" lon="7.32514">
        <ele>1913.27</ele>
        <time>2020-06-28T10:30:36Z</time>
      </trkpt>
      <trkpt lat="44.11556" lon="7.32525">
        <ele>1914.177</ele>
        <time>2020-06-28T10:30:51Z</time>
      </trkpt>
      <trkpt lat="44.11524" lon="7.32541">
        <ele>1918.88</ele>
        <time>2020-06-28T10:31:07Z</time>
      </trkpt>
      <trkpt lat="44.1153" lon="7.32516">
        <ele>1921.734</ele>
        <time>2020-06-28T10:31:23Z</time>
      </trkpt>
      <trkpt lat="44.11521" lon="7.32494">
        <ele>1918.647</ele>
        <time>2020-06-28T10:31:39Z</time>
      </trkpt>
      <trkpt lat="44.11515" lon="7.32482">
        <ele>1917.692</ele>
        <time>2020-06-28T10:31:55Z</time>
      </trkpt>
      <trkpt lat="44.11511" lon="7.32463">
        <ele>1919.131</ele>
        <time>2020-06-28T10:32:10Z</time>
      </trkpt>
      <trkpt lat="44.11494" lon="7.32447">
        <ele>1916.171</ele>
        <time>2020-06-28T10:32:26Z</time>
      </trkpt>
      <trkpt lat="44.11465" lon="7.32441">
        <ele>1913.778</ele>
        <time>2020-06-28T10:32:42Z</time>
      </trkpt>
      <trkpt lat="44.11454" lon="7.32427">
        <ele>1910.275</ele>
        <time>2020-06-28T10:32:58Z</time>
      </trkpt>
      <trkpt lat="44.1146" lon="7.32379">
        <ele>1898.588</ele>
        <time>2020-06-28T10:33:13Z</time>
      </trkpt>
      <trkpt lat="44.11453" lon="7.32359">
        <ele>1900.545</ele>
        <time>2020-06-28T10:33:29Z</time>
      </trkpt>
      <trkpt lat="44.11454" lon="7.32357">
        <ele>1901.059</ele>
        <time>2020-06-28T10:33:44Z</time>
      </trkpt>
      <trkpt lat="44.11449" lon="7.32351">
        <ele>1902.513</ele>
        <time>2020-06-28T10:34:00Z</time>
      </trkpt>
      <trkpt lat="44.11449" lon="7.32352">
        <ele>1903.181</ele>
        <time>2020-06-28T10:34:15Z</time>
      </trkpt>
      <trkpt lat="44.11449" lon="7.32352">
        <ele>1903.181</ele>
        <time>2020-06-28T10:34:31Z</time>
      </trkpt>
      <trkpt lat="44.11449" lon="7.32352">
        <ele>1903.181</ele>
        <time>2020-06-28T10:34:47Z</time>
      </trkpt>
      <trkpt lat="44.11452" lon="7.32349">
        <ele>1904.821</ele>
        <time>2020-06-28T10:35:02Z</time>
      </trkpt>
      <trkpt lat="44.11454" lon="7.32348">
        <ele>1904.06</ele>
        <time>2020-06-28T10:35:18Z</time>
      </trkpt>
      <trkpt lat="44.11456" lon="7.3234">
        <ele>1903.665</ele>
        <time>2020-06-28T10:35:34Z</time>
      </trkpt>
      <trkpt lat="44.11452" lon="7.32329">
        <ele>1903.85</ele>
        <time>2020-06-28T10:35:49Z</time>
      </trkpt>
      <trkpt lat="44.11451" lon="7.32323">
        <ele>1906.042</ele>
        <time>2020-06-28T10:36:04Z</time>
      </trkpt>
      <trkpt lat="44.11444" lon="7.32319">
        <ele>1903.563</ele>
        <time>2020-06-28T10:36:20Z</time>
      </trkpt>
      <trkpt lat="44.11444" lon="7.32287">
        <ele>1899.972</ele>
        <time>2020-06-28T10:36:35Z</time>
      </trkpt>
      <trkpt lat="44.11435" lon="7.32271">
        <ele>1901.23</ele>
        <time>2020-06-28T10:36:51Z</time>
      </trkpt>
      <trkpt lat="44.11428" lon="7.3225">
        <ele>1904.457</ele>
        <time>2020-06-28T10:37:07Z</time>
      </trkpt>
      <trkpt lat="44.11431" lon="7.3223">
        <ele>1902.778</ele>
        <time>2020-06-28T10:37:23Z</time>
      </trkpt>
      <trkpt lat="44.11423" lon="7.32212">
        <ele>1905.306</ele>
        <time>2020-06-28T10:37:39Z</time>
      </trkpt>
      <trkpt lat="44.11421" lon="7.32192">
        <ele>1900.601</ele>
        <time>2020-06-28T10:37:54Z</time>
      </trkpt>
      <trkpt lat="44.11417" lon="7.32171">
        <ele>1896.215</ele>
        <time>2020-06-28T10:38:10Z</time>
      </trkpt>
      <trkpt lat="44.11412" lon="7.32154">
        <ele>1900.98</ele>
        <time>2020-06-28T10:38:26Z</time>
      </trkpt>
      <trkpt lat="44.11405" lon="7.32142">
        <ele>1897.355</ele>
        <time>2020-06-28T10:38:42Z</time>
      </trkpt>
      <trkpt lat="44.11399" lon="7.32132">
        <ele>1894.298</ele>
        <time>2020-06-28T10:38:57Z</time>
      </trkpt>
      <trkpt lat="44.11399" lon="7.32127">
        <ele>1891.107</ele>
        <time>2020-06-28T10:39:12Z</time>
      </trkpt>
      <trkpt lat="44.11395" lon="7.32122">
        <ele>1891.099</ele>
        <time>2020-06-28T10:39:28Z</time>
      </trkpt>
      <trkpt lat="44.11375" lon="7.32111">
        <ele>1890.884</ele>
        <time>2020-06-28T10:39:44Z</time>
      </trkpt>
      <trkpt lat="44.1137" lon="7.32099">
        <ele>1895.957</ele>
        <time>2020-06-28T10:39:59Z</time>
      </trkpt>
      <trkpt lat="44.11357" lon="7.32081">
        <ele>1887.001</ele>
        <time>2020-06-28T10:40:15Z</time>
      </trkpt>
      <trkpt lat="44.11354" lon="7.32072">
        <ele>1888.47</ele>
        <time>2020-06-28T10:40:30Z</time>
      </trkpt>
      <trkpt lat="44.11351" lon="7.3206">
        <ele>1887.711</ele>
        <time>2020-06-28T10:40:46Z</time>
      </trkpt>
      <trkpt lat="44.11351" lon="7.32058">
        <ele>1888.019</ele>
        <time>2020-06-28T10:41:01Z</time>
      </trkpt>
      <trkpt lat="44.11342" lon="7.32048">
        <ele>1885.24</ele>
        <time>2020-06-28T10:41:17Z</time>
      </trkpt>
      <trkpt lat="44.11342" lon="7.32047">
        <ele>1885.197</ele>
        <time>2020-06-28T10:41:33Z</time>
      </trkpt>
      <trkpt lat="44.11337" lon="7.32043">
        <ele>1886.283</ele>
        <time>2020-06-28T10:41:49Z</time>
      </trkpt>
      <trkpt lat="44.11341" lon="7.32034">
        <ele>1884.465</ele>
        <time>2020-06-28T10:42:04Z</time>
      </trkpt>
      <trkpt lat="44.11343" lon="7.32016">
        <ele>1884.185</ele>
        <time>2020-06-28T10:42:20Z</time>
      </trkpt>
      <trkpt lat="44.11337" lon="7.3202">
        <ele>1884.47</ele>
        <time>2020-06-28T10:42:35Z</time>
      </trkpt>
      <trkpt lat="44.11338" lon="7.32024">
        <ele>1885.617</ele>
        <time>2020-06-28T10:42:51Z</time>
      </trkpt>
      <trkpt lat="44.11336" lon="7.3202">
        <ele>1877.499</ele>
        <time>2020-06-28T10:43:07Z</time>
      </trkpt>
      <trkpt lat="44.11334" lon="7.32005">
        <ele>1872.442</ele>
        <time>2020-06-28T10:43:22Z</time>
      </trkpt>
      <trkpt lat="44.11333" lon="7.32006">
        <ele>1873.977</ele>
        <time>2020-06-28T10:43:38Z</time>
      </trkpt>
      <trkpt lat="44.11331" lon="7.32008">
        <ele>1872.625</ele>
        <time>2020-06-28T10:43:53Z</time>
      </trkpt>
      <trkpt lat="44.11332" lon="7.32003">
        <ele>1869.671</ele>
        <time>2020-06-28T10:44:08Z</time>
      </trkpt>
      <trkpt lat="44.11332" lon="7.32001">
        <ele>1869.873</ele>
        <time>2020-06-28T10:44:24Z</time>
      </trkpt>
      <trkpt lat="44.11314" lon="7.31977">
        <ele>1871.834</ele>
        <time>2020-06-28T10:44:40Z</time>
      </trkpt>
      <trkpt lat="44.11315" lon="7.31972">
        <ele>1866.68</ele>
        <time>2020-06-28T10:44:56Z</time>
      </trkpt>
      <trkpt lat="44.11323" lon="7.31971">
        <ele>1872.653</ele>
        <time>2020-06-28T10:45:11Z</time>
      </trkpt>
      <trkpt lat="44.11317" lon="7.31966">
        <ele>1869.872</ele>
        <time>2020-06-28T10:45:26Z</time>
      </trkpt>
      <trkpt lat="44.113" lon="7.31956">
        <ele>1861.907</ele>
        <time>2020-06-28T10:45:42Z</time>
      </trkpt>
      <trkpt lat="44.113" lon="7.31952">
        <ele>1861.178</ele>
        <time>2020-06-28T10:45:58Z</time>
      </trkpt>
      <trkpt lat="44.11292" lon="7.31943">
        <ele>1859.33</ele>
        <time>2020-06-28T10:46:13Z</time>
      </trkpt>
      <trkpt lat="44.1129" lon="7.31941">
        <ele>1858.699</ele>
        <time>2020-06-28T10:46:29Z</time>
      </trkpt>
      <trkpt lat="44.11291" lon="7.31939">
        <ele>1859.746</ele>
        <time>2020-06-28T10:46:44Z</time>
      </trkpt>
      <trkpt lat="44.11291" lon="7.31938">
        <ele>1861.771</ele>
        <time>2020-06-28T10:47:00Z</time>
      </trkpt>
      <trkpt lat="44.11288" lon="7.31941">
        <ele>1862.781</ele>
        <time>2020-06-28T10:47:15Z</time>
      </trkpt>
      <trkpt lat="44.11288" lon="7.31939">
        <ele>1862.211</ele>
        <time>2020-06-28T10:47:30Z</time>
      </trkpt>
      <trkpt lat="44.11286" lon="7.31937">
        <ele>1862.908</ele>
        <time>2020-06-28T10:47:46Z</time>
      </trkpt>
      <trkpt lat="44.11287" lon="7.3194">
        <ele>1862.785</ele>
        <time>2020-06-28T10:48:01Z</time>
      </trkpt>
      <trkpt lat="44.11287" lon="7.3194">
        <ele>1862.785</ele>
        <time>2020-06-28T10:48:16Z</time>
      </trkpt>
      <trkpt lat="44.11287" lon="7.31933">
        <ele>1864.197</ele>
        <time>2020-06-28T10:48:32Z</time>
      </trkpt>
      <trkpt lat="44.11284" lon="7.31937">
        <ele>1861.841</ele>
        <time>2020-06-28T10:48:47Z</time>
      </trkpt>
      <trkpt lat="44.11276" lon="7.31937">
        <ele>1860.165</ele>
        <time>2020-06-28T10:49:02Z</time>
      </trkpt>
      <trkpt lat="44.11273" lon="7.31926">
        <ele>1861.528</ele>
        <time>2020-06-28T10:49:18Z</time>
      </trkpt>
      <trkpt lat="44.11277" lon="7.31923">
        <ele>1857.345</ele>
        <time>2020-06-28T10:49:33Z</time>
      </trkpt>
      <trkpt lat="44.1127" lon="7.31922">
        <ele>1860.878</ele>
        <time>2020-06-28T10:49:48Z</time>
      </trkpt>
      <trkpt lat="44.11265" lon="7.31921">
        <ele>1862.253</ele>
        <time>2020-06-28T10:50:04Z</time>
      </trkpt>
      <trkpt lat="44.11265" lon="7.31916">
        <ele>1862.118</ele>
        <time>2020-06-28T10:50:20Z</time>
      </trkpt>
      <trkpt lat="44.11259" lon="7.31937">
        <ele>1866.565</ele>
        <time>2020-06-28T10:50:35Z</time>
      </trkpt>
      <trkpt lat="44.11261" lon="7.31937">
        <ele>1863.609</ele>
        <time>2020-06-28T10:50:51Z</time>
      </trkpt>
      <trkpt lat="44.11263" lon="7.31942">
        <ele>1860.406</ele>
        <time>2020-06-28T10:51:07Z</time>
      </trkpt>
      <trkpt lat="44.11252" lon="7.3194">
        <ele>1858.126</ele>
        <time>2020-06-28T10:51:22Z</time>
      </trkpt>
      <trkpt lat="44.11251" lon="7.31936">
        <ele>1851.89</ele>
        <time>2020-06-28T10:51:38Z</time>
      </trkpt>
      <trkpt lat="44.1124" lon="7.31928">
        <ele>1849.522</ele>
        <time>2020-06-28T10:51:54Z</time>
      </trkpt>
      <trkpt lat="44.11232" lon="7.31934">
        <ele>1845.499</ele>
        <time>2020-06-28T10:52:10Z</time>
      </trkpt>
      <trkpt lat="44.1123" lon="7.31933">
        <ele>1847</ele>
        <time>2020-06-28T10:52:25Z</time>
      </trkpt>
      <trkpt lat="44.11229" lon="7.31926">
        <ele>1847.157</ele>
        <time>2020-06-28T10:52:41Z</time>
      </trkpt>
      <trkpt lat="44.11226" lon="7.31925">
        <ele>1846.824</ele>
        <time>2020-06-28T10:52:57Z</time>
      </trkpt>
      <trkpt lat="44.1123" lon="7.31926">
        <ele>1843.158</ele>
        <time>2020-06-28T10:53:13Z</time>
      </trkpt>
      <trkpt lat="44.11227" lon="7.31922">
        <ele>1842.351</ele>
        <time>2020-06-28T10:53:29Z</time>
      </trkpt>
      <trkpt lat="44.11225" lon="7.31924">
        <ele>1845.167</ele>
        <time>2020-06-28T10:53:45Z</time>
      </trkpt>
      <trkpt lat="44.11223" lon="7.31923">
        <ele>1843.362</ele>
        <time>2020-06-28T10:54:01Z</time>
      </trkpt>
      <trkpt lat="44.11227" lon="7.31939">
        <ele>1840.197</ele>
        <time>2020-06-28T10:54:16Z</time>
      </trkpt>
      <trkpt lat="44.11219" lon="7.31946">
        <ele>1840.463</ele>
        <time>2020-06-28T10:54:32Z</time>
      </trkpt>
      <trkpt lat="44.11213" lon="7.31947">
        <ele>1838.148</ele>
        <time>2020-06-28T10:54:47Z</time>
      </trkpt>
      <trkpt lat="44.11213" lon="7.31954">
        <ele>1835.707</ele>
        <time>2020-06-28T10:55:03Z</time>
      </trkpt>
      <trkpt lat="44.11207" lon="7.31951">
        <ele>1835.883</ele>
        <time>2020-06-28T10:55:19Z</time>
      </trkpt>
      <trkpt lat="44.11209" lon="7.31952">
        <ele>1836.088</ele>
        <time>2020-06-28T10:55:34Z</time>
      </trkpt>
      <trkpt lat="44.11204" lon="7.31941">
        <ele>1833.234</ele>
        <time>2020-06-28T10:55:50Z</time>
      </trkpt>
      <trkpt lat="44.11196" lon="7.31932">
        <ele>1833.736</ele>
        <time>2020-06-28T10:56:05Z</time>
      </trkpt>
      <trkpt lat="44.11183" lon="7.31919">
        <ele>1832.615</ele>
        <time>2020-06-28T10:56:21Z</time>
      </trkpt>
      <trkpt lat="44.1117" lon="7.31904">
        <ele>1831.886</ele>
        <time>2020-06-28T10:56:37Z</time>
      </trkpt>
      <trkpt lat="44.11162" lon="7.31895">
        <ele>1826.277</ele>
        <time>2020-06-28T10:56:52Z</time>
      </trkpt>
      <trkpt lat="44.1116" lon="7.31901">
        <ele>1820.011</ele>
        <time>2020-06-28T10:57:07Z</time>
      </trkpt>
      <trkpt lat="44.11157" lon="7.31906">
        <ele>1818.784</ele>
        <time>2020-06-28T10:57:23Z</time>
      </trkpt>
      <trkpt lat="44.11159" lon="7.31903">
        <ele>1820.645</ele>
        <time>2020-06-28T10:57:39Z</time>
      </trkpt>
      <trkpt lat="44.11158" lon="7.31901">
        <ele>1815.216</ele>
        <time>2020-06-28T10:57:54Z</time>
      </trkpt>
      <trkpt lat="44.11158" lon="7.31896">
        <ele>1814.907</ele>
        <time>2020-06-28T10:58:10Z</time>
      </trkpt>
      <trkpt lat="44.11152" lon="7.31888">
        <ele>1815.279</ele>
        <time>2020-06-28T10:58:26Z</time>
      </trkpt>
      <trkpt lat="44.11155" lon="7.31892">
        <ele>1817.737</ele>
        <time>2020-06-28T10:58:42Z</time>
      </trkpt>
      <trkpt lat="44.11153" lon="7.31897">
        <ele>1817.619</ele>
        <time>2020-06-28T10:58:57Z</time>
      </trkpt>
      <trkpt lat="44.11148" lon="7.31905">
        <ele>1817.41</ele>
        <time>2020-06-28T10:59:13Z</time>
      </trkpt>
      <trkpt lat="44.11141" lon="7.31899">
        <ele>1817.155</ele>
        <time>2020-06-28T10:59:28Z</time>
      </trkpt>
      <trkpt lat="44.11139" lon="7.3189">
        <ele>1817.402</ele>
        <time>2020-06-28T10:59:44Z</time>
      </trkpt>
      <trkpt lat="44.1114" lon="7.31894">
        <ele>1818.257</ele>
        <time>2020-06-28T11:00:00Z</time>
      </trkpt>
      <trkpt lat="44.1114" lon="7.31897">
        <ele>1816.018</ele>
        <time>2020-06-28T11:00:15Z</time>
      </trkpt>
      <trkpt lat="44.11137" lon="7.31906">
        <ele>1812.477</ele>
        <time>2020-06-28T11:00:31Z</time>
      </trkpt>
      <trkpt lat="44.11133" lon="7.31912">
        <ele>1808.939</ele>
        <time>2020-06-28T11:00:47Z</time>
      </trkpt>
      <trkpt lat="44.1114" lon="7.31921">
        <ele>1811.262</ele>
        <time>2020-06-28T11:01:02Z</time>
      </trkpt>
      <trkpt lat="44.11131" lon="7.3191">
        <ele>1811.893</ele>
        <time>2020-06-28T11:01:18Z</time>
      </trkpt>
      <trkpt lat="44.11133" lon="7.31906">
        <ele>1810.746</ele>
        <time>2020-06-28T11:01:33Z</time>
      </trkpt>
      <trkpt lat="44.11138" lon="7.31877">
        <ele>1811.803</ele>
        <time>2020-06-28T11:01:49Z</time>
      </trkpt>
      <trkpt lat="44.11132" lon="7.31867">
        <ele>1816.469</ele>
        <time>2020-06-28T11:02:04Z</time>
      </trkpt>
      <trkpt lat="44.11124" lon="7.31856">
        <ele>1815.023</ele>
        <time>2020-06-28T11:02:20Z</time>
      </trkpt>
      <trkpt lat="44.11123" lon="7.31857">
        <ele>1817.305</ele>
        <time>2020-06-28T11:02:35Z</time>
      </trkpt>
      <trkpt lat="44.11109" lon="7.31822">
        <ele>1813.369</ele>
        <time>2020-06-28T11:02:51Z</time>
      </trkpt>
      <trkpt lat="44.11094" lon="7.31814">
        <ele>1804.495</ele>
        <time>2020-06-28T11:03:07Z</time>
      </trkpt>
      <trkpt lat="44.11097" lon="7.31806">
        <ele>1805.779</ele>
        <time>2020-06-28T11:03:22Z</time>
      </trkpt>
      <trkpt lat="44.11096" lon="7.31808">
        <ele>1806.616</ele>
        <time>2020-06-28T11:03:38Z</time>
      </trkpt>
      <trkpt lat="44.11083" lon="7.31802">
        <ele>1801.173</ele>
        <time>2020-06-28T11:03:53Z</time>
      </trkpt>
      <trkpt lat="44.11078" lon="7.31789">
        <ele>1801.371</ele>
        <time>2020-06-28T11:04:09Z</time>
      </trkpt>
      <trkpt lat="44.11068" lon="7.3179">
        <ele>1798.239</ele>
        <time>2020-06-28T11:04:25Z</time>
      </trkpt>
      <trkpt lat="44.11052" lon="7.31764">
        <ele>1795.404</ele>
        <time>2020-06-28T11:04:41Z</time>
      </trkpt>
      <trkpt lat="44.11052" lon="7.31757">
        <ele>1800.585</ele>
        <time>2020-06-28T11:04:57Z</time>
      </trkpt>
      <trkpt lat="44.1105" lon="7.3175">
        <ele>1798.536</ele>
        <time>2020-06-28T11:05:13Z</time>
      </trkpt>
      <trkpt lat="44.11032" lon="7.31748">
        <ele>1789.506</ele>
        <time>2020-06-28T11:05:29Z</time>
      </trkpt>
      <trkpt lat="44.11019" lon="7.31753">
        <ele>1782.371</ele>
        <time>2020-06-28T11:05:44Z</time>
      </trkpt>
      <trkpt lat="44.11018" lon="7.31742">
        <ele>1779.02</ele>
        <time>2020-06-28T11:05:59Z</time>
      </trkpt>
      <trkpt lat="44.11014" lon="7.31741">
        <ele>1779.188</ele>
        <time>2020-06-28T11:06:14Z</time>
      </trkpt>
      <trkpt lat="44.11005" lon="7.31735">
        <ele>1775.682</ele>
        <time>2020-06-28T11:06:30Z</time>
      </trkpt>
      <trkpt lat="44.11002" lon="7.31724">
        <ele>1774.852</ele>
        <time>2020-06-28T11:06:45Z</time>
      </trkpt>
      <trkpt lat="44.10995" lon="7.31709">
        <ele>1774.232</ele>
        <time>2020-06-28T11:07:01Z</time>
      </trkpt>
      <trkpt lat="44.10991" lon="7.31704">
        <ele>1776.071</ele>
        <time>2020-06-28T11:07:17Z</time>
      </trkpt>
      <trkpt lat="44.10991" lon="7.31704">
        <ele>1773.58</ele>
        <time>2020-06-28T11:07:32Z</time>
      </trkpt>
      <trkpt lat="44.10984" lon="7.31713">
        <ele>1775.129</ele>
        <time>2020-06-28T11:07:48Z</time>
      </trkpt>
      <trkpt lat="44.1098" lon="7.31715">
        <ele>1775.334</ele>
        <time>2020-06-28T11:08:03Z</time>
      </trkpt>
      <trkpt lat="44.10982" lon="7.31709">
        <ele>1774.385</ele>
        <time>2020-06-28T11:08:19Z</time>
      </trkpt>
      <trkpt lat="44.10986" lon="7.31697">
        <ele>1772.656</ele>
        <time>2020-06-28T11:08:35Z</time>
      </trkpt>
      <trkpt lat="44.10986" lon="7.31682">
        <ele>1770.552</ele>
        <time>2020-06-28T11:08:50Z</time>
      </trkpt>
      <trkpt lat="44.10972" lon="7.31663">
        <ele>1766.976</ele>
        <time>2020-06-28T11:09:06Z</time>
      </trkpt>
      <trkpt lat="44.10971" lon="7.31659">
        <ele>1763.5</ele>
        <time>2020-06-28T11:09:22Z</time>
      </trkpt>
      <trkpt lat="44.10967" lon="7.31664">
        <ele>1758.047</ele>
        <time>2020-06-28T11:09:38Z</time>
      </trkpt>
      <trkpt lat="44.10965" lon="7.31652">
        <ele>1758.081</ele>
        <time>2020-06-28T11:09:53Z</time>
      </trkpt>
      <trkpt lat="44.10962" lon="7.31638">
        <ele>1757.437</ele>
        <time>2020-06-28T11:10:08Z</time>
      </trkpt>
      <trkpt lat="44.10975" lon="7.3161">
        <ele>1753.754</ele>
        <time>2020-06-28T11:10:24Z</time>
      </trkpt>
      <trkpt lat="44.10972" lon="7.31608">
        <ele>1755.2</ele>
        <time>2020-06-28T11:10:40Z</time>
      </trkpt>
      <trkpt lat="44.10958" lon="7.31569">
        <ele>1755.729</ele>
        <time>2020-06-28T11:10:55Z</time>
      </trkpt>
      <trkpt lat="44.1096" lon="7.31568">
        <ele>1755.552</ele>
        <time>2020-06-28T11:11:11Z</time>
      </trkpt>
      <trkpt lat="44.10958" lon="7.31556">
        <ele>1753.264</ele>
        <time>2020-06-28T11:11:27Z</time>
      </trkpt>
      <trkpt lat="44.10951" lon="7.31532">
        <ele>1750.025</ele>
        <time>2020-06-28T11:11:42Z</time>
      </trkpt>
      <trkpt lat="44.1096" lon="7.31518">
        <ele>1747.412</ele>
        <time>2020-06-28T11:11:58Z</time>
      </trkpt>
      <trkpt lat="44.10975" lon="7.3151">
        <ele>1743.924</ele>
        <time>2020-06-28T11:12:14Z</time>
      </trkpt>
      <trkpt lat="44.10978" lon="7.31507">
        <ele>1743.569</ele>
        <time>2020-06-28T11:12:29Z</time>
      </trkpt>
      <trkpt lat="44.10967" lon="7.31472">
        <ele>1738.978</ele>
        <time>2020-06-28T11:12:44Z</time>
      </trkpt>
      <trkpt lat="44.10974" lon="7.31457">
        <ele>1736.662</ele>
        <time>2020-06-28T11:12:59Z</time>
      </trkpt>
      <trkpt lat="44.10996" lon="7.31435">
        <ele>1737.731</ele>
        <time>2020-06-28T11:13:15Z</time>
      </trkpt>
      <trkpt lat="44.11003" lon="7.31415">
        <ele>1720.858</ele>
        <time>2020-06-28T11:13:31Z</time>
      </trkpt>
      <trkpt lat="44.11009" lon="7.31392">
        <ele>1720.509</ele>
        <time>2020-06-28T11:13:47Z</time>
      </trkpt>
      <trkpt lat="44.11024" lon="7.31378">
        <ele>1715.245</ele>
        <time>2020-06-28T11:14:03Z</time>
      </trkpt>
      <trkpt lat="44.11033" lon="7.31356">
        <ele>1709.414</ele>
        <time>2020-06-28T11:14:18Z</time>
      </trkpt>
      <trkpt lat="44.11035" lon="7.31342">
        <ele>1709.403</ele>
        <time>2020-06-28T11:14:33Z</time>
      </trkpt>
      <trkpt lat="44.11038" lon="7.31313">
        <ele>1710.794</ele>
        <time>2020-06-28T11:14:48Z</time>
      </trkpt>
      <trkpt lat="44.11036" lon="7.31306">
        <ele>1713.036</ele>
        <time>2020-06-28T11:15:04Z</time>
      </trkpt>
      <trkpt lat="44.1103" lon="7.313">
        <ele>1713.253</ele>
        <time>2020-06-28T11:15:20Z</time>
      </trkpt>
      <trkpt lat="44.11032" lon="7.31286">
        <ele>1713.783</ele>
        <time>2020-06-28T11:15:35Z</time>
      </trkpt>
      <trkpt lat="44.11034" lon="7.31279">
        <ele>1713.938</ele>
        <time>2020-06-28T11:15:50Z</time>
      </trkpt>
      <trkpt lat="44.11044" lon="7.31266">
        <ele>1709.821</ele>
        <time>2020-06-28T11:16:06Z</time>
      </trkpt>
      <trkpt lat="44.11051" lon="7.31246">
        <ele>1705.674</ele>
        <time>2020-06-28T11:16:21Z</time>
      </trkpt>
      <trkpt lat="44.11055" lon="7.31234">
        <ele>1707.822</ele>
        <time>2020-06-28T11:16:37Z</time>
      </trkpt>
      <trkpt lat="44.1106" lon="7.31219">
        <ele>1705.193</ele>
        <time>2020-06-28T11:16:53Z</time>
      </trkpt>
      <trkpt lat="44.11063" lon="7.31201">
        <ele>1703.635</ele>
        <time>2020-06-28T11:17:08Z</time>
      </trkpt>
      <trkpt lat="44.1106" lon="7.31196">
        <ele>1704.197</ele>
        <time>2020-06-28T11:17:24Z</time>
      </trkpt>
      <trkpt lat="44.11051" lon="7.31185">
        <ele>1708.917</ele>
        <time>2020-06-28T11:17:40Z</time>
      </trkpt>
      <trkpt lat="44.11052" lon="7.31178">
        <ele>1712.796</ele>
        <time>2020-06-28T11:17:55Z</time>
      </trkpt>
      <trkpt lat="44.11046" lon="7.31173">
        <ele>1711.389</ele>
        <time>2020-06-28T11:18:11Z</time>
      </trkpt>
      <trkpt lat="44.11051" lon="7.31172">
        <ele>1706.186</ele>
        <time>2020-06-28T11:18:27Z</time>
      </trkpt>
      <trkpt lat="44.11067" lon="7.31164">
        <ele>1705.665</ele>
        <time>2020-06-28T11:18:43Z</time>
      </trkpt>
      <trkpt lat="44.11083" lon="7.31179">
        <ele>1695.766</ele>
        <time>2020-06-28T11:18:58Z</time>
      </trkpt>
      <trkpt lat="44.11083" lon="7.31179">
        <ele>1695.766</ele>
        <time>2020-06-28T11:19:15Z</time>
      </trkpt>
      <trkpt lat="44.11091" lon="7.31165">
        <ele>1692.778</ele>
        <time>2020-06-28T11:19:31Z</time>
      </trkpt>
      <trkpt lat="44.11101" lon="7.31154">
        <ele>1691.217</ele>
        <time>2020-06-28T11:19:46Z</time>
      </trkpt>
      <trkpt lat="44.11096" lon="7.31124">
        <ele>1683.83</ele>
        <time>2020-06-28T11:20:02Z</time>
      </trkpt>
      <trkpt lat="44.111" lon="7.31085">
        <ele>1674.958</ele>
        <time>2020-06-28T11:20:17Z</time>
      </trkpt>
      <trkpt lat="44.111" lon="7.31074">
        <ele>1673.025</ele>
        <time>2020-06-28T11:20:33Z</time>
      </trkpt>
      <trkpt lat="44.11101" lon="7.31059">
        <ele>1677.696</ele>
        <time>2020-06-28T11:20:49Z</time>
      </trkpt>
      <trkpt lat="44.11103" lon="7.31029">
        <ele>1674.244</ele>
        <time>2020-06-28T11:21:04Z</time>
      </trkpt>
      <trkpt lat="44.11106" lon="7.31013">
        <ele>1672.444</ele>
        <time>2020-06-28T11:21:19Z</time>
      </trkpt>
      <trkpt lat="44.11111" lon="7.31007">
        <ele>1675.516</ele>
        <time>2020-06-28T11:21:35Z</time>
      </trkpt>
      <trkpt lat="44.11107" lon="7.30999">
        <ele>1677.286</ele>
        <time>2020-06-28T11:21:51Z</time>
      </trkpt>
      <trkpt lat="44.1111" lon="7.30984">
        <ele>1678.53</ele>
        <time>2020-06-28T11:22:07Z</time>
      </trkpt>
      <trkpt lat="44.11118" lon="7.3096">
        <ele>1682.232</ele>
        <time>2020-06-28T11:22:23Z</time>
      </trkpt>
      <trkpt lat="44.11133" lon="7.30952">
        <ele>1679.064</ele>
        <time>2020-06-28T11:22:39Z</time>
      </trkpt>
      <trkpt lat="44.11134" lon="7.3094">
        <ele>1684.902</ele>
        <time>2020-06-28T11:22:54Z</time>
      </trkpt>
      <trkpt lat="44.11142" lon="7.30919">
        <ele>1688.394</ele>
        <time>2020-06-28T11:23:10Z</time>
      </trkpt>
      <trkpt lat="44.11152" lon="7.30898">
        <ele>1685.264</ele>
        <time>2020-06-28T11:23:26Z</time>
      </trkpt>
      <trkpt lat="44.11163" lon="7.30891">
        <ele>1688.539</ele>
        <time>2020-06-28T11:23:42Z</time>
      </trkpt>
      <trkpt lat="44.11164" lon="7.30873">
        <ele>1691.129</ele>
        <time>2020-06-28T11:23:58Z</time>
      </trkpt>
      <trkpt lat="44.11168" lon="7.30841">
        <ele>1695.552</ele>
        <time>2020-06-28T11:24:14Z</time>
      </trkpt>
      <trkpt lat="44.11174" lon="7.30839">
        <ele>1692.2</ele>
        <time>2020-06-28T11:24:29Z</time>
      </trkpt>
      <trkpt lat="44.11192" lon="7.30814">
        <ele>1688.916</ele>
        <time>2020-06-28T11:24:45Z</time>
      </trkpt>
      <trkpt lat="44.1121" lon="7.30787">
        <ele>1690.105</ele>
        <time>2020-06-28T11:25:01Z</time>
      </trkpt>
      <trkpt lat="44.1121" lon="7.30786">
        <ele>1692.456</ele>
        <time>2020-06-28T11:25:16Z</time>
      </trkpt>
      <trkpt lat="44.11217" lon="7.3078">
        <ele>1689.414</ele>
        <time>2020-06-28T11:25:31Z</time>
      </trkpt>
      <trkpt lat="44.11222" lon="7.30772">
        <ele>1691.054</ele>
        <time>2020-06-28T11:25:46Z</time>
      </trkpt>
      <trkpt lat="44.11222" lon="7.30758">
        <ele>1691.772</ele>
        <time>2020-06-28T11:26:02Z</time>
      </trkpt>
      <trkpt lat="44.11228" lon="7.30751">
        <ele>1693.594</ele>
        <time>2020-06-28T11:26:17Z</time>
      </trkpt>
      <trkpt lat="44.11226" lon="7.30716">
        <ele>1698.964</ele>
        <time>2020-06-28T11:26:33Z</time>
      </trkpt>
      <trkpt lat="44.11217" lon="7.30699">
        <ele>1699.256</ele>
        <time>2020-06-28T11:26:48Z</time>
      </trkpt>
      <trkpt lat="44.11212" lon="7.30684">
        <ele>1697.268</ele>
        <time>2020-06-28T11:27:03Z</time>
      </trkpt>
      <trkpt lat="44.11214" lon="7.30675">
        <ele>1693.017</ele>
        <time>2020-06-28T11:27:19Z</time>
      </trkpt>
      <trkpt lat="44.11225" lon="7.30673">
        <ele>1698.077</ele>
        <time>2020-06-28T11:27:34Z</time>
      </trkpt>
      <trkpt lat="44.11229" lon="7.30675">
        <ele>1698.027</ele>
        <time>2020-06-28T11:27:49Z</time>
      </trkpt>
      <trkpt lat="44.11226" lon="7.30672">
        <ele>1698.221</ele>
        <time>2020-06-28T11:28:05Z</time>
      </trkpt>
      <trkpt lat="44.11221" lon="7.30648">
        <ele>1702.77</ele>
        <time>2020-06-28T11:28:20Z</time>
      </trkpt>
      <trkpt lat="44.11228" lon="7.3064">
        <ele>1706.988</ele>
        <time>2020-06-28T11:28:35Z</time>
      </trkpt>
      <trkpt lat="44.11229" lon="7.30629">
        <ele>1705.974</ele>
        <time>2020-06-28T11:28:51Z</time>
      </trkpt>
      <trkpt lat="44.11226" lon="7.30622">
        <ele>1707.898</ele>
        <time>2020-06-28T11:29:06Z</time>
      </trkpt>
      <trkpt lat="44.11224" lon="7.30619">
        <ele>1710.024</ele>
        <time>2020-06-28T11:29:22Z</time>
      </trkpt>
      <trkpt lat="44.11222" lon="7.3062">
        <ele>1711.643</ele>
        <time>2020-06-28T11:29:38Z</time>
      </trkpt>
      <trkpt lat="44.11222" lon="7.30619">
        <ele>1714.721</ele>
        <time>2020-06-28T11:29:54Z</time>
      </trkpt>
      <trkpt lat="44.11222" lon="7.30619">
        <ele>1714.721</ele>
        <time>2020-06-28T11:30:09Z</time>
      </trkpt>
      <trkpt lat="44.11223" lon="7.30611">
        <ele>1715.801</ele>
        <time>2020-06-28T11:30:25Z</time>
      </trkpt>
      <trkpt lat="44.11224" lon="7.306">
        <ele>1720.817</ele>
        <time>2020-06-28T11:30:40Z</time>
      </trkpt>
      <trkpt lat="44.11225" lon="7.30592">
        <ele>1723.137</ele>
        <time>2020-06-28T11:30:55Z</time>
      </trkpt>
      <trkpt lat="44.11225" lon="7.30592">
        <ele>1723.137</ele>
        <time>2020-06-28T11:31:10Z</time>
      </trkpt>
      <trkpt lat="44.11225" lon="7.30592">
        <ele>1723.137</ele>
        <time>2020-06-28T11:31:26Z</time>
      </trkpt>
      <trkpt lat="44.11229" lon="7.3058">
        <ele>1730.911</ele>
        <time>2020-06-28T11:31:42Z</time>
      </trkpt>
      <trkpt lat="44.1123" lon="7.30562">
        <ele>1727.282</ele>
        <time>2020-06-28T11:31:57Z</time>
      </trkpt>
      <trkpt lat="44.1123" lon="7.30561">
        <ele>1727.038</ele>
        <time>2020-06-28T11:32:13Z</time>
      </trkpt>
      <trkpt lat="44.1123" lon="7.30561">
        <ele>1727.038</ele>
        <time>2020-06-28T11:32:29Z</time>
      </trkpt>
      <trkpt lat="44.1123" lon="7.30561">
        <ele>1727.038</ele>
        <time>2020-06-28T11:32:44Z</time>
      </trkpt>
      <trkpt lat="44.11234" lon="7.30536">
        <ele>1730.523</ele>
        <time>2020-06-28T11:32:59Z</time>
      </trkpt>
      <trkpt lat="44.11251" lon="7.3052">
        <ele>1730.821</ele>
        <time>2020-06-28T11:33:15Z</time>
      </trkpt>
      <trkpt lat="44.1125" lon="7.30513">
        <ele>1735.154</ele>
        <time>2020-06-28T11:33:31Z</time>
      </trkpt>
      <trkpt lat="44.11266" lon="7.30494">
        <ele>1731.21</ele>
        <time>2020-06-28T11:33:47Z</time>
      </trkpt>
      <trkpt lat="44.11278" lon="7.30488">
        <ele>1729.371</ele>
        <time>2020-06-28T11:34:03Z</time>
      </trkpt>
      <trkpt lat="44.11282" lon="7.30497">
        <ele>1727.11</ele>
        <time>2020-06-28T11:34:19Z</time>
      </trkpt>
      <trkpt lat="44.11292" lon="7.30479">
        <ele>1724.195</ele>
        <time>2020-06-28T11:34:34Z</time>
      </trkpt>
      <trkpt lat="44.11295" lon="7.30467">
        <ele>1730.605</ele>
        <time>2020-06-28T11:34:50Z</time>
      </trkpt>
      <trkpt lat="44.11295" lon="7.30447">
        <ele>1729.818</ele>
        <time>2020-06-28T11:35:05Z</time>
      </trkpt>
      <trkpt lat="44.11285" lon="7.30405">
        <ele>1728.613</ele>
        <time>2020-06-28T11:35:21Z</time>
      </trkpt>
      <trkpt lat="44.11307" lon="7.30398">
        <ele>1726.948</ele>
        <time>2020-06-28T11:35:37Z</time>
      </trkpt>
      <trkpt lat="44.11318" lon="7.30388">
        <ele>1730.1</ele>
        <time>2020-06-28T11:35:53Z</time>
      </trkpt>
      <trkpt lat="44.1132" lon="7.30358">
        <ele>1725.022</ele>
        <time>2020-06-28T11:36:08Z</time>
      </trkpt>
      <trkpt lat="44.11323" lon="7.3033">
        <ele>1733.442</ele>
        <time>2020-06-28T11:36:24Z</time>
      </trkpt>
      <trkpt lat="44.11325" lon="7.3033">
        <ele>1732.813</ele>
        <time>2020-06-28T11:36:40Z</time>
      </trkpt>
      <trkpt lat="44.11325" lon="7.30313">
        <ele>1730.578</ele>
        <time>2020-06-28T11:36:56Z</time>
      </trkpt>
      <trkpt lat="44.1133" lon="7.30306">
        <ele>1728.1</ele>
        <time>2020-06-28T11:37:11Z</time>
      </trkpt>
      <trkpt lat="44.11338" lon="7.30288">
        <ele>1728.197</ele>
        <time>2020-06-28T11:37:26Z</time>
      </trkpt>
      <trkpt lat="44.11348" lon="7.30273">
        <ele>1732.055</ele>
        <time>2020-06-28T11:37:42Z</time>
      </trkpt>
      <trkpt lat="44.11353" lon="7.30243">
        <ele>1731.995</ele>
        <time>2020-06-28T11:37:58Z</time>
      </trkpt>
      <trkpt lat="44.11353" lon="7.3023">
        <ele>1730.234</ele>
        <time>2020-06-28T11:38:13Z</time>
      </trkpt>
      <trkpt lat="44.11363" lon="7.30204">
        <ele>1728.939</ele>
        <time>2020-06-28T11:38:29Z</time>
      </trkpt>
      <trkpt lat="44.11371" lon="7.30191">
        <ele>1728.236</ele>
        <time>2020-06-28T11:38:44Z</time>
      </trkpt>
      <trkpt lat="44.11372" lon="7.3019">
        <ele>1728.438</ele>
        <time>2020-06-28T11:39:00Z</time>
      </trkpt>
      <trkpt lat="44.11379" lon="7.30166">
        <ele>1727.397</ele>
        <time>2020-06-28T11:39:16Z</time>
      </trkpt>
      <trkpt lat="44.11388" lon="7.30141">
        <ele>1729.999</ele>
        <time>2020-06-28T11:39:32Z</time>
      </trkpt>
      <trkpt lat="44.11387" lon="7.30115">
        <ele>1733.463</ele>
        <time>2020-06-28T11:39:48Z</time>
      </trkpt>
      <trkpt lat="44.11396" lon="7.30095">
        <ele>1739.278</ele>
        <time>2020-06-28T11:40:04Z</time>
      </trkpt>
      <trkpt lat="44.11402" lon="7.30075">
        <ele>1738.782</ele>
        <time>2020-06-28T11:40:20Z</time>
      </trkpt>
      <trkpt lat="44.11412" lon="7.30055">
        <ele>1737.412</ele>
        <time>2020-06-28T11:40:36Z</time>
      </trkpt>
      <trkpt lat="44.11422" lon="7.30034">
        <ele>1736.064</ele>
        <time>2020-06-28T11:40:51Z</time>
      </trkpt>
      <trkpt lat="44.11422" lon="7.3002">
        <ele>1734.343</ele>
        <time>2020-06-28T11:41:06Z</time>
      </trkpt>
      <trkpt lat="44.11435" lon="7.30013">
        <ele>1731.627</ele>
        <time>2020-06-28T11:41:22Z</time>
      </trkpt>
      <trkpt lat="44.11437" lon="7.30003">
        <ele>1731.391</ele>
        <time>2020-06-28T11:41:38Z</time>
      </trkpt>
      <trkpt lat="44.11432" lon="7.29978">
        <ele>1733.627</ele>
        <time>2020-06-28T11:41:53Z</time>
      </trkpt>
      <trkpt lat="44.11436" lon="7.29963">
        <ele>1734.784</ele>
        <time>2020-06-28T11:42:09Z</time>
      </trkpt>
      <trkpt lat="44.11447" lon="7.2994">
        <ele>1736.085</ele>
        <time>2020-06-28T11:42:24Z</time>
      </trkpt>
      <trkpt lat="44.11457" lon="7.29915">
        <ele>1736.177</ele>
        <time>2020-06-28T11:42:40Z</time>
      </trkpt>
      <trkpt lat="44.11465" lon="7.29901">
        <ele>1737.154</ele>
        <time>2020-06-28T11:42:55Z</time>
      </trkpt>
      <trkpt lat="44.11468" lon="7.29885">
        <ele>1734.577</ele>
        <time>2020-06-28T11:43:10Z</time>
      </trkpt>
      <trkpt lat="44.11465" lon="7.29868">
        <ele>1739.925</ele>
        <time>2020-06-28T11:43:26Z</time>
      </trkpt>
      <trkpt lat="44.1147" lon="7.29858">
        <ele>1738.144</ele>
        <time>2020-06-28T11:43:41Z</time>
      </trkpt>
      <trkpt lat="44.11472" lon="7.29844">
        <ele>1741.104</ele>
        <time>2020-06-28T11:43:57Z</time>
      </trkpt>
      <trkpt lat="44.11478" lon="7.29823">
        <ele>1746.003</ele>
        <time>2020-06-28T11:44:13Z</time>
      </trkpt>
      <trkpt lat="44.11485" lon="7.29798">
        <ele>1745.501</ele>
        <time>2020-06-28T11:44:28Z</time>
      </trkpt>
      <trkpt lat="44.11482" lon="7.29762">
        <ele>1741.234</ele>
        <time>2020-06-28T11:44:44Z</time>
      </trkpt>
      <trkpt lat="44.11492" lon="7.29748">
        <ele>1734.11</ele>
        <time>2020-06-28T11:45:00Z</time>
      </trkpt>
      <trkpt lat="44.115" lon="7.29729">
        <ele>1728.613</ele>
        <time>2020-06-28T11:45:16Z</time>
      </trkpt>
      <trkpt lat="44.11508" lon="7.29709">
        <ele>1729.652</ele>
        <time>2020-06-28T11:45:31Z</time>
      </trkpt>
      <trkpt lat="44.11506" lon="7.29689">
        <ele>1732.829</ele>
        <time>2020-06-28T11:45:47Z</time>
      </trkpt>
      <trkpt lat="44.11513" lon="7.29676">
        <ele>1732.808</ele>
        <time>2020-06-28T11:46:02Z</time>
      </trkpt>
      <trkpt lat="44.11523" lon="7.29654">
        <ele>1730.577</ele>
        <time>2020-06-28T11:46:18Z</time>
      </trkpt>
      <trkpt lat="44.11533" lon="7.29631">
        <ele>1730.237</ele>
        <time>2020-06-28T11:46:33Z</time>
      </trkpt>
      <trkpt lat="44.11538" lon="7.29598">
        <ele>1730.845</ele>
        <time>2020-06-28T11:46:49Z</time>
      </trkpt>
      <trkpt lat="44.11546" lon="7.29573">
        <ele>1729.272</ele>
        <time>2020-06-28T11:47:05Z</time>
      </trkpt>
      <trkpt lat="44.11557" lon="7.29564">
        <ele>1732.618</ele>
        <time>2020-06-28T11:47:21Z</time>
      </trkpt>
      <trkpt lat="44.11567" lon="7.29535">
        <ele>1730.065</ele>
        <time>2020-06-28T11:47:36Z</time>
      </trkpt>
      <trkpt lat="44.1157" lon="7.29523">
        <ele>1732.44</ele>
        <time>2020-06-28T11:47:52Z</time>
      </trkpt>
      <trkpt lat="44.1158" lon="7.29501">
        <ele>1726.288</ele>
        <time>2020-06-28T11:48:08Z</time>
      </trkpt>
      <trkpt lat="44.11595" lon="7.29491">
        <ele>1729.015</ele>
        <time>2020-06-28T11:48:23Z</time>
      </trkpt>
      <trkpt lat="44.11616" lon="7.29476">
        <ele>1730.805</ele>
        <time>2020-06-28T11:48:38Z</time>
      </trkpt>
      <trkpt lat="44.11623" lon="7.29452">
        <ele>1734.689</ele>
        <time>2020-06-28T11:48:54Z</time>
      </trkpt>
      <trkpt lat="44.11632" lon="7.29454">
        <ele>1729.026</ele>
        <time>2020-06-28T11:49:10Z</time>
      </trkpt>
      <trkpt lat="44.11643" lon="7.2944">
        <ele>1732.532</ele>
        <time>2020-06-28T11:49:25Z</time>
      </trkpt>
      <trkpt lat="44.11655" lon="7.2944">
        <ele>1728.303</ele>
        <time>2020-06-28T11:49:41Z</time>
      </trkpt>
      <trkpt lat="44.11652" lon="7.29433">
        <ele>1726.479</ele>
        <time>2020-06-28T11:49:57Z</time>
      </trkpt>
      <trkpt lat="44.11631" lon="7.29432">
        <ele>1724.502</ele>
        <time>2020-06-28T11:50:13Z</time>
      </trkpt>
      <trkpt lat="44.1162" lon="7.29423">
        <ele>1721.754</ele>
        <time>2020-06-28T11:50:29Z</time>
      </trkpt>
      <trkpt lat="44.1161" lon="7.29427">
        <ele>1719.533</ele>
        <time>2020-06-28T11:50:45Z</time>
      </trkpt>
      <trkpt lat="44.11616" lon="7.29428">
        <ele>1717.359</ele>
        <time>2020-06-28T11:51:00Z</time>
      </trkpt>
      <trkpt lat="44.11613" lon="7.29421">
        <ele>1712.878</ele>
        <time>2020-06-28T11:51:16Z</time>
      </trkpt>
      <trkpt lat="44.11618" lon="7.2942">
        <ele>1710.962</ele>
        <time>2020-06-28T11:51:31Z</time>
      </trkpt>
      <trkpt lat="44.11618" lon="7.29407">
        <ele>1709.13</ele>
        <time>2020-06-28T11:51:47Z</time>
      </trkpt>
      <trkpt lat="44.11637" lon="7.29412">
        <ele>1711.035</ele>
        <time>2020-06-28T11:52:02Z</time>
      </trkpt>
      <trkpt lat="44.11649" lon="7.29396">
        <ele>1707.344</ele>
        <time>2020-06-28T11:52:17Z</time>
      </trkpt>
      <trkpt lat="44.11658" lon="7.29385">
        <ele>1706.113</ele>
        <time>2020-06-28T11:52:32Z</time>
      </trkpt>
      <trkpt lat="44.11667" lon="7.29363">
        <ele>1709.489</ele>
        <time>2020-06-28T11:52:48Z</time>
      </trkpt>
      <trkpt lat="44.11673" lon="7.29362">
        <ele>1708.112</ele>
        <time>2020-06-28T11:53:04Z</time>
      </trkpt>
      <trkpt lat="44.1167" lon="7.29357">
        <ele>1706.662</ele>
        <time>2020-06-28T11:53:20Z</time>
      </trkpt>
      <trkpt lat="44.11663" lon="7.29338">
        <ele>1704.935</ele>
        <time>2020-06-28T11:53:35Z</time>
      </trkpt>
      <trkpt lat="44.11646" lon="7.29323">
        <ele>1707.319</ele>
        <time>2020-06-28T11:53:51Z</time>
      </trkpt>
      <trkpt lat="44.11655" lon="7.2931">
        <ele>1703.168</ele>
        <time>2020-06-28T11:54:07Z</time>
      </trkpt>
      <trkpt lat="44.11665" lon="7.29301">
        <ele>1701.862</ele>
        <time>2020-06-28T11:54:23Z</time>
      </trkpt>
      <trkpt lat="44.11678" lon="7.29295">
        <ele>1702.549</ele>
        <time>2020-06-28T11:54:39Z</time>
      </trkpt>
      <trkpt lat="44.11678" lon="7.293">
        <ele>1702.259</ele>
        <time>2020-06-28T11:54:54Z</time>
      </trkpt>
      <trkpt lat="44.11686" lon="7.29317">
        <ele>1701.692</ele>
        <time>2020-06-28T11:55:10Z</time>
      </trkpt>
      <trkpt lat="44.11676" lon="7.2925">
        <ele>1706.244</ele>
        <time>2020-06-28T11:55:25Z</time>
      </trkpt>
      <trkpt lat="44.11675" lon="7.29251">
        <ele>1706.198</ele>
        <time>2020-06-28T11:55:40Z</time>
      </trkpt>
      <trkpt lat="44.11672" lon="7.29245">
        <ele>1706.249</ele>
        <time>2020-06-28T11:55:56Z</time>
      </trkpt>
      <trkpt lat="44.11672" lon="7.29233">
        <ele>1699.024</ele>
        <time>2020-06-28T11:56:11Z</time>
      </trkpt>
      <trkpt lat="44.11663" lon="7.29216">
        <ele>1696.251</ele>
        <time>2020-06-28T11:56:27Z</time>
      </trkpt>
      <trkpt lat="44.11663" lon="7.29222">
        <ele>1695.421</ele>
        <time>2020-06-28T11:56:43Z</time>
      </trkpt>
      <trkpt lat="44.11654" lon="7.29204">
        <ele>1690.459</ele>
        <time>2020-06-28T11:56:58Z</time>
      </trkpt>
      <trkpt lat="44.1165" lon="7.29196">
        <ele>1685.341</ele>
        <time>2020-06-28T11:57:14Z</time>
      </trkpt>
      <trkpt lat="44.11646" lon="7.29187">
        <ele>1683.423</ele>
        <time>2020-06-28T11:57:30Z</time>
      </trkpt>
      <trkpt lat="44.11648" lon="7.29179">
        <ele>1686.578</ele>
        <time>2020-06-28T11:57:45Z</time>
      </trkpt>
      <trkpt lat="44.11645" lon="7.29153">
        <ele>1690.083</ele>
        <time>2020-06-28T11:58:01Z</time>
      </trkpt>
      <trkpt lat="44.11648" lon="7.29134">
        <ele>1688.218</ele>
        <time>2020-06-28T11:58:17Z</time>
      </trkpt>
      <trkpt lat="44.11647" lon="7.29132">
        <ele>1687.145</ele>
        <time>2020-06-28T11:58:33Z</time>
      </trkpt>
      <trkpt lat="44.11648" lon="7.29123">
        <ele>1687.93</ele>
        <time>2020-06-28T11:58:49Z</time>
      </trkpt>
      <trkpt lat="44.11642" lon="7.29107">
        <ele>1686.522</ele>
        <time>2020-06-28T11:59:05Z</time>
      </trkpt>
      <trkpt lat="44.11628" lon="7.29082">
        <ele>1681.958</ele>
        <time>2020-06-28T11:59:21Z</time>
      </trkpt>
      <trkpt lat="44.11618" lon="7.29049">
        <ele>1671.129</ele>
        <time>2020-06-28T11:59:37Z</time>
      </trkpt>
      <trkpt lat="44.11607" lon="7.29045">
        <ele>1663.304</ele>
        <time>2020-06-28T11:59:52Z</time>
      </trkpt>
      <trkpt lat="44.11602" lon="7.29038">
        <ele>1667.661</ele>
        <time>2020-06-28T12:00:07Z</time>
      </trkpt>
      <trkpt lat="44.11591" lon="7.29031">
        <ele>1657.239</ele>
        <time>2020-06-28T12:00:23Z</time>
      </trkpt>
      <trkpt lat="44.11586" lon="7.29028">
        <ele>1650.619</ele>
        <time>2020-06-28T12:00:38Z</time>
      </trkpt>
      <trkpt lat="44.11586" lon="7.29029">
        <ele>1652.376</ele>
        <time>2020-06-28T12:00:53Z</time>
      </trkpt>
      <trkpt lat="44.11579" lon="7.29017">
        <ele>1652.464</ele>
        <time>2020-06-28T12:01:09Z</time>
      </trkpt>
      <trkpt lat="44.11562" lon="7.29021">
        <ele>1645.46</ele>
        <time>2020-06-28T12:01:25Z</time>
      </trkpt>
      <trkpt lat="44.11556" lon="7.29012">
        <ele>1637.542</ele>
        <time>2020-06-28T12:01:41Z</time>
      </trkpt>
      <trkpt lat="44.11552" lon="7.28998">
        <ele>1634.944</ele>
        <time>2020-06-28T12:01:56Z</time>
      </trkpt>
      <trkpt lat="44.11546" lon="7.28977">
        <ele>1628.338</ele>
        <time>2020-06-28T12:02:12Z</time>
      </trkpt>
      <trkpt lat="44.11534" lon="7.2896">
        <ele>1621.633</ele>
        <time>2020-06-28T12:02:28Z</time>
      </trkpt>
      <trkpt lat="44.11522" lon="7.28946">
        <ele>1622.558</ele>
        <time>2020-06-28T12:02:43Z</time>
      </trkpt>
      <trkpt lat="44.11523" lon="7.2893">
        <ele>1624.777</ele>
        <time>2020-06-28T12:02:59Z</time>
      </trkpt>
      <trkpt lat="44.11518" lon="7.28936">
        <ele>1623.008</ele>
        <time>2020-06-28T12:03:15Z</time>
      </trkpt>
      <trkpt lat="44.11524" lon="7.28928">
        <ele>1621.963</ele>
        <time>2020-06-28T12:03:31Z</time>
      </trkpt>
      <trkpt lat="44.11535" lon="7.28947">
        <ele>1620.652</ele>
        <time>2020-06-28T12:03:47Z</time>
      </trkpt>
      <trkpt lat="44.11515" lon="7.28923">
        <ele>1622.495</ele>
        <time>2020-06-28T12:04:02Z</time>
      </trkpt>
      <trkpt lat="44.1151" lon="7.28907">
        <ele>1620.176</ele>
        <time>2020-06-28T12:04:18Z</time>
      </trkpt>
      <trkpt lat="44.11514" lon="7.28896">
        <ele>1615.779</ele>
        <time>2020-06-28T12:04:34Z</time>
      </trkpt>
      <trkpt lat="44.1151" lon="7.28873">
        <ele>1617.744</ele>
        <time>2020-06-28T12:04:49Z</time>
      </trkpt>
      <trkpt lat="44.11507" lon="7.28846">
        <ele>1612.47</ele>
        <time>2020-06-28T12:05:04Z</time>
      </trkpt>
      <trkpt lat="44.11505" lon="7.28825">
        <ele>1611.779</ele>
        <time>2020-06-28T12:05:20Z</time>
      </trkpt>
      <trkpt lat="44.11498" lon="7.28801">
        <ele>1613.056</ele>
        <time>2020-06-28T12:05:35Z</time>
      </trkpt>
      <trkpt lat="44.11495" lon="7.2878">
        <ele>1617.758</ele>
        <time>2020-06-28T12:05:51Z</time>
      </trkpt>
      <trkpt lat="44.11495" lon="7.28757">
        <ele>1621.118</ele>
        <time>2020-06-28T12:06:07Z</time>
      </trkpt>
      <trkpt lat="44.11476" lon="7.28771">
        <ele>1627.137</ele>
        <time>2020-06-28T12:06:22Z</time>
      </trkpt>
      <trkpt lat="44.11465" lon="7.28793">
        <ele>1617.485</ele>
        <time>2020-06-28T12:06:38Z</time>
      </trkpt>
      <trkpt lat="44.11462" lon="7.28813">
        <ele>1603.459</ele>
        <time>2020-06-28T12:06:53Z</time>
      </trkpt>
      <trkpt lat="44.11453" lon="7.28823">
        <ele>1593.264</ele>
        <time>2020-06-28T12:07:09Z</time>
      </trkpt>
      <trkpt lat="44.11444" lon="7.28801">
        <ele>1592.967</ele>
        <time>2020-06-28T12:07:25Z</time>
      </trkpt>
      <trkpt lat="44.11444" lon="7.28791">
        <ele>1594.086</ele>
        <time>2020-06-28T12:07:41Z</time>
      </trkpt>
      <trkpt lat="44.11446" lon="7.28773">
        <ele>1595.132</ele>
        <time>2020-06-28T12:07:57Z</time>
      </trkpt>
      <trkpt lat="44.11446" lon="7.28772">
        <ele>1595.123</ele>
        <time>2020-06-28T12:08:12Z</time>
      </trkpt>
      <trkpt lat="44.11446" lon="7.28764">
        <ele>1590.709</ele>
        <time>2020-06-28T12:08:28Z</time>
      </trkpt>
      <trkpt lat="44.11444" lon="7.2874">
        <ele>1585.86</ele>
        <time>2020-06-28T12:08:43Z</time>
      </trkpt>
      <trkpt lat="44.11442" lon="7.28715">
        <ele>1583.769</ele>
        <time>2020-06-28T12:08:59Z</time>
      </trkpt>
      <trkpt lat="44.11442" lon="7.2869">
        <ele>1579.543</ele>
        <time>2020-06-28T12:09:14Z</time>
      </trkpt>
      <trkpt lat="44.11444" lon="7.28666">
        <ele>1576.625</ele>
        <time>2020-06-28T12:09:30Z</time>
      </trkpt>
      <trkpt lat="44.11437" lon="7.28662">
        <ele>1577.979</ele>
        <time>2020-06-28T12:09:45Z</time>
      </trkpt>
      <trkpt lat="44.11434" lon="7.28674">
        <ele>1572.654</ele>
        <time>2020-06-28T12:10:01Z</time>
      </trkpt>
      <trkpt lat="44.11434" lon="7.28674">
        <ele>1572.654</ele>
        <time>2020-06-28T12:10:17Z</time>
      </trkpt>
      <trkpt lat="44.11434" lon="7.28674">
        <ele>1572.654</ele>
        <time>2020-06-28T12:10:33Z</time>
      </trkpt>
      <trkpt lat="44.11434" lon="7.28674">
        <ele>1572.654</ele>
        <time>2020-06-28T12:10:48Z</time>
      </trkpt>
      <trkpt lat="44.11434" lon="7.28674">
        <ele>1572.654</ele>
        <time>2020-06-28T12:11:05Z</time>
      </trkpt>
      <trkpt lat="44.11434" lon="7.28674">
        <ele>1572.654</ele>
        <time>2020-06-28T12:11:21Z</time>
      </trkpt>
      <trkpt lat="44.11437" lon="7.28673">
        <ele>1572.311</ele>
        <time>2020-06-28T12:11:36Z</time>
      </trkpt>
      <trkpt lat="44.11437" lon="7.28673">
        <ele>1572.311</ele>
        <time>2020-06-28T12:11:52Z</time>
      </trkpt>
      <trkpt lat="44.11437" lon="7.28673">
        <ele>1572.311</ele>
        <time>2020-06-28T12:12:07Z</time>
      </trkpt>
      <trkpt lat="44.11437" lon="7.28673">
        <ele>1572.311</ele>
        <time>2020-06-28T12:12:23Z</time>
      </trkpt>
      <trkpt lat="44.11437" lon="7.28673">
        <ele>1572.311</ele>
        <time>2020-06-28T12:12:39Z</time>
      </trkpt>
      <trkpt lat="44.11437" lon="7.28673">
        <ele>1572.311</ele>
        <time>2020-06-28T12:12:55Z</time>
      </trkpt>
      <trkpt lat="44.11437" lon="7.28673">
        <ele>1572.311</ele>
        <time>2020-06-28T12:13:10Z</time>
      </trkpt>
      <trkpt lat="44.11437" lon="7.28673">
        <ele>1572.311</ele>
        <time>2020-06-28T12:13:25Z</time>
      </trkpt>
      <trkpt lat="44.11438" lon="7.28674">
        <ele>1572.095</ele>
        <time>2020-06-28T12:13:41Z</time>
      </trkpt>
      <trkpt lat="44.11438" lon="7.28674">
        <ele>1572.095</ele>
        <time>2020-06-28T12:13:56Z</time>
      </trkpt>
      <trkpt lat="44.1144" lon="7.28672">
        <ele>1571.753</ele>
        <time>2020-06-28T12:14:11Z</time>
      </trkpt>
      <trkpt lat="44.1144" lon="7.28672">
        <ele>1571.753</ele>
        <time>2020-06-28T12:14:26Z</time>
      </trkpt>
      <trkpt lat="44.1144" lon="7.28672">
        <ele>1571.753</ele>
        <time>2020-06-28T12:14:42Z</time>
      </trkpt>
      <trkpt lat="44.11434" lon="7.28674">
        <ele>1571.828</ele>
        <time>2020-06-28T12:14:57Z</time>
      </trkpt>
      <trkpt lat="44.11433" lon="7.28667">
        <ele>1569.908</ele>
        <time>2020-06-28T12:15:12Z</time>
      </trkpt>
      <trkpt lat="44.11433" lon="7.28663">
        <ele>1570.599</ele>
        <time>2020-06-28T12:15:27Z</time>
      </trkpt>
      <trkpt lat="44.11433" lon="7.28663">
        <ele>1570.599</ele>
        <time>2020-06-28T12:15:43Z</time>
      </trkpt>
      <trkpt lat="44.11437" lon="7.28664">
        <ele>1571.028</ele>
        <time>2020-06-28T12:15:59Z</time>
      </trkpt>
      <trkpt lat="44.11437" lon="7.28664">
        <ele>1571.028</ele>
        <time>2020-06-28T12:16:14Z</time>
      </trkpt>
      <trkpt lat="44.11436" lon="7.28664">
        <ele>1568.002</ele>
        <time>2020-06-28T12:16:30Z</time>
      </trkpt>
      <trkpt lat="44.11436" lon="7.28664">
        <ele>1568.002</ele>
        <time>2020-06-28T12:16:45Z</time>
      </trkpt>
      <trkpt lat="44.11442" lon="7.28655">
        <ele>1571.082</ele>
        <time>2020-06-28T12:17:01Z</time>
      </trkpt>
      <trkpt lat="44.11448" lon="7.28657">
        <ele>1570.518</ele>
        <time>2020-06-28T12:17:17Z</time>
      </trkpt>
      <trkpt lat="44.11449" lon="7.28657">
        <ele>1570.804</ele>
        <time>2020-06-28T12:17:32Z</time>
      </trkpt>
      <trkpt lat="44.11449" lon="7.28656">
        <ele>1570.799</ele>
        <time>2020-06-28T12:17:47Z</time>
      </trkpt>
      <trkpt lat="44.11454" lon="7.28659">
        <ele>1568.972</ele>
        <time>2020-06-28T12:18:03Z</time>
      </trkpt>
      <trkpt lat="44.11451" lon="7.28659">
        <ele>1570.719</ele>
        <time>2020-06-28T12:18:18Z</time>
      </trkpt>
      <trkpt lat="44.11451" lon="7.28659">
        <ele>1570.719</ele>
        <time>2020-06-28T12:18:34Z</time>
      </trkpt>
      <trkpt lat="44.11451" lon="7.28659">
        <ele>1570.719</ele>
        <time>2020-06-28T12:18:50Z</time>
      </trkpt>
      <trkpt lat="44.11451" lon="7.28659">
        <ele>1570.719</ele>
        <time>2020-06-28T12:19:06Z</time>
      </trkpt>
      <trkpt lat="44.1145" lon="7.2866">
        <ele>1569.199</ele>
        <time>2020-06-28T12:19:22Z</time>
      </trkpt>
      <trkpt lat="44.11448" lon="7.28647">
        <ele>1570.773</ele>
        <time>2020-06-28T12:19:37Z</time>
      </trkpt>
      <trkpt lat="44.11458" lon="7.28632">
        <ele>1572.164</ele>
        <time>2020-06-28T12:19:52Z</time>
      </trkpt>
      <trkpt lat="44.1147" lon="7.28617">
        <ele>1565.532</ele>
        <time>2020-06-28T12:20:08Z</time>
      </trkpt>
      <trkpt lat="44.11475" lon="7.2859">
        <ele>1560.229</ele>
        <time>2020-06-28T12:20:24Z</time>
      </trkpt>
      <trkpt lat="44.11479" lon="7.28569">
        <ele>1564.479</ele>
        <time>2020-06-28T12:20:40Z</time>
      </trkpt>
      <trkpt lat="44.11483" lon="7.28544">
        <ele>1568.594</ele>
        <time>2020-06-28T12:20:55Z</time>
      </trkpt>
      <trkpt lat="44.11483" lon="7.28541">
        <ele>1569.71</ele>
        <time>2020-06-28T12:21:11Z</time>
      </trkpt>
      <trkpt lat="44.11492" lon="7.2852">
        <ele>1574.136</ele>
        <time>2020-06-28T12:21:27Z</time>
      </trkpt>
      <trkpt lat="44.11501" lon="7.285">
        <ele>1573.569</ele>
        <time>2020-06-28T12:21:42Z</time>
      </trkpt>
      <trkpt lat="44.11508" lon="7.28478">
        <ele>1576.744</ele>
        <time>2020-06-28T12:21:58Z</time>
      </trkpt>
      <trkpt lat="44.1152" lon="7.28462">
        <ele>1578.686</ele>
        <time>2020-06-28T12:22:13Z</time>
      </trkpt>
      <trkpt lat="44.11526" lon="7.28439">
        <ele>1583.714</ele>
        <time>2020-06-28T12:22:29Z</time>
      </trkpt>
      <trkpt lat="44.11534" lon="7.28412">
        <ele>1583.511</ele>
        <time>2020-06-28T12:22:45Z</time>
      </trkpt>
      <trkpt lat="44.11541" lon="7.28385">
        <ele>1584.126</ele>
        <time>2020-06-28T12:23:00Z</time>
      </trkpt>
      <trkpt lat="44.11545" lon="7.2836">
        <ele>1581.274</ele>
        <time>2020-06-28T12:23:15Z</time>
      </trkpt>
      <trkpt lat="44.11552" lon="7.28335">
        <ele>1579.368</ele>
        <time>2020-06-28T12:23:31Z</time>
      </trkpt>
      <trkpt lat="44.1156" lon="7.28312">
        <ele>1578.786</ele>
        <time>2020-06-28T12:23:47Z</time>
      </trkpt>
      <trkpt lat="44.11572" lon="7.28299">
        <ele>1577.554</ele>
        <time>2020-06-28T12:24:03Z</time>
      </trkpt>
      <trkpt lat="44.11578" lon="7.28282">
        <ele>1578.61</ele>
        <time>2020-06-28T12:24:18Z</time>
      </trkpt>
      <trkpt lat="44.11578" lon="7.28257">
        <ele>1579.153</ele>
        <time>2020-06-28T12:24:33Z</time>
      </trkpt>
      <trkpt lat="44.1158" lon="7.28229">
        <ele>1580.777</ele>
        <time>2020-06-28T12:24:49Z</time>
      </trkpt>
      <trkpt lat="44.11584" lon="7.28207">
        <ele>1584.634</ele>
        <time>2020-06-28T12:25:04Z</time>
      </trkpt>
      <trkpt lat="44.11589" lon="7.28188">
        <ele>1588.246</ele>
        <time>2020-06-28T12:25:19Z</time>
      </trkpt>
      <trkpt lat="44.11586" lon="7.28161">
        <ele>1590.849</ele>
        <time>2020-06-28T12:25:35Z</time>
      </trkpt>
      <trkpt lat="44.11581" lon="7.28136">
        <ele>1597.278</ele>
        <time>2020-06-28T12:25:51Z</time>
      </trkpt>
      <trkpt lat="44.11574" lon="7.28104">
        <ele>1604.386</ele>
        <time>2020-06-28T12:26:07Z</time>
      </trkpt>
      <trkpt lat="44.11571" lon="7.28075">
        <ele>1602.162</ele>
        <time>2020-06-28T12:26:23Z</time>
      </trkpt>
      <trkpt lat="44.11571" lon="7.28044">
        <ele>1598.777</ele>
        <time>2020-06-28T12:26:39Z</time>
      </trkpt>
      <trkpt lat="44.11571" lon="7.28016">
        <ele>1590.148</ele>
        <time>2020-06-28T12:26:55Z</time>
      </trkpt>
      <trkpt lat="44.11577" lon="7.27998">
        <ele>1589.436</ele>
        <time>2020-06-28T12:27:11Z</time>
      </trkpt>
      <trkpt lat="44.11593" lon="7.27986">
        <ele>1587.301</ele>
        <time>2020-06-28T12:27:27Z</time>
      </trkpt>
      <trkpt lat="44.11608" lon="7.27966">
        <ele>1580.635</ele>
        <time>2020-06-28T12:27:42Z</time>
      </trkpt>
      <trkpt lat="44.11622" lon="7.27948">
        <ele>1574.797</ele>
        <time>2020-06-28T12:27:58Z</time>
      </trkpt>
      <trkpt lat="44.11635" lon="7.2793">
        <ele>1576.255</ele>
        <time>2020-06-28T12:28:13Z</time>
      </trkpt>
      <trkpt lat="44.11644" lon="7.27915">
        <ele>1578.91</ele>
        <time>2020-06-28T12:28:29Z</time>
      </trkpt>
      <trkpt lat="44.11654" lon="7.27895">
        <ele>1582.25</ele>
        <time>2020-06-28T12:28:44Z</time>
      </trkpt>
      <trkpt lat="44.11669" lon="7.27887">
        <ele>1582.532</ele>
        <time>2020-06-28T12:29:00Z</time>
      </trkpt>
      <trkpt lat="44.11687" lon="7.27889">
        <ele>1581.355</ele>
        <time>2020-06-28T12:29:15Z</time>
      </trkpt>
      <trkpt lat="44.11706" lon="7.27873">
        <ele>1575.364</ele>
        <time>2020-06-28T12:29:31Z</time>
      </trkpt>
      <trkpt lat="44.11712" lon="7.27849">
        <ele>1576.191</ele>
        <time>2020-06-28T12:29:47Z</time>
      </trkpt>
      <trkpt lat="44.11722" lon="7.27832">
        <ele>1572.919</ele>
        <time>2020-06-28T12:30:02Z</time>
      </trkpt>
      <trkpt lat="44.11735" lon="7.27819">
        <ele>1579.212</ele>
        <time>2020-06-28T12:30:17Z</time>
      </trkpt>
      <trkpt lat="44.11749" lon="7.27818">
        <ele>1581.717</ele>
        <time>2020-06-28T12:30:33Z</time>
      </trkpt>
      <trkpt lat="44.11761" lon="7.27798">
        <ele>1582.216</ele>
        <time>2020-06-28T12:30:48Z</time>
      </trkpt>
      <trkpt lat="44.11769" lon="7.2778">
        <ele>1584.342</ele>
        <time>2020-06-28T12:31:04Z</time>
      </trkpt>
      <trkpt lat="44.11782" lon="7.27762">
        <ele>1582.828</ele>
        <time>2020-06-28T12:31:19Z</time>
      </trkpt>
      <trkpt lat="44.11795" lon="7.27745">
        <ele>1589.957</ele>
        <time>2020-06-28T12:31:35Z</time>
      </trkpt>
      <trkpt lat="44.11805" lon="7.27734">
        <ele>1584.725</ele>
        <time>2020-06-28T12:31:50Z</time>
      </trkpt>
      <trkpt lat="44.11819" lon="7.27723">
        <ele>1583.497</ele>
        <time>2020-06-28T12:32:05Z</time>
      </trkpt>
      <trkpt lat="44.1183" lon="7.27707">
        <ele>1578.848</ele>
        <time>2020-06-28T12:32:21Z</time>
      </trkpt>
      <trkpt lat="44.11841" lon="7.27695">
        <ele>1579.118</ele>
        <time>2020-06-28T12:32:37Z</time>
      </trkpt>
      <trkpt lat="44.11852" lon="7.27675">
        <ele>1582.73</ele>
        <time>2020-06-28T12:32:53Z</time>
      </trkpt>
      <trkpt lat="44.11865" lon="7.2767">
        <ele>1585.09</ele>
        <time>2020-06-28T12:33:09Z</time>
      </trkpt>
      <trkpt lat="44.11873" lon="7.27638">
        <ele>1592.224</ele>
        <time>2020-06-28T12:33:25Z</time>
      </trkpt>
      <trkpt lat="44.11871" lon="7.27627">
        <ele>1595.948</ele>
        <time>2020-06-28T12:33:42Z</time>
      </trkpt>
      <trkpt lat="44.11871" lon="7.27627">
        <ele>1595.948</ele>
        <time>2020-06-28T12:33:57Z</time>
      </trkpt>
      <trkpt lat="44.11871" lon="7.27627">
        <ele>1595.948</ele>
        <time>2020-06-28T12:34:12Z</time>
      </trkpt>
      <trkpt lat="44.11871" lon="7.27628">
        <ele>1595.304</ele>
        <time>2020-06-28T12:34:28Z</time>
      </trkpt>
      <trkpt lat="44.11872" lon="7.27629">
        <ele>1596.275</ele>
        <time>2020-06-28T12:34:44Z</time>
      </trkpt>
      <trkpt lat="44.11872" lon="7.27629">
        <ele>1596.275</ele>
        <time>2020-06-28T12:35:00Z</time>
      </trkpt>
      <trkpt lat="44.11872" lon="7.27629">
        <ele>1596.275</ele>
        <time>2020-06-28T12:35:15Z</time>
      </trkpt>
      <trkpt lat="44.11872" lon="7.27627">
        <ele>1598.531</ele>
        <time>2020-06-28T12:35:31Z</time>
      </trkpt>
      <trkpt lat="44.11872" lon="7.27627">
        <ele>1598.531</ele>
        <time>2020-06-28T12:35:47Z</time>
      </trkpt>
      <trkpt lat="44.11876" lon="7.27625">
        <ele>1595.525</ele>
        <time>2020-06-28T12:36:03Z</time>
      </trkpt>
      <trkpt lat="44.11888" lon="7.27618">
        <ele>1595.334</ele>
        <time>2020-06-28T12:36:18Z</time>
      </trkpt>
      <trkpt lat="44.11888" lon="7.27618">
        <ele>1595.421</ele>
        <time>2020-06-28T12:36:34Z</time>
      </trkpt>
      <trkpt lat="44.11888" lon="7.27618">
        <ele>1595.421</ele>
        <time>2020-06-28T12:36:50Z</time>
      </trkpt>
      <trkpt lat="44.11888" lon="7.27618">
        <ele>1595.421</ele>
        <time>2020-06-28T12:37:06Z</time>
      </trkpt>
      <trkpt lat="44.11885" lon="7.27621">
        <ele>1595.168</ele>
        <time>2020-06-28T12:37:21Z</time>
      </trkpt>
      <trkpt lat="44.11885" lon="7.27621">
        <ele>1595.168</ele>
        <time>2020-06-28T12:37:37Z</time>
      </trkpt>
      <trkpt lat="44.11885" lon="7.27621">
        <ele>1595.168</ele>
        <time>2020-06-28T12:37:53Z</time>
      </trkpt>
      <trkpt lat="44.11885" lon="7.27621">
        <ele>1595.168</ele>
        <time>2020-06-28T12:38:08Z</time>
      </trkpt>
      <trkpt lat="44.11885" lon="7.27621">
        <ele>1595.168</ele>
        <time>2020-06-28T12:38:24Z</time>
      </trkpt>
      <trkpt lat="44.11885" lon="7.27621">
        <ele>1595.168</ele>
        <time>2020-06-28T12:38:39Z</time>
      </trkpt>
      <trkpt lat="44.11885" lon="7.27621">
        <ele>1595.168</ele>
        <time>2020-06-28T12:38:54Z</time>
      </trkpt>
      <trkpt lat="44.11885" lon="7.27621">
        <ele>1595.168</ele>
        <time>2020-06-28T12:39:10Z</time>
      </trkpt>
      <trkpt lat="44.11885" lon="7.27619">
        <ele>1597.052</ele>
        <time>2020-06-28T12:39:26Z</time>
      </trkpt>
      <trkpt lat="44.11886" lon="7.27619">
        <ele>1596.074</ele>
        <time>2020-06-28T12:39:41Z</time>
      </trkpt>
      <trkpt lat="44.11887" lon="7.2762">
        <ele>1593.808</ele>
        <time>2020-06-28T12:39:56Z</time>
      </trkpt>
      <trkpt lat="44.11887" lon="7.2762">
        <ele>1593.808</ele>
        <time>2020-06-28T12:40:12Z</time>
      </trkpt>
      <trkpt lat="44.11887" lon="7.2762">
        <ele>1593.808</ele>
        <time>2020-06-28T12:40:27Z</time>
      </trkpt>
      <trkpt lat="44.1189" lon="7.27617">
        <ele>1593.529</ele>
        <time>2020-06-28T12:40:43Z</time>
      </trkpt>
      <trkpt lat="44.1189" lon="7.27617">
        <ele>1593.529</ele>
        <time>2020-06-28T12:40:58Z</time>
      </trkpt>
      <trkpt lat="44.1189" lon="7.27617">
        <ele>1593.529</ele>
        <time>2020-06-28T12:41:14Z</time>
      </trkpt>
      <trkpt lat="44.1189" lon="7.27617">
        <ele>1593.529</ele>
        <time>2020-06-28T12:41:29Z</time>
      </trkpt>
      <trkpt lat="44.1189" lon="7.27617">
        <ele>1593.529</ele>
        <time>2020-06-28T12:41:45Z</time>
      </trkpt>
      <trkpt lat="44.1189" lon="7.27617">
        <ele>1593.529</ele>
        <time>2020-06-28T12:42:01Z</time>
      </trkpt>
      <trkpt lat="44.1189" lon="7.27617">
        <ele>1593.529</ele>
        <time>2020-06-28T12:42:16Z</time>
      </trkpt>
      <trkpt lat="44.1189" lon="7.27617">
        <ele>1593.529</ele>
        <time>2020-06-28T12:42:32Z</time>
      </trkpt>
      <trkpt lat="44.1189" lon="7.27617">
        <ele>1593.529</ele>
        <time>2020-06-28T12:42:47Z</time>
      </trkpt>
      <trkpt lat="44.11891" lon="7.27616">
        <ele>1593.762</ele>
        <time>2020-06-28T12:43:03Z</time>
      </trkpt>
      <trkpt lat="44.11891" lon="7.27616">
        <ele>1593.762</ele>
        <time>2020-06-28T12:43:19Z</time>
      </trkpt>
      <trkpt lat="44.11892" lon="7.27617">
        <ele>1594.332</ele>
        <time>2020-06-28T12:43:35Z</time>
      </trkpt>
      <trkpt lat="44.11889" lon="7.27617">
        <ele>1594.318</ele>
        <time>2020-06-28T12:43:51Z</time>
      </trkpt>
      <trkpt lat="44.11886" lon="7.2762">
        <ele>1594.957</ele>
        <time>2020-06-28T12:44:07Z</time>
      </trkpt>
      <trkpt lat="44.11893" lon="7.27619">
        <ele>1593.775</ele>
        <time>2020-06-28T12:44:23Z</time>
      </trkpt>
      <trkpt lat="44.11907" lon="7.27605">
        <ele>1591.526</ele>
        <time>2020-06-28T12:44:38Z</time>
      </trkpt>
      <trkpt lat="44.11912" lon="7.27601">
        <ele>1594.565</ele>
        <time>2020-06-28T12:44:53Z</time>
      </trkpt>
      <trkpt lat="44.11922" lon="7.27597">
        <ele>1603.251</ele>
        <time>2020-06-28T12:45:09Z</time>
      </trkpt>
      <trkpt lat="44.11931" lon="7.27583">
        <ele>1603.983</ele>
        <time>2020-06-28T12:45:25Z</time>
      </trkpt>
      <trkpt lat="44.11931" lon="7.27569">
        <ele>1603.976</ele>
        <time>2020-06-28T12:45:40Z</time>
      </trkpt>
      <trkpt lat="44.11927" lon="7.27549">
        <ele>1602.126</ele>
        <time>2020-06-28T12:45:55Z</time>
      </trkpt>
      <trkpt lat="44.11925" lon="7.27523">
        <ele>1601.315</ele>
        <time>2020-06-28T12:46:10Z</time>
      </trkpt>
      <trkpt lat="44.1194" lon="7.2751">
        <ele>1601.741</ele>
        <time>2020-06-28T12:46:26Z</time>
      </trkpt>
      <trkpt lat="44.11954" lon="7.275">
        <ele>1607.096</ele>
        <time>2020-06-28T12:46:41Z</time>
      </trkpt>
      <trkpt lat="44.1197" lon="7.27495">
        <ele>1612.649</ele>
        <time>2020-06-28T12:46:57Z</time>
      </trkpt>
      <trkpt lat="44.11985" lon="7.27477">
        <ele>1610.142</ele>
        <time>2020-06-28T12:47:13Z</time>
      </trkpt>
      <trkpt lat="44.11986" lon="7.27468">
        <ele>1611.735</ele>
        <time>2020-06-28T12:47:29Z</time>
      </trkpt>
      <trkpt lat="44.11986" lon="7.27446">
        <ele>1615.391</ele>
        <time>2020-06-28T12:47:45Z</time>
      </trkpt>
      <trkpt lat="44.11986" lon="7.27428">
        <ele>1610.747</ele>
        <time>2020-06-28T12:48:00Z</time>
      </trkpt>
      <trkpt lat="44.11994" lon="7.27409">
        <ele>1615.177</ele>
        <time>2020-06-28T12:48:16Z</time>
      </trkpt>
      <trkpt lat="44.12006" lon="7.27393">
        <ele>1620.35</ele>
        <time>2020-06-28T12:48:31Z</time>
      </trkpt>
      <trkpt lat="44.12018" lon="7.27376">
        <ele>1624.421</ele>
        <time>2020-06-28T12:48:47Z</time>
      </trkpt>
      <trkpt lat="44.12029" lon="7.27361">
        <ele>1628.573</ele>
        <time>2020-06-28T12:49:02Z</time>
      </trkpt>
      <trkpt lat="44.12039" lon="7.27345">
        <ele>1630.64</ele>
        <time>2020-06-28T12:49:17Z</time>
      </trkpt>
      <trkpt lat="44.12045" lon="7.27329">
        <ele>1633.499</ele>
        <time>2020-06-28T12:49:32Z</time>
      </trkpt>
      <trkpt lat="44.12055" lon="7.27321">
        <ele>1640.722</ele>
        <time>2020-06-28T12:49:47Z</time>
      </trkpt>
      <trkpt lat="44.12067" lon="7.27303">
        <ele>1640.975</ele>
        <time>2020-06-28T12:50:03Z</time>
      </trkpt>
      <trkpt lat="44.12083" lon="7.27283">
        <ele>1638.066</ele>
        <time>2020-06-28T12:50:18Z</time>
      </trkpt>
      <trkpt lat="44.12092" lon="7.2727">
        <ele>1640.073</ele>
        <time>2020-06-28T12:50:34Z</time>
      </trkpt>
      <trkpt lat="44.12102" lon="7.27249">
        <ele>1637.522</ele>
        <time>2020-06-28T12:50:50Z</time>
      </trkpt>
      <trkpt lat="44.12109" lon="7.27237">
        <ele>1640.51</ele>
        <time>2020-06-28T12:51:05Z</time>
      </trkpt>
      <trkpt lat="44.1212" lon="7.27227">
        <ele>1641.297</ele>
        <time>2020-06-28T12:51:21Z</time>
      </trkpt>
      <trkpt lat="44.12134" lon="7.2721">
        <ele>1637.314</ele>
        <time>2020-06-28T12:51:37Z</time>
      </trkpt>
      <trkpt lat="44.12147" lon="7.27195">
        <ele>1638.496</ele>
        <time>2020-06-28T12:51:52Z</time>
      </trkpt>
      <trkpt lat="44.12162" lon="7.27186">
        <ele>1637.769</ele>
        <time>2020-06-28T12:52:07Z</time>
      </trkpt>
      <trkpt lat="44.12176" lon="7.27171">
        <ele>1639.832</ele>
        <time>2020-06-28T12:52:23Z</time>
      </trkpt>
      <trkpt lat="44.12188" lon="7.27162">
        <ele>1640.405</ele>
        <time>2020-06-28T12:52:38Z</time>
      </trkpt>
      <trkpt lat="44.12196" lon="7.27156">
        <ele>1639.925</ele>
        <time>2020-06-28T12:52:54Z</time>
      </trkpt>
      <trkpt lat="44.12208" lon="7.27146">
        <ele>1646.224</ele>
        <time>2020-06-28T12:53:10Z</time>
      </trkpt>
      <trkpt lat="44.12221" lon="7.27142">
        <ele>1648.814</ele>
        <time>2020-06-28T12:53:26Z</time>
      </trkpt>
      <trkpt lat="44.12222" lon="7.2714">
        <ele>1650.315</ele>
        <time>2020-06-28T12:53:41Z</time>
      </trkpt>
      <trkpt lat="44.12222" lon="7.27139">
        <ele>1652.914</ele>
        <time>2020-06-28T12:53:57Z</time>
      </trkpt>
      <trkpt lat="44.1222" lon="7.27139">
        <ele>1654.368</ele>
        <time>2020-06-28T12:54:12Z</time>
      </trkpt>
      <trkpt lat="44.1222" lon="7.27139">
        <ele>1654.368</ele>
        <time>2020-06-28T12:54:27Z</time>
      </trkpt>
      <trkpt lat="44.1222" lon="7.27141">
        <ele>1655.128</ele>
        <time>2020-06-28T12:54:43Z</time>
      </trkpt>
      <trkpt lat="44.12219" lon="7.2713">
        <ele>1660.86</ele>
        <time>2020-06-28T12:54:58Z</time>
      </trkpt>
      <trkpt lat="44.12228" lon="7.27113">
        <ele>1662.52</ele>
        <time>2020-06-28T12:55:13Z</time>
      </trkpt>
      <trkpt lat="44.12232" lon="7.27116">
        <ele>1659.684</ele>
        <time>2020-06-28T12:55:29Z</time>
      </trkpt>
      <trkpt lat="44.12232" lon="7.27112">
        <ele>1658.163</ele>
        <time>2020-06-28T12:55:45Z</time>
      </trkpt>
      <trkpt lat="44.12229" lon="7.2711">
        <ele>1656.537</ele>
        <time>2020-06-28T12:56:01Z</time>
      </trkpt>
      <trkpt lat="44.12225" lon="7.27102">
        <ele>1656.251</ele>
        <time>2020-06-28T12:56:16Z</time>
      </trkpt>
      <trkpt lat="44.12223" lon="7.2709">
        <ele>1657.003</ele>
        <time>2020-06-28T12:56:32Z</time>
      </trkpt>
      <trkpt lat="44.12222" lon="7.27086">
        <ele>1656</ele>
        <time>2020-06-28T12:56:48Z</time>
      </trkpt>
      <trkpt lat="44.12217" lon="7.2708">
        <ele>1655.426</ele>
        <time>2020-06-28T12:57:03Z</time>
      </trkpt>
      <trkpt lat="44.12217" lon="7.2708">
        <ele>1655.426</ele>
        <time>2020-06-28T12:57:19Z</time>
      </trkpt>
      <trkpt lat="44.12216" lon="7.27078">
        <ele>1655.345</ele>
        <time>2020-06-28T12:57:35Z</time>
      </trkpt>
      <trkpt lat="44.12217" lon="7.27067">
        <ele>1653.835</ele>
        <time>2020-06-28T12:57:50Z</time>
      </trkpt>
      <trkpt lat="44.12216" lon="7.27059">
        <ele>1651.314</ele>
        <time>2020-06-28T12:58:06Z</time>
      </trkpt>
      <trkpt lat="44.12217" lon="7.27059">
        <ele>1650.618</ele>
        <time>2020-06-28T12:58:21Z</time>
      </trkpt>
      <trkpt lat="44.12217" lon="7.27059">
        <ele>1650.618</ele>
        <time>2020-06-28T12:58:37Z</time>
      </trkpt>
      <trkpt lat="44.12217" lon="7.27059">
        <ele>1650.618</ele>
        <time>2020-06-28T12:58:53Z</time>
      </trkpt>
      <trkpt lat="44.12217" lon="7.27059">
        <ele>1650.618</ele>
        <time>2020-06-28T12:59:08Z</time>
      </trkpt>
      <trkpt lat="44.12217" lon="7.27059">
        <ele>1650.618</ele>
        <time>2020-06-28T12:59:23Z</time>
      </trkpt>
      <trkpt lat="44.12217" lon="7.27059">
        <ele>1650.618</ele>
        <time>2020-06-28T12:59:38Z</time>
      </trkpt>
      <trkpt lat="44.12217" lon="7.27059">
        <ele>1650.618</ele>
        <time>2020-06-28T12:59:54Z</time>
      </trkpt>
      <trkpt lat="44.12217" lon="7.27059">
        <ele>1650.618</ele>
        <time>2020-06-28T13:00:09Z</time>
      </trkpt>
      <trkpt lat="44.12217" lon="7.27059">
        <ele>1650.618</ele>
        <time>2020-06-28T13:00:25Z</time>
      </trkpt>
      <trkpt lat="44.12217" lon="7.27059">
        <ele>1650.618</ele>
        <time>2020-06-28T13:00:41Z</time>
      </trkpt>
      <trkpt lat="44.12217" lon="7.27059">
        <ele>1650.618</ele>
        <time>2020-06-28T13:00:57Z</time>
      </trkpt>
      <trkpt lat="44.12216" lon="7.27058">
        <ele>1650.727</ele>
        <time>2020-06-28T13:01:13Z</time>
      </trkpt>
      <trkpt lat="44.12216" lon="7.27058">
        <ele>1650.727</ele>
        <time>2020-06-28T13:01:28Z</time>
      </trkpt>
      <trkpt lat="44.12216" lon="7.27058">
        <ele>1650.727</ele>
        <time>2020-06-28T13:01:44Z</time>
      </trkpt>
      <trkpt lat="44.12216" lon="7.27058">
        <ele>1650.727</ele>
        <time>2020-06-28T13:01:59Z</time>
      </trkpt>
      <trkpt lat="44.12216" lon="7.27058">
        <ele>1650.727</ele>
        <time>2020-06-28T13:02:15Z</time>
      </trkpt>
      <trkpt lat="44.12216" lon="7.27058">
        <ele>1650.727</ele>
        <time>2020-06-28T13:02:31Z</time>
      </trkpt>
      <trkpt lat="44.12216" lon="7.27058">
        <ele>1650.727</ele>
        <time>2020-06-28T13:02:46Z</time>
      </trkpt>
      <trkpt lat="44.12216" lon="7.27058">
        <ele>1650.727</ele>
        <time>2020-06-28T13:03:01Z</time>
      </trkpt>
      <trkpt lat="44.1222" lon="7.27059">
        <ele>1647.384</ele>
        <time>2020-06-28T13:03:17Z</time>
      </trkpt>
      <trkpt lat="44.12216" lon="7.27055">
        <ele>1645.408</ele>
        <time>2020-06-28T13:03:32Z</time>
      </trkpt>
      <trkpt lat="44.12221" lon="7.27055">
        <ele>1644.707</ele>
        <time>2020-06-28T13:03:48Z</time>
      </trkpt>
      <trkpt lat="44.12221" lon="7.27055">
        <ele>1644.707</ele>
        <time>2020-06-28T13:04:04Z</time>
      </trkpt>
      <trkpt lat="44.12221" lon="7.27055">
        <ele>1644.707</ele>
        <time>2020-06-28T13:04:20Z</time>
      </trkpt>
      <trkpt lat="44.12221" lon="7.27055">
        <ele>1644.707</ele>
        <time>2020-06-28T13:04:36Z</time>
      </trkpt>
      <trkpt lat="44.12221" lon="7.27055">
        <ele>1644.707</ele>
        <time>2020-06-28T13:04:52Z</time>
      </trkpt>
      <trkpt lat="44.12219" lon="7.27052">
        <ele>1643.377</ele>
        <time>2020-06-28T13:05:08Z</time>
      </trkpt>
      <trkpt lat="44.12217" lon="7.27044">
        <ele>1640.948</ele>
        <time>2020-06-28T13:05:24Z</time>
      </trkpt>
      <trkpt lat="44.12217" lon="7.27044">
        <ele>1640.948</ele>
        <time>2020-06-28T13:05:39Z</time>
      </trkpt>
      <trkpt lat="44.12217" lon="7.27044">
        <ele>1640.948</ele>
        <time>2020-06-28T13:05:54Z</time>
      </trkpt>
      <trkpt lat="44.12217" lon="7.27044">
        <ele>1640.948</ele>
        <time>2020-06-28T13:06:09Z</time>
      </trkpt>
      <trkpt lat="44.12217" lon="7.27044">
        <ele>1640.948</ele>
        <time>2020-06-28T13:06:25Z</time>
      </trkpt>
      <trkpt lat="44.12217" lon="7.27044">
        <ele>1640.948</ele>
        <time>2020-06-28T13:06:41Z</time>
      </trkpt>
      <trkpt lat="44.12217" lon="7.27044">
        <ele>1640.948</ele>
        <time>2020-06-28T13:06:57Z</time>
      </trkpt>
      <trkpt lat="44.12218" lon="7.27048">
        <ele>1641.793</ele>
        <time>2020-06-28T13:07:12Z</time>
      </trkpt>
      <trkpt lat="44.12218" lon="7.27048">
        <ele>1641.793</ele>
        <time>2020-06-28T13:07:28Z</time>
      </trkpt>
      <trkpt lat="44.12216" lon="7.27053">
        <ele>1641.307</ele>
        <time>2020-06-28T13:07:44Z</time>
      </trkpt>
      <trkpt lat="44.12218" lon="7.27056">
        <ele>1642.532</ele>
        <time>2020-06-28T13:07:59Z</time>
      </trkpt>
      <trkpt lat="44.12207" lon="7.27058">
        <ele>1651.098</ele>
        <time>2020-06-28T13:08:15Z</time>
      </trkpt>
      <trkpt lat="44.12208" lon="7.27057">
        <ele>1652.964</ele>
        <time>2020-06-28T13:08:30Z</time>
      </trkpt>
      <trkpt lat="44.12208" lon="7.27057">
        <ele>1652.964</ele>
        <time>2020-06-28T13:08:45Z</time>
      </trkpt>
      <trkpt lat="44.12218" lon="7.27054">
        <ele>1647.372</ele>
        <time>2020-06-28T13:09:01Z</time>
      </trkpt>
      <trkpt lat="44.12219" lon="7.27051">
        <ele>1648.944</ele>
        <time>2020-06-28T13:09:16Z</time>
      </trkpt>
      <trkpt lat="44.12219" lon="7.27055">
        <ele>1648.681</ele>
        <time>2020-06-28T13:09:32Z</time>
      </trkpt>
      <trkpt lat="44.12219" lon="7.27055">
        <ele>1648.681</ele>
        <time>2020-06-28T13:09:48Z</time>
      </trkpt>
      <trkpt lat="44.12219" lon="7.27055">
        <ele>1648.681</ele>
        <time>2020-06-28T13:10:04Z</time>
      </trkpt>
      <trkpt lat="44.1222" lon="7.27057">
        <ele>1651.662</ele>
        <time>2020-06-28T13:10:19Z</time>
      </trkpt>
      <trkpt lat="44.12226" lon="7.27065">
        <ele>1652.621</ele>
        <time>2020-06-28T13:10:34Z</time>
      </trkpt>
      <trkpt lat="44.12226" lon="7.27065">
        <ele>1652.621</ele>
        <time>2020-06-28T13:10:50Z</time>
      </trkpt>
      <trkpt lat="44.12225" lon="7.27064">
        <ele>1652.453</ele>
        <time>2020-06-28T13:11:06Z</time>
      </trkpt>
      <trkpt lat="44.12225" lon="7.27063">
        <ele>1652.036</ele>
        <time>2020-06-28T13:11:21Z</time>
      </trkpt>
      <trkpt lat="44.12224" lon="7.27051">
        <ele>1648.017</ele>
        <time>2020-06-28T13:11:36Z</time>
      </trkpt>
      <trkpt lat="44.12224" lon="7.27051">
        <ele>1648.017</ele>
        <time>2020-06-28T13:11:52Z</time>
      </trkpt>
      <trkpt lat="44.12224" lon="7.27051">
        <ele>1648.017</ele>
        <time>2020-06-28T13:12:07Z</time>
      </trkpt>
      <trkpt lat="44.12219" lon="7.27051">
        <ele>1646.149</ele>
        <time>2020-06-28T13:12:23Z</time>
      </trkpt>
      <trkpt lat="44.12208" lon="7.27051">
        <ele>1644.813</ele>
        <time>2020-06-28T13:12:38Z</time>
      </trkpt>
      <trkpt lat="44.12218" lon="7.27062">
        <ele>1646.792</ele>
        <time>2020-06-28T13:12:54Z</time>
      </trkpt>
      <trkpt lat="44.12218" lon="7.27062">
        <ele>1646.792</ele>
        <time>2020-06-28T13:13:10Z</time>
      </trkpt>
      <trkpt lat="44.12218" lon="7.27057">
        <ele>1645.344</ele>
        <time>2020-06-28T13:13:26Z</time>
      </trkpt>
      <trkpt lat="44.1222" lon="7.27051">
        <ele>1645.174</ele>
        <time>2020-06-28T13:13:42Z</time>
      </trkpt>
      <trkpt lat="44.1222" lon="7.27051">
        <ele>1645.174</ele>
        <time>2020-06-28T13:13:58Z</time>
      </trkpt>
      <trkpt lat="44.12218" lon="7.2705">
        <ele>1643.837</ele>
        <time>2020-06-28T13:14:14Z</time>
      </trkpt>
      <trkpt lat="44.12215" lon="7.27043">
        <ele>1642.102</ele>
        <time>2020-06-28T13:14:30Z</time>
      </trkpt>
      <trkpt lat="44.12205" lon="7.27037">
        <ele>1639.425</ele>
        <time>2020-06-28T13:14:45Z</time>
      </trkpt>
      <trkpt lat="44.12208" lon="7.27041">
        <ele>1640.321</ele>
        <time>2020-06-28T13:15:01Z</time>
      </trkpt>
      <trkpt lat="44.1221" lon="7.2704">
        <ele>1640.902</ele>
        <time>2020-06-28T13:15:16Z</time>
      </trkpt>
      <trkpt lat="44.1221" lon="7.2704">
        <ele>1640.902</ele>
        <time>2020-06-28T13:15:32Z</time>
      </trkpt>
      <trkpt lat="44.1221" lon="7.2704">
        <ele>1640.902</ele>
        <time>2020-06-28T13:15:48Z</time>
      </trkpt>
      <trkpt lat="44.1221" lon="7.2704">
        <ele>1640.902</ele>
        <time>2020-06-28T13:16:03Z</time>
      </trkpt>
      <trkpt lat="44.12214" lon="7.27042">
        <ele>1639.765</ele>
        <time>2020-06-28T13:16:18Z</time>
      </trkpt>
      <trkpt lat="44.12213" lon="7.2704">
        <ele>1640.373</ele>
        <time>2020-06-28T13:16:34Z</time>
      </trkpt>
      <trkpt lat="44.12217" lon="7.27042">
        <ele>1640.802</ele>
        <time>2020-06-28T13:16:49Z</time>
      </trkpt>
      <trkpt lat="44.12233" lon="7.27055">
        <ele>1643.781</ele>
        <time>2020-06-28T13:17:05Z</time>
      </trkpt>
      <trkpt lat="44.12231" lon="7.27052">
        <ele>1645.196</ele>
        <time>2020-06-28T13:17:21Z</time>
      </trkpt>
      <trkpt lat="44.12224" lon="7.27041">
        <ele>1646.389</ele>
        <time>2020-06-28T13:17:37Z</time>
      </trkpt>
      <trkpt lat="44.12224" lon="7.27041">
        <ele>1646.389</ele>
        <time>2020-06-28T13:17:53Z</time>
      </trkpt>
      <trkpt lat="44.12227" lon="7.27042">
        <ele>1651.357</ele>
        <time>2020-06-28T13:18:09Z</time>
      </trkpt>
      <trkpt lat="44.12227" lon="7.27042">
        <ele>1651.357</ele>
        <time>2020-06-28T13:18:24Z</time>
      </trkpt>
      <trkpt lat="44.12227" lon="7.27045">
        <ele>1650.39</ele>
        <time>2020-06-28T13:18:40Z</time>
      </trkpt>
      <trkpt lat="44.12227" lon="7.27045">
        <ele>1650.39</ele>
        <time>2020-06-28T13:18:55Z</time>
      </trkpt>
      <trkpt lat="44.12227" lon="7.27045">
        <ele>1650.39</ele>
        <time>2020-06-28T13:19:11Z</time>
      </trkpt>
      <trkpt lat="44.12223" lon="7.27046">
        <ele>1649.187</ele>
        <time>2020-06-28T13:19:27Z</time>
      </trkpt>
      <trkpt lat="44.12223" lon="7.27046">
        <ele>1649.187</ele>
        <time>2020-06-28T13:19:42Z</time>
      </trkpt>
      <trkpt lat="44.12223" lon="7.27046">
        <ele>1649.187</ele>
        <time>2020-06-28T13:19:57Z</time>
      </trkpt>
      <trkpt lat="44.12223" lon="7.27046">
        <ele>1649.187</ele>
        <time>2020-06-28T13:20:13Z</time>
      </trkpt>
      <trkpt lat="44.12223" lon="7.27046">
        <ele>1649.187</ele>
        <time>2020-06-28T13:20:28Z</time>
      </trkpt>
      <trkpt lat="44.1223" lon="7.2705">
        <ele>1649.658</ele>
        <time>2020-06-28T13:20:43Z</time>
      </trkpt>
      <trkpt lat="44.12222" lon="7.27048">
        <ele>1652.181</ele>
        <time>2020-06-28T13:20:59Z</time>
      </trkpt>
      <trkpt lat="44.12222" lon="7.27048">
        <ele>1652.181</ele>
        <time>2020-06-28T13:21:15Z</time>
      </trkpt>
      <trkpt lat="44.12221" lon="7.27048">
        <ele>1655.395</ele>
        <time>2020-06-28T13:21:31Z</time>
      </trkpt>
      <trkpt lat="44.12224" lon="7.2705">
        <ele>1656.951</ele>
        <time>2020-06-28T13:21:46Z</time>
      </trkpt>
      <trkpt lat="44.12224" lon="7.2705">
        <ele>1656.951</ele>
        <time>2020-06-28T13:22:02Z</time>
      </trkpt>
      <trkpt lat="44.12224" lon="7.2705">
        <ele>1656.951</ele>
        <time>2020-06-28T13:22:18Z</time>
      </trkpt>
      <trkpt lat="44.12224" lon="7.2705">
        <ele>1656.951</ele>
        <time>2020-06-28T13:22:33Z</time>
      </trkpt>
      <trkpt lat="44.12224" lon="7.2705">
        <ele>1656.951</ele>
        <time>2020-06-28T13:22:49Z</time>
      </trkpt>
      <trkpt lat="44.12224" lon="7.2705">
        <ele>1656.951</ele>
        <time>2020-06-28T13:23:05Z</time>
      </trkpt>
      <trkpt lat="44.12224" lon="7.2705">
        <ele>1656.951</ele>
        <time>2020-06-28T13:23:20Z</time>
      </trkpt>
      <trkpt lat="44.12224" lon="7.2705">
        <ele>1656.951</ele>
        <time>2020-06-28T13:23:36Z</time>
      </trkpt>
      <trkpt lat="44.12222" lon="7.27052">
        <ele>1657.747</ele>
        <time>2020-06-28T13:23:51Z</time>
      </trkpt>
      <trkpt lat="44.12222" lon="7.27063">
        <ele>1660.002</ele>
        <time>2020-06-28T13:24:07Z</time>
      </trkpt>
      <trkpt lat="44.12219" lon="7.27063">
        <ele>1660.366</ele>
        <time>2020-06-28T13:24:23Z</time>
      </trkpt>
      <trkpt lat="44.12219" lon="7.27063">
        <ele>1660.366</ele>
        <time>2020-06-28T13:24:39Z</time>
      </trkpt>
      <trkpt lat="44.12215" lon="7.27064">
        <ele>1661.476</ele>
        <time>2020-06-28T13:24:54Z</time>
      </trkpt>
      <trkpt lat="44.1221" lon="7.27058">
        <ele>1659.913</ele>
        <time>2020-06-28T13:25:10Z</time>
      </trkpt>
      <trkpt lat="44.12207" lon="7.27052">
        <ele>1657.055</ele>
        <time>2020-06-28T13:25:25Z</time>
      </trkpt>
      <trkpt lat="44.12207" lon="7.27052">
        <ele>1657.055</ele>
        <time>2020-06-28T13:25:40Z</time>
      </trkpt>
      <trkpt lat="44.12207" lon="7.27052">
        <ele>1657.055</ele>
        <time>2020-06-28T13:25:55Z</time>
      </trkpt>
      <trkpt lat="44.12225" lon="7.27059">
        <ele>1659.331</ele>
        <time>2020-06-28T13:26:11Z</time>
      </trkpt>
      <trkpt lat="44.12229" lon="7.27062">
        <ele>1657.079</ele>
        <time>2020-06-28T13:26:26Z</time>
      </trkpt>
      <trkpt lat="44.12232" lon="7.27071">
        <ele>1656.167</ele>
        <time>2020-06-28T13:26:42Z</time>
      </trkpt>
      <trkpt lat="44.12232" lon="7.27071">
        <ele>1656.167</ele>
        <time>2020-06-28T13:26:57Z</time>
      </trkpt>
      <trkpt lat="44.12236" lon="7.27071">
        <ele>1657.804</ele>
        <time>2020-06-28T13:27:13Z</time>
      </trkpt>
      <trkpt lat="44.12229" lon="7.27069">
        <ele>1661.738</ele>
        <time>2020-06-28T13:27:29Z</time>
      </trkpt>
      <trkpt lat="44.1223" lon="7.27064">
        <ele>1664.414</ele>
        <time>2020-06-28T13:27:45Z</time>
      </trkpt>
      <trkpt lat="44.12232" lon="7.27059">
        <ele>1669.684</ele>
        <time>2020-06-28T13:28:01Z</time>
      </trkpt>
      <trkpt lat="44.12224" lon="7.27064">
        <ele>1676.337</ele>
        <time>2020-06-28T13:28:17Z</time>
      </trkpt>
      <trkpt lat="44.12221" lon="7.27065">
        <ele>1677.716</ele>
        <time>2020-06-28T13:28:33Z</time>
      </trkpt>
      <trkpt lat="44.12221" lon="7.27065">
        <ele>1677.716</ele>
        <time>2020-06-28T13:28:48Z</time>
      </trkpt>
      <trkpt lat="44.12221" lon="7.27065">
        <ele>1677.716</ele>
        <time>2020-06-28T13:29:04Z</time>
      </trkpt>
      <trkpt lat="44.12222" lon="7.27065">
        <ele>1678.939</ele>
        <time>2020-06-28T13:29:19Z</time>
      </trkpt>
      <trkpt lat="44.12222" lon="7.27065">
        <ele>1678.939</ele>
        <time>2020-06-28T13:29:35Z</time>
      </trkpt>
      <trkpt lat="44.12222" lon="7.27065">
        <ele>1678.939</ele>
        <time>2020-06-28T13:29:51Z</time>
      </trkpt>
      <trkpt lat="44.12222" lon="7.27065">
        <ele>1678.939</ele>
        <time>2020-06-28T13:30:07Z</time>
      </trkpt>
      <trkpt lat="44.12222" lon="7.27065">
        <ele>1678.939</ele>
        <time>2020-06-28T13:30:22Z</time>
      </trkpt>
      <trkpt lat="44.12218" lon="7.27066">
        <ele>1676.664</ele>
        <time>2020-06-28T13:30:38Z</time>
      </trkpt>
      <trkpt lat="44.12231" lon="7.27069">
        <ele>1675.292</ele>
        <time>2020-06-28T13:30:54Z</time>
      </trkpt>
      <trkpt lat="44.1223" lon="7.27066">
        <ele>1674.559</ele>
        <time>2020-06-28T13:31:09Z</time>
      </trkpt>
      <trkpt lat="44.1223" lon="7.27066">
        <ele>1674.559</ele>
        <time>2020-06-28T13:31:24Z</time>
      </trkpt>
      <trkpt lat="44.1223" lon="7.27066">
        <ele>1674.559</ele>
        <time>2020-06-28T13:31:39Z</time>
      </trkpt>
      <trkpt lat="44.12229" lon="7.27069">
        <ele>1674.757</ele>
        <time>2020-06-28T13:31:55Z</time>
      </trkpt>
      <trkpt lat="44.12229" lon="7.27069">
        <ele>1674.757</ele>
        <time>2020-06-28T13:32:10Z</time>
      </trkpt>
      <trkpt lat="44.12229" lon="7.27063">
        <ele>1676</ele>
        <time>2020-06-28T13:32:25Z</time>
      </trkpt>
      <trkpt lat="44.12237" lon="7.2707">
        <ele>1675.968</ele>
        <time>2020-06-28T13:32:41Z</time>
      </trkpt>
      <trkpt lat="44.12233" lon="7.27062">
        <ele>1673.743</ele>
        <time>2020-06-28T13:32:56Z</time>
      </trkpt>
      <trkpt lat="44.12233" lon="7.27062">
        <ele>1673.743</ele>
        <time>2020-06-28T13:33:12Z</time>
      </trkpt>
      <trkpt lat="44.12231" lon="7.27061">
        <ele>1674.78</ele>
        <time>2020-06-28T13:33:27Z</time>
      </trkpt>
      <trkpt lat="44.12231" lon="7.27061">
        <ele>1674.78</ele>
        <time>2020-06-28T13:33:42Z</time>
      </trkpt>
      <trkpt lat="44.12231" lon="7.27061">
        <ele>1674.78</ele>
        <time>2020-06-28T13:33:58Z</time>
      </trkpt>
      <trkpt lat="44.12231" lon="7.27061">
        <ele>1674.78</ele>
        <time>2020-06-28T13:34:14Z</time>
      </trkpt>
      <trkpt lat="44.12231" lon="7.27061">
        <ele>1674.78</ele>
        <time>2020-06-28T13:34:29Z</time>
      </trkpt>
      <trkpt lat="44.12231" lon="7.27061">
        <ele>1675.098</ele>
        <time>2020-06-28T13:34:45Z</time>
      </trkpt>
      <trkpt lat="44.12231" lon="7.27062">
        <ele>1674.651</ele>
        <time>2020-06-28T13:35:00Z</time>
      </trkpt>
      <trkpt lat="44.12231" lon="7.27062">
        <ele>1674.651</ele>
        <time>2020-06-28T13:35:16Z</time>
      </trkpt>
      <trkpt lat="44.12231" lon="7.27062">
        <ele>1674.651</ele>
        <time>2020-06-28T13:35:32Z</time>
      </trkpt>
      <trkpt lat="44.12234" lon="7.27064">
        <ele>1675.072</ele>
        <time>2020-06-28T13:35:47Z</time>
      </trkpt>
      <trkpt lat="44.12233" lon="7.27061">
        <ele>1677.194</ele>
        <time>2020-06-28T13:36:03Z</time>
      </trkpt>
      <trkpt lat="44.12233" lon="7.27061">
        <ele>1677.194</ele>
        <time>2020-06-28T13:36:19Z</time>
      </trkpt>
      <trkpt lat="44.12222" lon="7.27056">
        <ele>1676.689</ele>
        <time>2020-06-28T13:36:35Z</time>
      </trkpt>
      <trkpt lat="44.12204" lon="7.27049">
        <ele>1677.489</ele>
        <time>2020-06-28T13:36:51Z</time>
      </trkpt>
      <trkpt lat="44.12203" lon="7.2705">
        <ele>1677.605</ele>
        <time>2020-06-28T13:37:06Z</time>
      </trkpt>
      <trkpt lat="44.12217" lon="7.27046">
        <ele>1677.609</ele>
        <time>2020-06-28T13:37:22Z</time>
      </trkpt>
      <trkpt lat="44.12217" lon="7.27041">
        <ele>1675.155</ele>
        <time>2020-06-28T13:37:38Z</time>
      </trkpt>
      <trkpt lat="44.12217" lon="7.27041">
        <ele>1675.155</ele>
        <time>2020-06-28T13:37:54Z</time>
      </trkpt>
      <trkpt lat="44.12216" lon="7.27043">
        <ele>1673.963</ele>
        <time>2020-06-28T13:38:09Z</time>
      </trkpt>
      <trkpt lat="44.12211" lon="7.27046">
        <ele>1672.749</ele>
        <time>2020-06-28T13:38:25Z</time>
      </trkpt>
      <trkpt lat="44.12214" lon="7.27048">
        <ele>1671.93</ele>
        <time>2020-06-28T13:38:41Z</time>
      </trkpt>
      <trkpt lat="44.12217" lon="7.27043">
        <ele>1675.108</ele>
        <time>2020-06-28T13:38:56Z</time>
      </trkpt>
      <trkpt lat="44.12225" lon="7.27068">
        <ele>1668.974</ele>
        <time>2020-06-28T13:39:12Z</time>
      </trkpt>
      <trkpt lat="44.1223" lon="7.27064">
        <ele>1671.192</ele>
        <time>2020-06-28T13:39:28Z</time>
      </trkpt>
      <trkpt lat="44.12224" lon="7.2706">
        <ele>1671.369</ele>
        <time>2020-06-28T13:39:43Z</time>
      </trkpt>
      <trkpt lat="44.12224" lon="7.2706">
        <ele>1671.369</ele>
        <time>2020-06-28T13:39:58Z</time>
      </trkpt>
      <trkpt lat="44.12212" lon="7.27062">
        <ele>1670.634</ele>
        <time>2020-06-28T13:40:14Z</time>
      </trkpt>
      <trkpt lat="44.12212" lon="7.27063">
        <ele>1670.584</ele>
        <time>2020-06-28T13:40:29Z</time>
      </trkpt>
      <trkpt lat="44.12212" lon="7.27063">
        <ele>1670.584</ele>
        <time>2020-06-28T13:40:45Z</time>
      </trkpt>
      <trkpt lat="44.12202" lon="7.27044">
        <ele>1668.815</ele>
        <time>2020-06-28T13:41:01Z</time>
      </trkpt>
      <trkpt lat="44.1219" lon="7.2705">
        <ele>1661.733</ele>
        <time>2020-06-28T13:41:17Z</time>
      </trkpt>
      <trkpt lat="44.12186" lon="7.27051">
        <ele>1657.094</ele>
        <time>2020-06-28T13:41:33Z</time>
      </trkpt>
      <trkpt lat="44.12186" lon="7.27051">
        <ele>1657.094</ele>
        <time>2020-06-28T13:41:49Z</time>
      </trkpt>
      <trkpt lat="44.12186" lon="7.27051">
        <ele>1657.094</ele>
        <time>2020-06-28T13:42:05Z</time>
      </trkpt>
      <trkpt lat="44.12187" lon="7.27046">
        <ele>1658.695</ele>
        <time>2020-06-28T13:42:20Z</time>
      </trkpt>
      <trkpt lat="44.12187" lon="7.27046">
        <ele>1658.695</ele>
        <time>2020-06-28T13:42:35Z</time>
      </trkpt>
      <trkpt lat="44.12187" lon="7.27046">
        <ele>1658.695</ele>
        <time>2020-06-28T13:42:51Z</time>
      </trkpt>
      <trkpt lat="44.12187" lon="7.27046">
        <ele>1658.695</ele>
        <time>2020-06-28T13:43:07Z</time>
      </trkpt>
      <trkpt lat="44.12187" lon="7.27046">
        <ele>1658.695</ele>
        <time>2020-06-28T13:43:22Z</time>
      </trkpt>
      <trkpt lat="44.12187" lon="7.27046">
        <ele>1658.695</ele>
        <time>2020-06-28T13:43:37Z</time>
      </trkpt>
      <trkpt lat="44.12187" lon="7.27046">
        <ele>1658.695</ele>
        <time>2020-06-28T13:43:52Z</time>
      </trkpt>
      <trkpt lat="44.12192" lon="7.27039">
        <ele>1659.657</ele>
        <time>2020-06-28T13:44:08Z</time>
      </trkpt>
      <trkpt lat="44.12194" lon="7.27033">
        <ele>1658.899</ele>
        <time>2020-06-28T13:44:24Z</time>
      </trkpt>
      <trkpt lat="44.12211" lon="7.27032">
        <ele>1658.098</ele>
        <time>2020-06-28T13:44:39Z</time>
      </trkpt>
      <trkpt lat="44.12217" lon="7.27013">
        <ele>1660.68</ele>
        <time>2020-06-28T13:44:55Z</time>
      </trkpt>
      <trkpt lat="44.12229" lon="7.27003">
        <ele>1659.961</ele>
        <time>2020-06-28T13:45:11Z</time>
      </trkpt>
      <trkpt lat="44.12252" lon="7.26979">
        <ele>1659.454</ele>
        <time>2020-06-28T13:45:26Z</time>
      </trkpt>
      <trkpt lat="44.12264" lon="7.2696">
        <ele>1655.199</ele>
        <time>2020-06-28T13:45:42Z</time>
      </trkpt>
      <trkpt lat="44.1227" lon="7.26933">
        <ele>1650.949</ele>
        <time>2020-06-28T13:45:57Z</time>
      </trkpt>
      <trkpt lat="44.12288" lon="7.26921">
        <ele>1646.247</ele>
        <time>2020-06-28T13:46:13Z</time>
      </trkpt>
      <trkpt lat="44.12293" lon="7.26898">
        <ele>1641.167</ele>
        <time>2020-06-28T13:46:29Z</time>
      </trkpt>
      <trkpt lat="44.12303" lon="7.26889">
        <ele>1639.914</ele>
        <time>2020-06-28T13:46:44Z</time>
      </trkpt>
      <trkpt lat="44.1231" lon="7.26864">
        <ele>1637.233</ele>
        <time>2020-06-28T13:47:00Z</time>
      </trkpt>
      <trkpt lat="44.12322" lon="7.26845">
        <ele>1641.96</ele>
        <time>2020-06-28T13:47:15Z</time>
      </trkpt>
      <trkpt lat="44.12315" lon="7.26835">
        <ele>1643.609</ele>
        <time>2020-06-28T13:47:30Z</time>
      </trkpt>
      <trkpt lat="44.1231" lon="7.26826">
        <ele>1645.393</ele>
        <time>2020-06-28T13:47:45Z</time>
      </trkpt>
      <trkpt lat="44.12304" lon="7.26809">
        <ele>1643.45</ele>
        <time>2020-06-28T13:48:01Z</time>
      </trkpt>
      <trkpt lat="44.12307" lon="7.26795">
        <ele>1638.763</ele>
        <time>2020-06-28T13:48:16Z</time>
      </trkpt>
      <trkpt lat="44.12308" lon="7.26786">
        <ele>1640.698</ele>
        <time>2020-06-28T13:48:32Z</time>
      </trkpt>
      <trkpt lat="44.12313" lon="7.26766">
        <ele>1641.299</ele>
        <time>2020-06-28T13:48:48Z</time>
      </trkpt>
      <trkpt lat="44.12313" lon="7.26764">
        <ele>1641.312</ele>
        <time>2020-06-28T13:49:03Z</time>
      </trkpt>
      <trkpt lat="44.12341" lon="7.26747">
        <ele>1647.952</ele>
        <time>2020-06-28T13:49:18Z</time>
      </trkpt>
      <trkpt lat="44.1236" lon="7.26741">
        <ele>1651.4</ele>
        <time>2020-06-28T13:49:34Z</time>
      </trkpt>
      <trkpt lat="44.1236" lon="7.26741">
        <ele>1651.4</ele>
        <time>2020-06-28T13:49:49Z</time>
      </trkpt>
      <trkpt lat="44.12367" lon="7.26721">
        <ele>1653.683</ele>
        <time>2020-06-28T13:50:05Z</time>
      </trkpt>
      <trkpt lat="44.12379" lon="7.26712">
        <ele>1659.856</ele>
        <time>2020-06-28T13:50:21Z</time>
      </trkpt>
      <trkpt lat="44.12388" lon="7.26706">
        <ele>1662.293</ele>
        <time>2020-06-28T13:50:37Z</time>
      </trkpt>
      <trkpt lat="44.12402" lon="7.26694">
        <ele>1659.433</ele>
        <time>2020-06-28T13:50:52Z</time>
      </trkpt>
      <trkpt lat="44.12413" lon="7.26678">
        <ele>1666.946</ele>
        <time>2020-06-28T13:51:08Z</time>
      </trkpt>
      <trkpt lat="44.1241" lon="7.26668">
        <ele>1669.851</ele>
        <time>2020-06-28T13:51:24Z</time>
      </trkpt>
      <trkpt lat="44.12414" lon="7.26659">
        <ele>1674.842</ele>
        <time>2020-06-28T13:51:40Z</time>
      </trkpt>
      <trkpt lat="44.12419" lon="7.26655">
        <ele>1676.889</ele>
        <time>2020-06-28T13:51:55Z</time>
      </trkpt>
      <trkpt lat="44.12427" lon="7.26659">
        <ele>1683.256</ele>
        <time>2020-06-28T13:52:10Z</time>
      </trkpt>
      <trkpt lat="44.12437" lon="7.26633">
        <ele>1688.836</ele>
        <time>2020-06-28T13:52:26Z</time>
      </trkpt>
      <trkpt lat="44.12441" lon="7.26624">
        <ele>1687.701</ele>
        <time>2020-06-28T13:52:41Z</time>
      </trkpt>
      <trkpt lat="44.12445" lon="7.26622">
        <ele>1687.875</ele>
        <time>2020-06-28T13:52:57Z</time>
      </trkpt>
      <trkpt lat="44.12446" lon="7.26605">
        <ele>1688.368</ele>
        <time>2020-06-28T13:53:12Z</time>
      </trkpt>
      <trkpt lat="44.12456" lon="7.26587">
        <ele>1680.914</ele>
        <time>2020-06-28T13:53:28Z</time>
      </trkpt>
      <trkpt lat="44.12465" lon="7.26568">
        <ele>1677.12</ele>
        <time>2020-06-28T13:53:43Z</time>
      </trkpt>
      <trkpt lat="44.12472" lon="7.26555">
        <ele>1673.571</ele>
        <time>2020-06-28T13:53:59Z</time>
      </trkpt>
      <trkpt lat="44.12477" lon="7.2654">
        <ele>1675.95</ele>
        <time>2020-06-28T13:54:14Z</time>
      </trkpt>
      <trkpt lat="44.12482" lon="7.26523">
        <ele>1679.021</ele>
        <time>2020-06-28T13:54:30Z</time>
      </trkpt>
      <trkpt lat="44.12481" lon="7.26519">
        <ele>1680.07</ele>
        <time>2020-06-28T13:54:45Z</time>
      </trkpt>
      <trkpt lat="44.12487" lon="7.26504">
        <ele>1679.107</ele>
        <time>2020-06-28T13:55:01Z</time>
      </trkpt>
      <trkpt lat="44.12493" lon="7.26484">
        <ele>1683.459</ele>
        <time>2020-06-28T13:55:17Z</time>
      </trkpt>
      <trkpt lat="44.12492" lon="7.26471">
        <ele>1683.556</ele>
        <time>2020-06-28T13:55:33Z</time>
      </trkpt>
      <trkpt lat="44.12488" lon="7.2646">
        <ele>1683.651</ele>
        <time>2020-06-28T13:55:49Z</time>
      </trkpt>
      <trkpt lat="44.12483" lon="7.26445">
        <ele>1679.285</ele>
        <time>2020-06-28T13:56:05Z</time>
      </trkpt>
      <trkpt lat="44.12487" lon="7.26422">
        <ele>1682.223</ele>
        <time>2020-06-28T13:56:21Z</time>
      </trkpt>
      <trkpt lat="44.12492" lon="7.26411">
        <ele>1688.241</ele>
        <time>2020-06-28T13:56:37Z</time>
      </trkpt>
      <trkpt lat="44.12498" lon="7.2641">
        <ele>1690.696</ele>
        <time>2020-06-28T13:56:52Z</time>
      </trkpt>
      <trkpt lat="44.12502" lon="7.26403">
        <ele>1689.21</ele>
        <time>2020-06-28T13:57:08Z</time>
      </trkpt>
      <trkpt lat="44.12514" lon="7.26384">
        <ele>1686.017</ele>
        <time>2020-06-28T13:57:24Z</time>
      </trkpt>
      <trkpt lat="44.12518" lon="7.2637">
        <ele>1685.316</ele>
        <time>2020-06-28T13:57:40Z</time>
      </trkpt>
      <trkpt lat="44.12519" lon="7.26366">
        <ele>1687.063</ele>
        <time>2020-06-28T13:57:56Z</time>
      </trkpt>
      <trkpt lat="44.12535" lon="7.26342">
        <ele>1691.333</ele>
        <time>2020-06-28T13:58:12Z</time>
      </trkpt>
      <trkpt lat="44.12542" lon="7.26321">
        <ele>1693.449</ele>
        <time>2020-06-28T13:58:27Z</time>
      </trkpt>
      <trkpt lat="44.12549" lon="7.26306">
        <ele>1697.273</ele>
        <time>2020-06-28T13:58:43Z</time>
      </trkpt>
      <trkpt lat="44.12539" lon="7.2628">
        <ele>1701.751</ele>
        <time>2020-06-28T13:58:59Z</time>
      </trkpt>
      <trkpt lat="44.12541" lon="7.26272">
        <ele>1702.572</ele>
        <time>2020-06-28T13:59:15Z</time>
      </trkpt>
      <trkpt lat="44.12546" lon="7.2626">
        <ele>1706.771</ele>
        <time>2020-06-28T13:59:31Z</time>
      </trkpt>
      <trkpt lat="44.12551" lon="7.26246">
        <ele>1711.142</ele>
        <time>2020-06-28T13:59:47Z</time>
      </trkpt>
      <trkpt lat="44.12551" lon="7.26243">
        <ele>1711.01</ele>
        <time>2020-06-28T14:00:02Z</time>
      </trkpt>
      <trkpt lat="44.1255" lon="7.26219">
        <ele>1709.831</ele>
        <time>2020-06-28T14:00:18Z</time>
      </trkpt>
      <trkpt lat="44.12548" lon="7.26198">
        <ele>1710.315</ele>
        <time>2020-06-28T14:00:33Z</time>
      </trkpt>
      <trkpt lat="44.12551" lon="7.26182">
        <ele>1707.711</ele>
        <time>2020-06-28T14:00:49Z</time>
      </trkpt>
      <trkpt lat="44.12552" lon="7.26174">
        <ele>1704.469</ele>
        <time>2020-06-28T14:01:04Z</time>
      </trkpt>
      <trkpt lat="44.12554" lon="7.26164">
        <ele>1706.402</ele>
        <time>2020-06-28T14:01:20Z</time>
      </trkpt>
      <trkpt lat="44.12565" lon="7.26147">
        <ele>1711.807</ele>
        <time>2020-06-28T14:01:35Z</time>
      </trkpt>
      <trkpt lat="44.12569" lon="7.26133">
        <ele>1719.279</ele>
        <time>2020-06-28T14:01:50Z</time>
      </trkpt>
      <trkpt lat="44.12583" lon="7.26129">
        <ele>1719.984</ele>
        <time>2020-06-28T14:02:05Z</time>
      </trkpt>
      <trkpt lat="44.12586" lon="7.26119">
        <ele>1723.139</ele>
        <time>2020-06-28T14:02:21Z</time>
      </trkpt>
      <trkpt lat="44.1258" lon="7.26097">
        <ele>1719.144</ele>
        <time>2020-06-28T14:02:37Z</time>
      </trkpt>
      <trkpt lat="44.12578" lon="7.26088">
        <ele>1718.577</ele>
        <time>2020-06-28T14:02:52Z</time>
      </trkpt>
      <trkpt lat="44.12586" lon="7.26069">
        <ele>1713.836</ele>
        <time>2020-06-28T14:03:08Z</time>
      </trkpt>
      <trkpt lat="44.12587" lon="7.26067">
        <ele>1714.134</ele>
        <time>2020-06-28T14:03:23Z</time>
      </trkpt>
      <trkpt lat="44.12603" lon="7.26058">
        <ele>1711.686</ele>
        <time>2020-06-28T14:03:38Z</time>
      </trkpt>
      <trkpt lat="44.12603" lon="7.26059">
        <ele>1716.986</ele>
        <time>2020-06-28T14:03:53Z</time>
      </trkpt>
      <trkpt lat="44.12585" lon="7.2604">
        <ele>1716.136</ele>
        <time>2020-06-28T14:04:09Z</time>
      </trkpt>
      <trkpt lat="44.12582" lon="7.26028">
        <ele>1717.715</ele>
        <time>2020-06-28T14:04:24Z</time>
      </trkpt>
      <trkpt lat="44.12587" lon="7.26014">
        <ele>1717.251</ele>
        <time>2020-06-28T14:04:40Z</time>
      </trkpt>
      <trkpt lat="44.12598" lon="7.26001">
        <ele>1722.486</ele>
        <time>2020-06-28T14:04:55Z</time>
      </trkpt>
      <trkpt lat="44.12609" lon="7.2598">
        <ele>1727.362</ele>
        <time>2020-06-28T14:05:11Z</time>
      </trkpt>
      <trkpt lat="44.12618" lon="7.25964">
        <ele>1726.064</ele>
        <time>2020-06-28T14:05:26Z</time>
      </trkpt>
      <trkpt lat="44.12617" lon="7.25947">
        <ele>1726.437</ele>
        <time>2020-06-28T14:05:41Z</time>
      </trkpt>
      <trkpt lat="44.12619" lon="7.25938">
        <ele>1734.105</ele>
        <time>2020-06-28T14:05:57Z</time>
      </trkpt>
      <trkpt lat="44.12615" lon="7.2593">
        <ele>1733.703</ele>
        <time>2020-06-28T14:06:13Z</time>
      </trkpt>
      <trkpt lat="44.12608" lon="7.25904">
        <ele>1736.502</ele>
        <time>2020-06-28T14:06:28Z</time>
      </trkpt>
      <trkpt lat="44.12602" lon="7.2589">
        <ele>1737.582</ele>
        <time>2020-06-28T14:06:43Z</time>
      </trkpt>
      <trkpt lat="44.12602" lon="7.25889">
        <ele>1737.147</ele>
        <time>2020-06-28T14:06:59Z</time>
      </trkpt>
      <trkpt lat="44.12599" lon="7.25875">
        <ele>1739.218</ele>
        <time>2020-06-28T14:07:14Z</time>
      </trkpt>
      <trkpt lat="44.12591" lon="7.25852">
        <ele>1747.765</ele>
        <time>2020-06-28T14:07:30Z</time>
      </trkpt>
      <trkpt lat="44.12593" lon="7.25836">
        <ele>1753.048</ele>
        <time>2020-06-28T14:07:45Z</time>
      </trkpt>
      <trkpt lat="44.12596" lon="7.25817">
        <ele>1756.767</ele>
        <time>2020-06-28T14:08:01Z</time>
      </trkpt>
      <trkpt lat="44.12605" lon="7.25803">
        <ele>1762.163</ele>
        <time>2020-06-28T14:08:16Z</time>
      </trkpt>
      <trkpt lat="44.12605" lon="7.25803">
        <ele>1762.163</ele>
        <time>2020-06-28T14:08:31Z</time>
      </trkpt>
      <trkpt lat="44.12613" lon="7.25787">
        <ele>1763.971</ele>
        <time>2020-06-28T14:08:47Z</time>
      </trkpt>
      <trkpt lat="44.12615" lon="7.25764">
        <ele>1763.013</ele>
        <time>2020-06-28T14:09:03Z</time>
      </trkpt>
      <trkpt lat="44.12618" lon="7.25752">
        <ele>1765.202</ele>
        <time>2020-06-28T14:09:19Z</time>
      </trkpt>
      <trkpt lat="44.12621" lon="7.25748">
        <ele>1761.774</ele>
        <time>2020-06-28T14:09:35Z</time>
      </trkpt>
      <trkpt lat="44.1263" lon="7.25739">
        <ele>1762.25</ele>
        <time>2020-06-28T14:09:50Z</time>
      </trkpt>
      <trkpt lat="44.12637" lon="7.25733">
        <ele>1758.745</ele>
        <time>2020-06-28T14:10:06Z</time>
      </trkpt>
      <trkpt lat="44.12632" lon="7.25724">
        <ele>1765.721</ele>
        <time>2020-06-28T14:10:21Z</time>
      </trkpt>
      <trkpt lat="44.12633" lon="7.25725">
        <ele>1767.845</ele>
        <time>2020-06-28T14:10:36Z</time>
      </trkpt>
      <trkpt lat="44.12639" lon="7.25722">
        <ele>1773.25</ele>
        <time>2020-06-28T14:10:51Z</time>
      </trkpt>
      <trkpt lat="44.12638" lon="7.25718">
        <ele>1774.783</ele>
        <time>2020-06-28T14:11:07Z</time>
      </trkpt>
      <trkpt lat="44.12639" lon="7.25721">
        <ele>1777.94</ele>
        <time>2020-06-28T14:11:22Z</time>
      </trkpt>
      <trkpt lat="44.12631" lon="7.25703">
        <ele>1783.841</ele>
        <time>2020-06-28T14:11:38Z</time>
      </trkpt>
      <trkpt lat="44.12634" lon="7.2569">
        <ele>1788.916</ele>
        <time>2020-06-28T14:11:54Z</time>
      </trkpt>
      <trkpt lat="44.12634" lon="7.2569">
        <ele>1788.916</ele>
        <time>2020-06-28T14:12:09Z</time>
      </trkpt>
      <trkpt lat="44.12642" lon="7.25678">
        <ele>1788.215</ele>
        <time>2020-06-28T14:12:25Z</time>
      </trkpt>
      <trkpt lat="44.12645" lon="7.25664">
        <ele>1787.135</ele>
        <time>2020-06-28T14:12:40Z</time>
      </trkpt>
      <trkpt lat="44.12656" lon="7.25648">
        <ele>1786.958</ele>
        <time>2020-06-28T14:12:56Z</time>
      </trkpt>
      <trkpt lat="44.12656" lon="7.25648">
        <ele>1786.958</ele>
        <time>2020-06-28T14:13:11Z</time>
      </trkpt>
      <trkpt lat="44.12655" lon="7.25638">
        <ele>1788.328</ele>
        <time>2020-06-28T14:13:27Z</time>
      </trkpt>
      <trkpt lat="44.12659" lon="7.25605">
        <ele>1791.443</ele>
        <time>2020-06-28T14:13:43Z</time>
      </trkpt>
      <trkpt lat="44.12656" lon="7.25599">
        <ele>1792.032</ele>
        <time>2020-06-28T14:13:58Z</time>
      </trkpt>
      <trkpt lat="44.1264" lon="7.25575">
        <ele>1793.228</ele>
        <time>2020-06-28T14:14:13Z</time>
      </trkpt>
      <trkpt lat="44.1264" lon="7.25562">
        <ele>1792.035</ele>
        <time>2020-06-28T14:14:29Z</time>
      </trkpt>
      <trkpt lat="44.12651" lon="7.25545">
        <ele>1786.041</ele>
        <time>2020-06-28T14:14:45Z</time>
      </trkpt>
      <trkpt lat="44.12651" lon="7.25545">
        <ele>1786.041</ele>
        <time>2020-06-28T14:15:00Z</time>
      </trkpt>
      <trkpt lat="44.12647" lon="7.25526">
        <ele>1787.688</ele>
        <time>2020-06-28T14:15:16Z</time>
      </trkpt>
      <trkpt lat="44.1265" lon="7.25508">
        <ele>1789.13</ele>
        <time>2020-06-28T14:15:32Z</time>
      </trkpt>
      <trkpt lat="44.12656" lon="7.25488">
        <ele>1790.517</ele>
        <time>2020-06-28T14:15:48Z</time>
      </trkpt>
      <trkpt lat="44.12654" lon="7.25462">
        <ele>1792.597</ele>
        <time>2020-06-28T14:16:04Z</time>
      </trkpt>
      <trkpt lat="44.1266" lon="7.25459">
        <ele>1799.485</ele>
        <time>2020-06-28T14:16:20Z</time>
      </trkpt>
      <trkpt lat="44.12665" lon="7.2545">
        <ele>1802.432</ele>
        <time>2020-06-28T14:16:35Z</time>
      </trkpt>
      <trkpt lat="44.12665" lon="7.25436">
        <ele>1806.36</ele>
        <time>2020-06-28T14:16:51Z</time>
      </trkpt>
      <trkpt lat="44.1267" lon="7.25416">
        <ele>1814.021</ele>
        <time>2020-06-28T14:17:06Z</time>
      </trkpt>
      <trkpt lat="44.12674" lon="7.25411">
        <ele>1818.357</ele>
        <time>2020-06-28T14:17:22Z</time>
      </trkpt>
      <trkpt lat="44.12682" lon="7.25391">
        <ele>1821.713</ele>
        <time>2020-06-28T14:17:38Z</time>
      </trkpt>
      <trkpt lat="44.1269" lon="7.25384">
        <ele>1827.162</ele>
        <time>2020-06-28T14:17:54Z</time>
      </trkpt>
      <trkpt lat="44.1269" lon="7.25374">
        <ele>1832.304</ele>
        <time>2020-06-28T14:18:10Z</time>
      </trkpt>
      <trkpt lat="44.12689" lon="7.25363">
        <ele>1831.071</ele>
        <time>2020-06-28T14:18:26Z</time>
      </trkpt>
      <trkpt lat="44.12694" lon="7.25343">
        <ele>1831.811</ele>
        <time>2020-06-28T14:18:41Z</time>
      </trkpt>
      <trkpt lat="44.12697" lon="7.25327">
        <ele>1829.86</ele>
        <time>2020-06-28T14:18:57Z</time>
      </trkpt>
      <trkpt lat="44.12696" lon="7.25311">
        <ele>1832.349</ele>
        <time>2020-06-28T14:19:12Z</time>
      </trkpt>
      <trkpt lat="44.12697" lon="7.25289">
        <ele>1835.933</ele>
        <time>2020-06-28T14:19:28Z</time>
      </trkpt>
      <trkpt lat="44.12698" lon="7.25288">
        <ele>1837.054</ele>
        <time>2020-06-28T14:19:44Z</time>
      </trkpt>
      <trkpt lat="44.12696" lon="7.25287">
        <ele>1837.476</ele>
        <time>2020-06-28T14:20:00Z</time>
      </trkpt>
      <trkpt lat="44.12688" lon="7.25283">
        <ele>1842.238</ele>
        <time>2020-06-28T14:20:16Z</time>
      </trkpt>
      <trkpt lat="44.1268" lon="7.25288">
        <ele>1849.1</ele>
        <time>2020-06-28T14:20:31Z</time>
      </trkpt>
      <trkpt lat="44.12677" lon="7.2529">
        <ele>1852.272</ele>
        <time>2020-06-28T14:20:47Z</time>
      </trkpt>
      <trkpt lat="44.12671" lon="7.25285">
        <ele>1851.877</ele>
        <time>2020-06-28T14:21:02Z</time>
      </trkpt>
      <trkpt lat="44.1267" lon="7.25277">
        <ele>1851.675</ele>
        <time>2020-06-28T14:21:18Z</time>
      </trkpt>
      <trkpt lat="44.12669" lon="7.2527">
        <ele>1851.148</ele>
        <time>2020-06-28T14:21:33Z</time>
      </trkpt>
      <trkpt lat="44.12668" lon="7.2526">
        <ele>1850.757</ele>
        <time>2020-06-28T14:21:49Z</time>
      </trkpt>
      <trkpt lat="44.12679" lon="7.25248">
        <ele>1853.66</ele>
        <time>2020-06-28T14:22:05Z</time>
      </trkpt>
      <trkpt lat="44.1268" lon="7.25238">
        <ele>1852.414</ele>
        <time>2020-06-28T14:22:21Z</time>
      </trkpt>
      <trkpt lat="44.1268" lon="7.25234">
        <ele>1850.003</ele>
        <time>2020-06-28T14:22:37Z</time>
      </trkpt>
      <trkpt lat="44.12689" lon="7.25217">
        <ele>1855.326</ele>
        <time>2020-06-28T14:22:52Z</time>
      </trkpt>
      <trkpt lat="44.12697" lon="7.25224">
        <ele>1860.115</ele>
        <time>2020-06-28T14:23:08Z</time>
      </trkpt>
      <trkpt lat="44.12704" lon="7.25229">
        <ele>1856.953</ele>
        <time>2020-06-28T14:23:24Z</time>
      </trkpt>
      <trkpt lat="44.1271" lon="7.25229">
        <ele>1857.885</ele>
        <time>2020-06-28T14:23:40Z</time>
      </trkpt>
      <trkpt lat="44.12713" lon="7.25232">
        <ele>1858.071</ele>
        <time>2020-06-28T14:23:56Z</time>
      </trkpt>
      <trkpt lat="44.12711" lon="7.25234">
        <ele>1859.693</ele>
        <time>2020-06-28T14:24:11Z</time>
      </trkpt>
      <trkpt lat="44.12711" lon="7.25233">
        <ele>1859.972</ele>
        <time>2020-06-28T14:24:27Z</time>
      </trkpt>
      <trkpt lat="44.12707" lon="7.25232">
        <ele>1856.084</ele>
        <time>2020-06-28T14:24:43Z</time>
      </trkpt>
      <trkpt lat="44.12705" lon="7.25231">
        <ele>1854.891</ele>
        <time>2020-06-28T14:24:59Z</time>
      </trkpt>
      <trkpt lat="44.12699" lon="7.2522">
        <ele>1853.246</ele>
        <time>2020-06-28T14:25:14Z</time>
      </trkpt>
      <trkpt lat="44.12694" lon="7.25214">
        <ele>1852.086</ele>
        <time>2020-06-28T14:25:30Z</time>
      </trkpt>
      <trkpt lat="44.1269" lon="7.25206">
        <ele>1852.43</ele>
        <time>2020-06-28T14:25:46Z</time>
      </trkpt>
      <trkpt lat="44.12689" lon="7.25205">
        <ele>1853.3</ele>
        <time>2020-06-28T14:26:01Z</time>
      </trkpt>
      <trkpt lat="44.12687" lon="7.25197">
        <ele>1853.578</ele>
        <time>2020-06-28T14:26:16Z</time>
      </trkpt>
      <trkpt lat="44.12682" lon="7.25189">
        <ele>1853.096</ele>
        <time>2020-06-28T14:26:32Z</time>
      </trkpt>
      <trkpt lat="44.12678" lon="7.25182">
        <ele>1854.503</ele>
        <time>2020-06-28T14:26:47Z</time>
      </trkpt>
      <trkpt lat="44.12682" lon="7.25178">
        <ele>1857.676</ele>
        <time>2020-06-28T14:27:03Z</time>
      </trkpt>
      <trkpt lat="44.12681" lon="7.25176">
        <ele>1860.758</ele>
        <time>2020-06-28T14:27:18Z</time>
      </trkpt>
      <trkpt lat="44.1268" lon="7.25177">
        <ele>1865.123</ele>
        <time>2020-06-28T14:27:33Z</time>
      </trkpt>
      <trkpt lat="44.12676" lon="7.25173">
        <ele>1866.209</ele>
        <time>2020-06-28T14:27:49Z</time>
      </trkpt>
      <trkpt lat="44.12676" lon="7.25164">
        <ele>1866.551</ele>
        <time>2020-06-28T14:28:04Z</time>
      </trkpt>
      <trkpt lat="44.12678" lon="7.25154">
        <ele>1868.16</ele>
        <time>2020-06-28T14:28:20Z</time>
      </trkpt>
      <trkpt lat="44.12683" lon="7.25135">
        <ele>1874.737</ele>
        <time>2020-06-28T14:28:35Z</time>
      </trkpt>
      <trkpt lat="44.12677" lon="7.25127">
        <ele>1886.882</ele>
        <time>2020-06-28T14:28:51Z</time>
      </trkpt>
      <trkpt lat="44.12677" lon="7.25135">
        <ele>1888.383</ele>
        <time>2020-06-28T14:29:06Z</time>
      </trkpt>
      <trkpt lat="44.12674" lon="7.25133">
        <ele>1891.328</ele>
        <time>2020-06-28T14:29:21Z</time>
      </trkpt>
      <trkpt lat="44.12671" lon="7.2514">
        <ele>1891.558</ele>
        <time>2020-06-28T14:29:37Z</time>
      </trkpt>
      <trkpt lat="44.12668" lon="7.2514">
        <ele>1893.845</ele>
        <time>2020-06-28T14:29:52Z</time>
      </trkpt>
      <trkpt lat="44.12666" lon="7.25137">
        <ele>1892.49</ele>
        <time>2020-06-28T14:30:08Z</time>
      </trkpt>
      <trkpt lat="44.12665" lon="7.25128">
        <ele>1892.305</ele>
        <time>2020-06-28T14:30:23Z</time>
      </trkpt>
      <trkpt lat="44.12671" lon="7.25119">
        <ele>1894.497</ele>
        <time>2020-06-28T14:30:39Z</time>
      </trkpt>
      <trkpt lat="44.12672" lon="7.25114">
        <ele>1897.842</ele>
        <time>2020-06-28T14:30:55Z</time>
      </trkpt>
      <trkpt lat="44.12675" lon="7.25105">
        <ele>1894.834</ele>
        <time>2020-06-28T14:31:11Z</time>
      </trkpt>
      <trkpt lat="44.1268" lon="7.25089">
        <ele>1894.707</ele>
        <time>2020-06-28T14:31:26Z</time>
      </trkpt>
      <trkpt lat="44.1268" lon="7.25087">
        <ele>1900.329</ele>
        <time>2020-06-28T14:31:41Z</time>
      </trkpt>
      <trkpt lat="44.12679" lon="7.25091">
        <ele>1900.02</ele>
        <time>2020-06-28T14:31:57Z</time>
      </trkpt>
      <trkpt lat="44.12669" lon="7.251">
        <ele>1903.34</ele>
        <time>2020-06-28T14:32:13Z</time>
      </trkpt>
      <trkpt lat="44.12668" lon="7.25109">
        <ele>1903.499</ele>
        <time>2020-06-28T14:32:29Z</time>
      </trkpt>
      <trkpt lat="44.12665" lon="7.25106">
        <ele>1902.941</ele>
        <time>2020-06-28T14:32:45Z</time>
      </trkpt>
      <trkpt lat="44.12656" lon="7.25116">
        <ele>1905.403</ele>
        <time>2020-06-28T14:33:00Z</time>
      </trkpt>
      <trkpt lat="44.12651" lon="7.2512">
        <ele>1909.918</ele>
        <time>2020-06-28T14:33:16Z</time>
      </trkpt>
      <trkpt lat="44.12649" lon="7.25118">
        <ele>1907.934</ele>
        <time>2020-06-28T14:33:31Z</time>
      </trkpt>
      <trkpt lat="44.12649" lon="7.25118">
        <ele>1907.934</ele>
        <time>2020-06-28T14:33:47Z</time>
      </trkpt>
      <trkpt lat="44.12649" lon="7.25118">
        <ele>1907.934</ele>
        <time>2020-06-28T14:34:03Z</time>
      </trkpt>
      <trkpt lat="44.12645" lon="7.25114">
        <ele>1913.816</ele>
        <time>2020-06-28T14:34:18Z</time>
      </trkpt>
      <trkpt lat="44.12646" lon="7.25107">
        <ele>1916.075</ele>
        <time>2020-06-28T14:34:34Z</time>
      </trkpt>
      <trkpt lat="44.12642" lon="7.25089">
        <ele>1914.882</ele>
        <time>2020-06-28T14:34:49Z</time>
      </trkpt>
      <trkpt lat="44.12642" lon="7.25089">
        <ele>1914.882</ele>
        <time>2020-06-28T14:35:05Z</time>
      </trkpt>
      <trkpt lat="44.12642" lon="7.25087">
        <ele>1912.738</ele>
        <time>2020-06-28T14:35:21Z</time>
      </trkpt>
      <trkpt lat="44.1264" lon="7.25079">
        <ele>1914.068</ele>
        <time>2020-06-28T14:35:37Z</time>
      </trkpt>
      <trkpt lat="44.12631" lon="7.25094">
        <ele>1918.898</ele>
        <time>2020-06-28T14:35:53Z</time>
      </trkpt>
      <trkpt lat="44.12628" lon="7.25104">
        <ele>1922.748</ele>
        <time>2020-06-28T14:36:08Z</time>
      </trkpt>
      <trkpt lat="44.12622" lon="7.25104">
        <ele>1923.759</ele>
        <time>2020-06-28T14:36:24Z</time>
      </trkpt>
      <trkpt lat="44.12611" lon="7.25109">
        <ele>1923.067</ele>
        <time>2020-06-28T14:36:39Z</time>
      </trkpt>
      <trkpt lat="44.12598" lon="7.2512">
        <ele>1927.884</ele>
        <time>2020-06-28T14:36:55Z</time>
      </trkpt>
      <trkpt lat="44.12593" lon="7.25122">
        <ele>1926.611</ele>
        <time>2020-06-28T14:37:11Z</time>
      </trkpt>
      <trkpt lat="44.12578" lon="7.25113">
        <ele>1925.781</ele>
        <time>2020-06-28T14:37:26Z</time>
      </trkpt>
      <trkpt lat="44.12569" lon="7.25106">
        <ele>1922.966</ele>
        <time>2020-06-28T14:37:42Z</time>
      </trkpt>
      <trkpt lat="44.12566" lon="7.25109">
        <ele>1922.197</ele>
        <time>2020-06-28T14:37:58Z</time>
      </trkpt>
      <trkpt lat="44.12565" lon="7.2511">
        <ele>1922.264</ele>
        <time>2020-06-28T14:38:14Z</time>
      </trkpt>
      <trkpt lat="44.12558" lon="7.25119">
        <ele>1927.731</ele>
        <time>2020-06-28T14:38:29Z</time>
      </trkpt>
      <trkpt lat="44.12557" lon="7.25118">
        <ele>1927.047</ele>
        <time>2020-06-28T14:38:44Z</time>
      </trkpt>
      <trkpt lat="44.12553" lon="7.25119">
        <ele>1926.22</ele>
        <time>2020-06-28T14:39:00Z</time>
      </trkpt>
      <trkpt lat="44.12537" lon="7.25108">
        <ele>1921.285</ele>
        <time>2020-06-28T14:39:15Z</time>
      </trkpt>
      <trkpt lat="44.12517" lon="7.25111">
        <ele>1928.627</ele>
        <time>2020-06-28T14:39:30Z</time>
      </trkpt>
      <trkpt lat="44.12505" lon="7.25121">
        <ele>1935.482</ele>
        <time>2020-06-28T14:39:45Z</time>
      </trkpt>
      <trkpt lat="44.12495" lon="7.25118">
        <ele>1925.231</ele>
        <time>2020-06-28T14:40:00Z</time>
      </trkpt>
      <trkpt lat="44.12487" lon="7.25119">
        <ele>1930.465</ele>
        <time>2020-06-28T14:40:16Z</time>
      </trkpt>
      <trkpt lat="44.12486" lon="7.25117">
        <ele>1931.462</ele>
        <time>2020-06-28T14:40:32Z</time>
      </trkpt>
      <trkpt lat="44.12482" lon="7.25107">
        <ele>1930.311</ele>
        <time>2020-06-28T14:40:47Z</time>
      </trkpt>
      <trkpt lat="44.12483" lon="7.25105">
        <ele>1931.075</ele>
        <time>2020-06-28T14:41:03Z</time>
      </trkpt>
      <trkpt lat="44.12487" lon="7.25103">
        <ele>1934.332</ele>
        <time>2020-06-28T14:41:19Z</time>
      </trkpt>
      <trkpt lat="44.12493" lon="7.25099">
        <ele>1936.664</ele>
        <time>2020-06-28T14:41:34Z</time>
      </trkpt>
      <trkpt lat="44.12507" lon="7.25095">
        <ele>1942.913</ele>
        <time>2020-06-28T14:41:49Z</time>
      </trkpt>
      <trkpt lat="44.12509" lon="7.25104">
        <ele>1950.234</ele>
        <time>2020-06-28T14:42:05Z</time>
      </trkpt>
      <trkpt lat="44.12521" lon="7.25091">
        <ele>1950.176</ele>
        <time>2020-06-28T14:42:20Z</time>
      </trkpt>
      <trkpt lat="44.12528" lon="7.25086">
        <ele>1954.6</ele>
        <time>2020-06-28T14:42:36Z</time>
      </trkpt>
      <trkpt lat="44.12539" lon="7.25077">
        <ele>1957.902</ele>
        <time>2020-06-28T14:42:51Z</time>
      </trkpt>
      <trkpt lat="44.12547" lon="7.25077">
        <ele>1961.881</ele>
        <time>2020-06-28T14:43:07Z</time>
      </trkpt>
      <trkpt lat="44.12561" lon="7.25066">
        <ele>1970.158</ele>
        <time>2020-06-28T14:43:23Z</time>
      </trkpt>
      <trkpt lat="44.1257" lon="7.25055">
        <ele>1966.748</ele>
        <time>2020-06-28T14:43:39Z</time>
      </trkpt>
      <trkpt lat="44.12573" lon="7.25036">
        <ele>1971.849</ele>
        <time>2020-06-28T14:43:55Z</time>
      </trkpt>
      <trkpt lat="44.12583" lon="7.2503">
        <ele>1974.487</ele>
        <time>2020-06-28T14:44:11Z</time>
      </trkpt>
      <trkpt lat="44.12585" lon="7.2502">
        <ele>1971.78</ele>
        <time>2020-06-28T14:44:26Z</time>
      </trkpt>
      <trkpt lat="44.12596" lon="7.25009">
        <ele>1976.008</ele>
        <time>2020-06-28T14:44:42Z</time>
      </trkpt>
      <trkpt lat="44.12597" lon="7.25005">
        <ele>1978.11</ele>
        <time>2020-06-28T14:44:57Z</time>
      </trkpt>
      <trkpt lat="44.12597" lon="7.25005">
        <ele>1978.11</ele>
        <time>2020-06-28T14:45:13Z</time>
      </trkpt>
      <trkpt lat="44.12597" lon="7.25005">
        <ele>1978.11</ele>
        <time>2020-06-28T14:45:29Z</time>
      </trkpt>
      <trkpt lat="44.12597" lon="7.25005">
        <ele>1978.11</ele>
        <time>2020-06-28T14:45:45Z</time>
      </trkpt>
      <trkpt lat="44.12597" lon="7.25005">
        <ele>1978.11</ele>
        <time>2020-06-28T14:46:00Z</time>
      </trkpt>
      <trkpt lat="44.12598" lon="7.25002">
        <ele>1980.199</ele>
        <time>2020-06-28T14:46:16Z</time>
      </trkpt>
      <trkpt lat="44.12601" lon="7.24999">
        <ele>1982.552</ele>
        <time>2020-06-28T14:46:31Z</time>
      </trkpt>
      <trkpt lat="44.12598" lon="7.25002">
        <ele>1982.069</ele>
        <time>2020-06-28T14:46:47Z</time>
      </trkpt>
      <trkpt lat="44.12596" lon="7.25013">
        <ele>1984.201</ele>
        <time>2020-06-28T14:47:03Z</time>
      </trkpt>
      <trkpt lat="44.12587" lon="7.2502">
        <ele>1986.412</ele>
        <time>2020-06-28T14:47:18Z</time>
      </trkpt>
      <trkpt lat="44.12576" lon="7.25029">
        <ele>1987.57</ele>
        <time>2020-06-28T14:47:34Z</time>
      </trkpt>
      <trkpt lat="44.12571" lon="7.25033">
        <ele>1987.778</ele>
        <time>2020-06-28T14:47:49Z</time>
      </trkpt>
      <trkpt lat="44.1256" lon="7.25046">
        <ele>1987.23</ele>
        <time>2020-06-28T14:48:05Z</time>
      </trkpt>
      <trkpt lat="44.12553" lon="7.25048">
        <ele>1987.089</ele>
        <time>2020-06-28T14:48:21Z</time>
      </trkpt>
      <trkpt lat="44.12548" lon="7.2505">
        <ele>1988.114</ele>
        <time>2020-06-28T14:48:37Z</time>
      </trkpt>
      <trkpt lat="44.12543" lon="7.2505">
        <ele>1988.714</ele>
        <time>2020-06-28T14:48:53Z</time>
      </trkpt>
      <trkpt lat="44.1254" lon="7.2504">
        <ele>1989.104</ele>
        <time>2020-06-28T14:49:08Z</time>
      </trkpt>
      <trkpt lat="44.12538" lon="7.25039">
        <ele>1991.316</ele>
        <time>2020-06-28T14:49:23Z</time>
      </trkpt>
      <trkpt lat="44.12546" lon="7.25032">
        <ele>1994.01</ele>
        <time>2020-06-28T14:49:39Z</time>
      </trkpt>
      <trkpt lat="44.12557" lon="7.25025">
        <ele>1998.403</ele>
        <time>2020-06-28T14:49:55Z</time>
      </trkpt>
      <trkpt lat="44.12558" lon="7.25017">
        <ele>1999.011</ele>
        <time>2020-06-28T14:50:11Z</time>
      </trkpt>
      <trkpt lat="44.12565" lon="7.25014">
        <ele>1999.546</ele>
        <time>2020-06-28T14:50:27Z</time>
      </trkpt>
      <trkpt lat="44.12579" lon="7.25002">
        <ele>2002.249</ele>
        <time>2020-06-28T14:50:42Z</time>
      </trkpt>
      <trkpt lat="44.12584" lon="7.25002">
        <ele>2004.117</ele>
        <time>2020-06-28T14:50:58Z</time>
      </trkpt>
      <trkpt lat="44.12587" lon="7.24994">
        <ele>2006.11</ele>
        <time>2020-06-28T14:51:13Z</time>
      </trkpt>
      <trkpt lat="44.12586" lon="7.24995">
        <ele>2009.667</ele>
        <time>2020-06-28T14:51:29Z</time>
      </trkpt>
      <trkpt lat="44.12587" lon="7.24994">
        <ele>2009.369</ele>
        <time>2020-06-28T14:51:45Z</time>
      </trkpt>
      <trkpt lat="44.12587" lon="7.24983">
        <ele>2009.445</ele>
        <time>2020-06-28T14:52:00Z</time>
      </trkpt>
      <trkpt lat="44.12587" lon="7.24984">
        <ele>2010.059</ele>
        <time>2020-06-28T14:52:16Z</time>
      </trkpt>
      <trkpt lat="44.12583" lon="7.24986">
        <ele>2012.529</ele>
        <time>2020-06-28T14:52:31Z</time>
      </trkpt>
      <trkpt lat="44.12576" lon="7.24989">
        <ele>2014.16</ele>
        <time>2020-06-28T14:52:47Z</time>
      </trkpt>
      <trkpt lat="44.12567" lon="7.24991">
        <ele>2016.209</ele>
        <time>2020-06-28T14:53:03Z</time>
      </trkpt>
      <trkpt lat="44.12567" lon="7.24991">
        <ele>2016.209</ele>
        <time>2020-06-28T14:53:19Z</time>
      </trkpt>
      <trkpt lat="44.12549" lon="7.25002">
        <ele>2020.783</ele>
        <time>2020-06-28T14:53:34Z</time>
      </trkpt>
      <trkpt lat="44.12536" lon="7.2501">
        <ele>2023.457</ele>
        <time>2020-06-28T14:53:50Z</time>
      </trkpt>
      <trkpt lat="44.12533" lon="7.25011">
        <ele>2025.596</ele>
        <time>2020-06-28T14:54:05Z</time>
      </trkpt>
      <trkpt lat="44.12526" lon="7.25019">
        <ele>2027.066</ele>
        <time>2020-06-28T14:54:21Z</time>
      </trkpt>
      <trkpt lat="44.12519" lon="7.25025">
        <ele>2029.539</ele>
        <time>2020-06-28T14:54:37Z</time>
      </trkpt>
      <trkpt lat="44.12517" lon="7.25026">
        <ele>2030.579</ele>
        <time>2020-06-28T14:54:53Z</time>
      </trkpt>
      <trkpt lat="44.1251" lon="7.25026">
        <ele>2031.054</ele>
        <time>2020-06-28T14:55:08Z</time>
      </trkpt>
      <trkpt lat="44.12501" lon="7.25022">
        <ele>2035.542</ele>
        <time>2020-06-28T14:55:23Z</time>
      </trkpt>
      <trkpt lat="44.12492" lon="7.25021">
        <ele>2038.974</ele>
        <time>2020-06-28T14:55:39Z</time>
      </trkpt>
      <trkpt lat="44.12494" lon="7.2502">
        <ele>2042.09</ele>
        <time>2020-06-28T14:55:55Z</time>
      </trkpt>
      <trkpt lat="44.12496" lon="7.25017">
        <ele>2042.635</ele>
        <time>2020-06-28T14:56:11Z</time>
      </trkpt>
      <trkpt lat="44.12496" lon="7.25017">
        <ele>2042.635</ele>
        <time>2020-06-28T14:56:27Z</time>
      </trkpt>
      <trkpt lat="44.12496" lon="7.25017">
        <ele>2042.635</ele>
        <time>2020-06-28T14:56:42Z</time>
      </trkpt>
      <trkpt lat="44.12498" lon="7.25008">
        <ele>2043.909</ele>
        <time>2020-06-28T14:56:58Z</time>
      </trkpt>
      <trkpt lat="44.12501" lon="7.25014">
        <ele>2044.59</ele>
        <time>2020-06-28T14:57:14Z</time>
      </trkpt>
      <trkpt lat="44.12501" lon="7.25014">
        <ele>2044.59</ele>
        <time>2020-06-28T14:57:29Z</time>
      </trkpt>
      <trkpt lat="44.12502" lon="7.25011">
        <ele>2043.473</ele>
        <time>2020-06-28T14:57:44Z</time>
      </trkpt>
      <trkpt lat="44.12504" lon="7.25011">
        <ele>2045.73</ele>
        <time>2020-06-28T14:58:00Z</time>
      </trkpt>
      <trkpt lat="44.12503" lon="7.25001">
        <ele>2046.594</ele>
        <time>2020-06-28T14:58:15Z</time>
      </trkpt>
      <trkpt lat="44.12512" lon="7.24989">
        <ele>2047.319</ele>
        <time>2020-06-28T14:58:31Z</time>
      </trkpt>
      <trkpt lat="44.12516" lon="7.24985">
        <ele>2047.572</ele>
        <time>2020-06-28T14:58:47Z</time>
      </trkpt>
      <trkpt lat="44.12514" lon="7.24985">
        <ele>2048.796</ele>
        <time>2020-06-28T14:59:03Z</time>
      </trkpt>
      <trkpt lat="44.12506" lon="7.2499">
        <ele>2055</ele>
        <time>2020-06-28T14:59:19Z</time>
      </trkpt>
      <trkpt lat="44.12491" lon="7.24986">
        <ele>2055.755</ele>
        <time>2020-06-28T14:59:35Z</time>
      </trkpt>
      <trkpt lat="44.12489" lon="7.24987">
        <ele>2054.773</ele>
        <time>2020-06-28T14:59:50Z</time>
      </trkpt>
      <trkpt lat="44.12474" lon="7.24987">
        <ele>2057.761</ele>
        <time>2020-06-28T15:00:05Z</time>
      </trkpt>
      <trkpt lat="44.12462" lon="7.24989">
        <ele>2058.547</ele>
        <time>2020-06-28T15:00:21Z</time>
      </trkpt>
      <trkpt lat="44.12454" lon="7.2499">
        <ele>2059.391</ele>
        <time>2020-06-28T15:00:37Z</time>
      </trkpt>
      <trkpt lat="44.12441" lon="7.2499">
        <ele>2059.073</ele>
        <time>2020-06-28T15:00:53Z</time>
      </trkpt>
      <trkpt lat="44.12432" lon="7.25001">
        <ele>2062.686</ele>
        <time>2020-06-28T15:01:09Z</time>
      </trkpt>
      <trkpt lat="44.12422" lon="7.25004">
        <ele>2066.211</ele>
        <time>2020-06-28T15:01:25Z</time>
      </trkpt>
      <trkpt lat="44.12414" lon="7.25006">
        <ele>2067.669</ele>
        <time>2020-06-28T15:01:40Z</time>
      </trkpt>
      <trkpt lat="44.12404" lon="7.25006">
        <ele>2069.08</ele>
        <time>2020-06-28T15:01:56Z</time>
      </trkpt>
      <trkpt lat="44.12393" lon="7.25023">
        <ele>2078.78</ele>
        <time>2020-06-28T15:02:11Z</time>
      </trkpt>
      <trkpt lat="44.1239" lon="7.25033">
        <ele>2081.73</ele>
        <time>2020-06-28T15:02:27Z</time>
      </trkpt>
      <trkpt lat="44.12383" lon="7.25047">
        <ele>2084.363</ele>
        <time>2020-06-28T15:02:43Z</time>
      </trkpt>
      <trkpt lat="44.12375" lon="7.25051">
        <ele>2086.832</ele>
        <time>2020-06-28T15:02:58Z</time>
      </trkpt>
      <trkpt lat="44.12363" lon="7.25058">
        <ele>2084.599</ele>
        <time>2020-06-28T15:03:14Z</time>
      </trkpt>
      <trkpt lat="44.12355" lon="7.25059">
        <ele>2085.27</ele>
        <time>2020-06-28T15:03:29Z</time>
      </trkpt>
      <trkpt lat="44.12349" lon="7.25058">
        <ele>2087.124</ele>
        <time>2020-06-28T15:03:45Z</time>
      </trkpt>
      <trkpt lat="44.12336" lon="7.25065">
        <ele>2085.687</ele>
        <time>2020-06-28T15:04:00Z</time>
      </trkpt>
      <trkpt lat="44.12328" lon="7.25062">
        <ele>2086.624</ele>
        <time>2020-06-28T15:04:15Z</time>
      </trkpt>
      <trkpt lat="44.12321" lon="7.25066">
        <ele>2088.874</ele>
        <time>2020-06-28T15:04:30Z</time>
      </trkpt>
      <trkpt lat="44.12322" lon="7.2506">
        <ele>2089.074</ele>
        <time>2020-06-28T15:04:46Z</time>
      </trkpt>
      <trkpt lat="44.12324" lon="7.25051">
        <ele>2090.376</ele>
        <time>2020-06-28T15:05:01Z</time>
      </trkpt>
      <trkpt lat="44.12324" lon="7.25051">
        <ele>2090.376</ele>
        <time>2020-06-28T15:05:18Z</time>
      </trkpt>
      <trkpt lat="44.12324" lon="7.25051">
        <ele>2090.376</ele>
        <time>2020-06-28T15:05:34Z</time>
      </trkpt>
      <trkpt lat="44.12324" lon="7.25051">
        <ele>2090.376</ele>
        <time>2020-06-28T15:05:50Z</time>
      </trkpt>
      <trkpt lat="44.12324" lon="7.25051">
        <ele>2090.376</ele>
        <time>2020-06-28T15:06:05Z</time>
      </trkpt>
      <trkpt lat="44.12319" lon="7.25036">
        <ele>2091.385</ele>
        <time>2020-06-28T15:06:21Z</time>
      </trkpt>
      <trkpt lat="44.12318" lon="7.25033">
        <ele>2091.378</ele>
        <time>2020-06-28T15:06:37Z</time>
      </trkpt>
      <trkpt lat="44.12318" lon="7.25033">
        <ele>2091.378</ele>
        <time>2020-06-28T15:06:52Z</time>
      </trkpt>
      <trkpt lat="44.12322" lon="7.2502">
        <ele>2092.723</ele>
        <time>2020-06-28T15:07:08Z</time>
      </trkpt>
      <trkpt lat="44.12326" lon="7.2501">
        <ele>2094.501</ele>
        <time>2020-06-28T15:07:23Z</time>
      </trkpt>
      <trkpt lat="44.1234" lon="7.24995">
        <ele>2097.866</ele>
        <time>2020-06-28T15:07:38Z</time>
      </trkpt>
      <trkpt lat="44.12346" lon="7.24988">
        <ele>2099.883</ele>
        <time>2020-06-28T15:07:54Z</time>
      </trkpt>
      <trkpt lat="44.12347" lon="7.2498">
        <ele>2101.418</ele>
        <time>2020-06-28T15:08:09Z</time>
      </trkpt>
      <trkpt lat="44.12351" lon="7.2497">
        <ele>2104.772</ele>
        <time>2020-06-28T15:08:24Z</time>
      </trkpt>
      <trkpt lat="44.12353" lon="7.24966">
        <ele>2106.16</ele>
        <time>2020-06-28T15:08:40Z</time>
      </trkpt>
      <trkpt lat="44.12359" lon="7.24955">
        <ele>2105.584</ele>
        <time>2020-06-28T15:08:55Z</time>
      </trkpt>
      <trkpt lat="44.12366" lon="7.24946">
        <ele>2108.181</ele>
        <time>2020-06-28T15:09:11Z</time>
      </trkpt>
      <trkpt lat="44.12366" lon="7.24942">
        <ele>2109.002</ele>
        <time>2020-06-28T15:09:27Z</time>
      </trkpt>
      <trkpt lat="44.12377" lon="7.24931">
        <ele>2112.937</ele>
        <time>2020-06-28T15:09:42Z</time>
      </trkpt>
      <trkpt lat="44.12386" lon="7.2491">
        <ele>2115.278</ele>
        <time>2020-06-28T15:09:58Z</time>
      </trkpt>
      <trkpt lat="44.12386" lon="7.24907">
        <ele>2115.032</ele>
        <time>2020-06-28T15:10:13Z</time>
      </trkpt>
      <trkpt lat="44.12388" lon="7.249">
        <ele>2115.824</ele>
        <time>2020-06-28T15:10:29Z</time>
      </trkpt>
      <trkpt lat="44.12392" lon="7.2488">
        <ele>2115.897</ele>
        <time>2020-06-28T15:10:45Z</time>
      </trkpt>
      <trkpt lat="44.12394" lon="7.24869">
        <ele>2116.689</ele>
        <time>2020-06-28T15:11:01Z</time>
      </trkpt>
      <trkpt lat="44.12404" lon="7.24849">
        <ele>2122.36</ele>
        <time>2020-06-28T15:11:17Z</time>
      </trkpt>
      <trkpt lat="44.1241" lon="7.24838">
        <ele>2125</ele>
        <time>2020-06-28T15:11:32Z</time>
      </trkpt>
      <trkpt lat="44.12411" lon="7.2483">
        <ele>2125.706</ele>
        <time>2020-06-28T15:11:48Z</time>
      </trkpt>
      <trkpt lat="44.12413" lon="7.24822">
        <ele>2126.258</ele>
        <time>2020-06-28T15:12:03Z</time>
      </trkpt>
      <trkpt lat="44.12412" lon="7.24812">
        <ele>2127.38</ele>
        <time>2020-06-28T15:12:19Z</time>
      </trkpt>
      <trkpt lat="44.12411" lon="7.24801">
        <ele>2127.225</ele>
        <time>2020-06-28T15:12:35Z</time>
      </trkpt>
      <trkpt lat="44.12408" lon="7.24789">
        <ele>2128.366</ele>
        <time>2020-06-28T15:12:51Z</time>
      </trkpt>
      <trkpt lat="44.12406" lon="7.24784">
        <ele>2129.154</ele>
        <time>2020-06-28T15:13:07Z</time>
      </trkpt>
      <trkpt lat="44.124" lon="7.2477">
        <ele>2130.318</ele>
        <time>2020-06-28T15:13:22Z</time>
      </trkpt>
      <trkpt lat="44.12396" lon="7.24743">
        <ele>2135.095</ele>
        <time>2020-06-28T15:13:38Z</time>
      </trkpt>
      <trkpt lat="44.12397" lon="7.24731">
        <ele>2137.382</ele>
        <time>2020-06-28T15:13:54Z</time>
      </trkpt>
      <trkpt lat="44.1239" lon="7.24723">
        <ele>2139.995</ele>
        <time>2020-06-28T15:14:10Z</time>
      </trkpt>
      <trkpt lat="44.12387" lon="7.24711">
        <ele>2140.09</ele>
        <time>2020-06-28T15:14:26Z</time>
      </trkpt>
      <trkpt lat="44.12382" lon="7.24686">
        <ele>2141.33</ele>
        <time>2020-06-28T15:14:41Z</time>
      </trkpt>
      <trkpt lat="44.12383" lon="7.24683">
        <ele>2141.967</ele>
        <time>2020-06-28T15:14:57Z</time>
      </trkpt>
      <trkpt lat="44.12385" lon="7.24674">
        <ele>2141.667</ele>
        <time>2020-06-28T15:15:12Z</time>
      </trkpt>
      <trkpt lat="44.12383" lon="7.24653">
        <ele>2144.594</ele>
        <time>2020-06-28T15:15:28Z</time>
      </trkpt>
      <trkpt lat="44.12385" lon="7.2463">
        <ele>2147.256</ele>
        <time>2020-06-28T15:15:43Z</time>
      </trkpt>
      <trkpt lat="44.12381" lon="7.24614">
        <ele>2147.512</ele>
        <time>2020-06-28T15:15:59Z</time>
      </trkpt>
      <trkpt lat="44.12387" lon="7.24597">
        <ele>2144.807</ele>
        <time>2020-06-28T15:16:14Z</time>
      </trkpt>
      <trkpt lat="44.12395" lon="7.24568">
        <ele>2145.94</ele>
        <time>2020-06-28T15:16:30Z</time>
      </trkpt>
      <trkpt lat="44.12397" lon="7.2456">
        <ele>2146.483</ele>
        <time>2020-06-28T15:16:45Z</time>
      </trkpt>
      <trkpt lat="44.12405" lon="7.24542">
        <ele>2147.802</ele>
        <time>2020-06-28T15:17:00Z</time>
      </trkpt>
      <trkpt lat="44.12413" lon="7.24534">
        <ele>2145.006</ele>
        <time>2020-06-28T15:17:16Z</time>
      </trkpt>
      <trkpt lat="44.12419" lon="7.24519">
        <ele>2146.696</ele>
        <time>2020-06-28T15:17:32Z</time>
      </trkpt>
      <trkpt lat="44.12419" lon="7.24501">
        <ele>2150.954</ele>
        <time>2020-06-28T15:17:48Z</time>
      </trkpt>
      <trkpt lat="44.12425" lon="7.24475">
        <ele>2156.461</ele>
        <time>2020-06-28T15:18:04Z</time>
      </trkpt>
      <trkpt lat="44.12436" lon="7.24457">
        <ele>2151.643</ele>
        <time>2020-06-28T15:18:19Z</time>
      </trkpt>
      <trkpt lat="44.12446" lon="7.24444">
        <ele>2153.136</ele>
        <time>2020-06-28T15:18:35Z</time>
      </trkpt>
      <trkpt lat="44.12446" lon="7.24441">
        <ele>2153.359</ele>
        <time>2020-06-28T15:18:50Z</time>
      </trkpt>
      <trkpt lat="44.12446" lon="7.24441">
        <ele>2153.359</ele>
        <time>2020-06-28T15:19:06Z</time>
      </trkpt>
      <trkpt lat="44.1246" lon="7.24438">
        <ele>2153.469</ele>
        <time>2020-06-28T15:19:21Z</time>
      </trkpt>
      <trkpt lat="44.1246" lon="7.24438">
        <ele>2153.469</ele>
        <time>2020-06-28T15:19:37Z</time>
      </trkpt>
      <trkpt lat="44.1246" lon="7.24438">
        <ele>2153.469</ele>
        <time>2020-06-28T15:19:53Z</time>
      </trkpt>
      <trkpt lat="44.1246" lon="7.24438">
        <ele>2153.469</ele>
        <time>2020-06-28T15:20:08Z</time>
      </trkpt>
      <trkpt lat="44.12477" lon="7.2446">
        <ele>2154.283</ele>
        <time>2020-06-28T15:20:24Z</time>
      </trkpt>
      <trkpt lat="44.12435" lon="7.24445">
        <ele>2159.947</ele>
        <time>2020-06-28T15:20:39Z</time>
      </trkpt>
      <trkpt lat="44.12435" lon="7.24446">
        <ele>2159.791</ele>
        <time>2020-06-28T15:20:55Z</time>
      </trkpt>
      <trkpt lat="44.12454" lon="7.2445">
        <ele>2160.396</ele>
        <time>2020-06-28T15:21:11Z</time>
      </trkpt>
      <trkpt lat="44.12454" lon="7.2445">
        <ele>2160.396</ele>
        <time>2020-06-28T15:21:27Z</time>
      </trkpt>
      <trkpt lat="44.12462" lon="7.24447">
        <ele>2161.481</ele>
        <time>2020-06-28T15:21:43Z</time>
      </trkpt>
      <trkpt lat="44.12461" lon="7.24445">
        <ele>2163.866</ele>
        <time>2020-06-28T15:21:59Z</time>
      </trkpt>
      <trkpt lat="44.12471" lon="7.24442">
        <ele>2166.866</ele>
        <time>2020-06-28T15:22:15Z</time>
      </trkpt>
      <trkpt lat="44.12471" lon="7.24442">
        <ele>2166.866</ele>
        <time>2020-06-28T15:22:31Z</time>
      </trkpt>
      <trkpt lat="44.12469" lon="7.24442">
        <ele>2165.663</ele>
        <time>2020-06-28T15:22:47Z</time>
      </trkpt>
      <trkpt lat="44.12468" lon="7.24443">
        <ele>2164.452</ele>
        <time>2020-06-28T15:23:02Z</time>
      </trkpt>
      <trkpt lat="44.12468" lon="7.24443">
        <ele>2164.452</ele>
        <time>2020-06-28T15:23:18Z</time>
      </trkpt>
      <trkpt lat="44.12487" lon="7.24424">
        <ele>2163.154</ele>
        <time>2020-06-28T15:23:33Z</time>
      </trkpt>
      <trkpt lat="44.12453" lon="7.24438">
        <ele>2156.475</ele>
        <time>2020-06-28T15:23:49Z</time>
      </trkpt>
      <trkpt lat="44.12453" lon="7.24438">
        <ele>2156.475</ele>
        <time>2020-06-28T15:24:05Z</time>
      </trkpt>
      <trkpt lat="44.12453" lon="7.24438">
        <ele>2156.475</ele>
        <time>2020-06-28T15:24:21Z</time>
      </trkpt>
      <trkpt lat="44.12453" lon="7.24438">
        <ele>2156.475</ele>
        <time>2020-06-28T15:24:37Z</time>
      </trkpt>
      <trkpt lat="44.12453" lon="7.24438">
        <ele>2156.475</ele>
        <time>2020-06-28T15:24:53Z</time>
      </trkpt>
      <trkpt lat="44.12453" lon="7.24438">
        <ele>2156.475</ele>
        <time>2020-06-28T15:25:09Z</time>
      </trkpt>
      <trkpt lat="44.12463" lon="7.24437">
        <ele>2158.355</ele>
        <time>2020-06-28T15:25:24Z</time>
      </trkpt>
      <trkpt lat="44.12463" lon="7.24437">
        <ele>2158.355</ele>
        <time>2020-06-28T15:25:40Z</time>
      </trkpt>
      <trkpt lat="44.12462" lon="7.24437">
        <ele>2155.62</ele>
        <time>2020-06-28T15:25:56Z</time>
      </trkpt>
      <trkpt lat="44.12457" lon="7.24434">
        <ele>2156.057</ele>
        <time>2020-06-28T15:26:11Z</time>
      </trkpt>
      <trkpt lat="44.12465" lon="7.2444">
        <ele>2158.289</ele>
        <time>2020-06-28T15:26:27Z</time>
      </trkpt>
      <trkpt lat="44.12465" lon="7.2444">
        <ele>2158.289</ele>
        <time>2020-06-28T15:26:43Z</time>
      </trkpt>
      <trkpt lat="44.12465" lon="7.2444">
        <ele>2158.289</ele>
        <time>2020-06-28T15:26:59Z</time>
      </trkpt>
      <trkpt lat="44.12465" lon="7.2444">
        <ele>2158.289</ele>
        <time>2020-06-28T15:27:14Z</time>
      </trkpt>
      <trkpt lat="44.12465" lon="7.2444">
        <ele>2158.289</ele>
        <time>2020-06-28T15:27:30Z</time>
      </trkpt>
      <trkpt lat="44.12464" lon="7.24441">
        <ele>2157.848</ele>
        <time>2020-06-28T15:27:46Z</time>
      </trkpt>
      <trkpt lat="44.12461" lon="7.24438">
        <ele>2157.58</ele>
        <time>2020-06-28T15:28:01Z</time>
      </trkpt>
      <trkpt lat="44.12459" lon="7.24441">
        <ele>2158.08</ele>
        <time>2020-06-28T15:28:17Z</time>
      </trkpt>
      <trkpt lat="44.12456" lon="7.24434">
        <ele>2158.82</ele>
        <time>2020-06-28T15:28:33Z</time>
      </trkpt>
      <trkpt lat="44.12455" lon="7.24436">
        <ele>2157.299</ele>
        <time>2020-06-28T15:28:49Z</time>
      </trkpt>
      <trkpt lat="44.12449" lon="7.24432">
        <ele>2154.257</ele>
        <time>2020-06-28T15:29:04Z</time>
      </trkpt>
      <trkpt lat="44.12437" lon="7.24417">
        <ele>2155.105</ele>
        <time>2020-06-28T15:29:20Z</time>
      </trkpt>
      <trkpt lat="44.12434" lon="7.24396">
        <ele>2155.138</ele>
        <time>2020-06-28T15:29:35Z</time>
      </trkpt>
      <trkpt lat="44.12433" lon="7.24379">
        <ele>2156.252</ele>
        <time>2020-06-28T15:29:51Z</time>
      </trkpt>
      <trkpt lat="44.12428" lon="7.24374">
        <ele>2158.142</ele>
        <time>2020-06-28T15:30:07Z</time>
      </trkpt>
      <trkpt lat="44.12422" lon="7.24353">
        <ele>2155.143</ele>
        <time>2020-06-28T15:30:23Z</time>
      </trkpt>
      <trkpt lat="44.12419" lon="7.24334">
        <ele>2147.364</ele>
        <time>2020-06-28T15:30:38Z</time>
      </trkpt>
      <trkpt lat="44.12417" lon="7.24311">
        <ele>2144.818</ele>
        <time>2020-06-28T15:30:53Z</time>
      </trkpt>
      <trkpt lat="44.12417" lon="7.24283">
        <ele>2150.891</ele>
        <time>2020-06-28T15:31:09Z</time>
      </trkpt>
      <trkpt lat="44.1242" lon="7.24264">
        <ele>2147.755</ele>
        <time>2020-06-28T15:31:24Z</time>
      </trkpt>
      <trkpt lat="44.12412" lon="7.24248">
        <ele>2154.155</ele>
        <time>2020-06-28T15:31:40Z</time>
      </trkpt>
      <trkpt lat="44.12403" lon="7.24235">
        <ele>2160.338</ele>
        <time>2020-06-28T15:31:56Z</time>
      </trkpt>
      <trkpt lat="44.12386" lon="7.24226">
        <ele>2161.339</ele>
        <time>2020-06-28T15:32:11Z</time>
      </trkpt>
      <trkpt lat="44.12375" lon="7.2421">
        <ele>2164.819</ele>
        <time>2020-06-28T15:32:27Z</time>
      </trkpt>
      <trkpt lat="44.12372" lon="7.24186">
        <ele>2165.797</ele>
        <time>2020-06-28T15:32:42Z</time>
      </trkpt>
      <trkpt lat="44.12377" lon="7.24164">
        <ele>2165.997</ele>
        <time>2020-06-28T15:32:58Z</time>
      </trkpt>
      <trkpt lat="44.12382" lon="7.24153">
        <ele>2167.481</ele>
        <time>2020-06-28T15:33:13Z</time>
      </trkpt>
      <trkpt lat="44.12384" lon="7.24151">
        <ele>2172.298</ele>
        <time>2020-06-28T15:33:28Z</time>
      </trkpt>
      <trkpt lat="44.12381" lon="7.24142">
        <ele>2173.856</ele>
        <time>2020-06-28T15:33:43Z</time>
      </trkpt>
      <trkpt lat="44.12381" lon="7.24129">
        <ele>2175.514</ele>
        <time>2020-06-28T15:33:59Z</time>
      </trkpt>
      <trkpt lat="44.12381" lon="7.24122">
        <ele>2176.301</ele>
        <time>2020-06-28T15:34:15Z</time>
      </trkpt>
      <trkpt lat="44.12379" lon="7.24106">
        <ele>2178.21</ele>
        <time>2020-06-28T15:34:30Z</time>
      </trkpt>
      <trkpt lat="44.12373" lon="7.24083">
        <ele>2182.976</ele>
        <time>2020-06-28T15:34:46Z</time>
      </trkpt>
      <trkpt lat="44.12374" lon="7.24063">
        <ele>2181.157</ele>
        <time>2020-06-28T15:35:01Z</time>
      </trkpt>
      <trkpt lat="44.12386" lon="7.2406">
        <ele>2179.456</ele>
        <time>2020-06-28T15:35:17Z</time>
      </trkpt>
      <trkpt lat="44.12398" lon="7.24063">
        <ele>2179.574</ele>
        <time>2020-06-28T15:35:33Z</time>
      </trkpt>
      <trkpt lat="44.12407" lon="7.24062">
        <ele>2183.535</ele>
        <time>2020-06-28T15:35:48Z</time>
      </trkpt>
      <trkpt lat="44.12416" lon="7.24063">
        <ele>2184.607</ele>
        <time>2020-06-28T15:36:04Z</time>
      </trkpt>
      <trkpt lat="44.12421" lon="7.24059">
        <ele>2185.137</ele>
        <time>2020-06-28T15:36:20Z</time>
      </trkpt>
      <trkpt lat="44.12422" lon="7.24058">
        <ele>2184.887</ele>
        <time>2020-06-28T15:36:35Z</time>
      </trkpt>
      <trkpt lat="44.12422" lon="7.24058">
        <ele>2184.887</ele>
        <time>2020-06-28T15:36:51Z</time>
      </trkpt>
      <trkpt lat="44.12429" lon="7.24051">
        <ele>2182.399</ele>
        <time>2020-06-28T15:37:07Z</time>
      </trkpt>
      <trkpt lat="44.12431" lon="7.24056">
        <ele>2182.476</ele>
        <time>2020-06-28T15:37:23Z</time>
      </trkpt>
      <trkpt lat="44.12435" lon="7.24058">
        <ele>2183.483</ele>
        <time>2020-06-28T15:37:38Z</time>
      </trkpt>
      <trkpt lat="44.12448" lon="7.24082">
        <ele>2182.999</ele>
        <time>2020-06-28T15:37:53Z</time>
      </trkpt>
      <trkpt lat="44.12451" lon="7.24084">
        <ele>2184.198</ele>
        <time>2020-06-28T15:38:09Z</time>
      </trkpt>
      <trkpt lat="44.12451" lon="7.24088">
        <ele>2183.7</ele>
        <time>2020-06-28T15:38:25Z</time>
      </trkpt>
      <trkpt lat="44.12449" lon="7.24093">
        <ele>2183.302</ele>
        <time>2020-06-28T15:38:41Z</time>
      </trkpt>
      <trkpt lat="44.12447" lon="7.24089">
        <ele>2183.995</ele>
        <time>2020-06-28T15:38:57Z</time>
      </trkpt>
      <trkpt lat="44.12447" lon="7.24091">
        <ele>2183.708</ele>
        <time>2020-06-28T15:39:12Z</time>
      </trkpt>
      <trkpt lat="44.12448" lon="7.24092">
        <ele>2184.257</ele>
        <time>2020-06-28T15:39:28Z</time>
      </trkpt>
      <trkpt lat="44.12448" lon="7.24092">
        <ele>2184.257</ele>
        <time>2020-06-28T15:39:44Z</time>
      </trkpt>
    </trkseg>
  </trk>
</gpx>